<?xml version="1.0" encoding="UTF-8" standalone="no" ?>
<gpx xmlns="http://www.topografix.com/GPX/1/1" xmlns:xsi="http://www.w3.org/2001/XMLSchema-instance" xsi:schemaLocation="http://www.topografix.com/GPX/1/1 http://www.topografix.com/GPX/1/1/gpx.xsd" version="1.1" creator="VisuGPX - https://www.visugpx.com">
  <metadata>
    <name>le pilat autour du col  de Pavezin</name>
    <desc><![CDATA[Une sortie agréable au sortir d\'Echalas, à faire tranquille, mais avec un peu d\'entrainement ! ]]></desc>
  </metadata>
  <trk>
    <name><![CDATA[Sequence 1]]></name>
    <trkseg>
      <trkpt lat="45.55441" lon="4.71781">
        <ele>359</ele>
        <time>2015-06-07T08:13:03Z</time>
      </trkpt>
      <trkpt lat="45.55435" lon="4.71789">
        <ele>359</ele>
        <time>2015-06-07T08:13:08Z</time>
      </trkpt>
      <trkpt lat="45.55439" lon="4.71789">
        <ele>358</ele>
        <time>2015-06-07T08:13:12Z</time>
      </trkpt>
      <trkpt lat="45.55439" lon="4.71793">
        <ele>359</ele>
        <time>2015-06-07T08:13:14Z</time>
      </trkpt>
      <trkpt lat="45.55442" lon="4.71823">
        <ele>352</ele>
        <time>2015-06-07T08:13:22Z</time>
      </trkpt>
      <trkpt lat="45.55439" lon="4.71832">
        <ele>353</ele>
        <time>2015-06-07T08:13:24Z</time>
      </trkpt>
      <trkpt lat="45.55422" lon="4.71854">
        <ele>354</ele>
        <time>2015-06-07T08:13:32Z</time>
      </trkpt>
      <trkpt lat="45.55418" lon="4.71857">
        <ele>354</ele>
        <time>2015-06-07T08:13:34Z</time>
      </trkpt>
      <trkpt lat="45.55405" lon="4.71866">
        <ele>357</ele>
        <time>2015-06-07T08:13:39Z</time>
      </trkpt>
      <trkpt lat="45.55393" lon="4.71873">
        <ele>358</ele>
        <time>2015-06-07T08:13:44Z</time>
      </trkpt>
      <trkpt lat="45.55383" lon="4.71878">
        <ele>358</ele>
        <time>2015-06-07T08:13:49Z</time>
      </trkpt>
      <trkpt lat="45.5537" lon="4.71885">
        <ele>360</ele>
        <time>2015-06-07T08:13:54Z</time>
      </trkpt>
      <trkpt lat="45.55358" lon="4.71892">
        <ele>362</ele>
        <time>2015-06-07T08:13:59Z</time>
      </trkpt>
      <trkpt lat="45.55347" lon="4.71895">
        <ele>362</ele>
        <time>2015-06-07T08:14:04Z</time>
      </trkpt>
      <trkpt lat="45.55335" lon="4.719">
        <ele>363</ele>
        <time>2015-06-07T08:14:09Z</time>
      </trkpt>
      <trkpt lat="45.55322" lon="4.71904">
        <ele>364</ele>
        <time>2015-06-07T08:14:14Z</time>
      </trkpt>
      <trkpt lat="45.55309" lon="4.71907">
        <ele>364</ele>
        <time>2015-06-07T08:14:19Z</time>
      </trkpt>
      <trkpt lat="45.55296" lon="4.71909">
        <ele>364</ele>
        <time>2015-06-07T08:14:24Z</time>
      </trkpt>
      <trkpt lat="45.55283" lon="4.7191">
        <ele>363</ele>
        <time>2015-06-07T08:14:29Z</time>
      </trkpt>
      <trkpt lat="45.5527" lon="4.71911">
        <ele>364</ele>
        <time>2015-06-07T08:14:34Z</time>
      </trkpt>
      <trkpt lat="45.55261" lon="4.71914">
        <ele>366</ele>
        <time>2015-06-07T08:14:39Z</time>
      </trkpt>
      <trkpt lat="45.55246" lon="4.71916">
        <ele>368</ele>
        <time>2015-06-07T08:14:45Z</time>
      </trkpt>
      <trkpt lat="45.5523" lon="4.71918">
        <ele>368</ele>
        <time>2015-06-07T08:14:49Z</time>
      </trkpt>
      <trkpt lat="45.55218" lon="4.71919">
        <ele>369</ele>
        <time>2015-06-07T08:14:54Z</time>
      </trkpt>
      <trkpt lat="45.55204" lon="4.7192">
        <ele>368</ele>
        <time>2015-06-07T08:14:59Z</time>
      </trkpt>
      <trkpt lat="45.55191" lon="4.71917">
        <ele>370</ele>
        <time>2015-06-07T08:15:04Z</time>
      </trkpt>
      <trkpt lat="45.55178" lon="4.71916">
        <ele>370</ele>
        <time>2015-06-07T08:15:10Z</time>
      </trkpt>
      <trkpt lat="45.55165" lon="4.71916">
        <ele>370</ele>
        <time>2015-06-07T08:15:14Z</time>
      </trkpt>
      <trkpt lat="45.5515" lon="4.71916">
        <ele>372</ele>
        <time>2015-06-07T08:15:19Z</time>
      </trkpt>
      <trkpt lat="45.55134" lon="4.71915">
        <ele>372</ele>
        <time>2015-06-07T08:15:24Z</time>
      </trkpt>
      <trkpt lat="45.55118" lon="4.71915">
        <ele>373</ele>
        <time>2015-06-07T08:15:29Z</time>
      </trkpt>
      <trkpt lat="45.55103" lon="4.71915">
        <ele>373</ele>
        <time>2015-06-07T08:15:34Z</time>
      </trkpt>
      <trkpt lat="45.55086" lon="4.71917">
        <ele>374</ele>
        <time>2015-06-07T08:15:39Z</time>
      </trkpt>
      <trkpt lat="45.55069" lon="4.71919">
        <ele>374</ele>
        <time>2015-06-07T08:15:44Z</time>
      </trkpt>
      <trkpt lat="45.55053" lon="4.71919">
        <ele>373</ele>
        <time>2015-06-07T08:15:49Z</time>
      </trkpt>
      <trkpt lat="45.55035" lon="4.71922">
        <ele>374</ele>
        <time>2015-06-07T08:15:54Z</time>
      </trkpt>
      <trkpt lat="45.55024" lon="4.7194">
        <ele>375</ele>
        <time>2015-06-07T08:15:59Z</time>
      </trkpt>
      <trkpt lat="45.55011" lon="4.71956">
        <ele>376</ele>
        <time>2015-06-07T08:16:04Z</time>
      </trkpt>
      <trkpt lat="45.55001" lon="4.71972">
        <ele>378</ele>
        <time>2015-06-07T08:16:09Z</time>
      </trkpt>
      <trkpt lat="45.54991" lon="4.71989">
        <ele>378</ele>
        <time>2015-06-07T08:16:14Z</time>
      </trkpt>
      <trkpt lat="45.5498" lon="4.72005">
        <ele>380</ele>
        <time>2015-06-07T08:16:19Z</time>
      </trkpt>
      <trkpt lat="45.54968" lon="4.72021">
        <ele>381</ele>
        <time>2015-06-07T08:16:24Z</time>
      </trkpt>
      <trkpt lat="45.54955" lon="4.72037">
        <ele>382</ele>
        <time>2015-06-07T08:16:29Z</time>
      </trkpt>
      <trkpt lat="45.54943" lon="4.7205">
        <ele>383</ele>
        <time>2015-06-07T08:16:35Z</time>
      </trkpt>
      <trkpt lat="45.5493" lon="4.72064">
        <ele>383</ele>
        <time>2015-06-07T08:16:39Z</time>
      </trkpt>
      <trkpt lat="45.54917" lon="4.72076">
        <ele>385</ele>
        <time>2015-06-07T08:16:44Z</time>
      </trkpt>
      <trkpt lat="45.54903" lon="4.72088">
        <ele>386</ele>
        <time>2015-06-07T08:16:49Z</time>
      </trkpt>
      <trkpt lat="45.54889" lon="4.72099">
        <ele>387</ele>
        <time>2015-06-07T08:16:54Z</time>
      </trkpt>
      <trkpt lat="45.54876" lon="4.7211">
        <ele>387</ele>
        <time>2015-06-07T08:17:00Z</time>
      </trkpt>
      <trkpt lat="45.54862" lon="4.7212">
        <ele>388</ele>
        <time>2015-06-07T08:17:04Z</time>
      </trkpt>
      <trkpt lat="45.54849" lon="4.72129">
        <ele>389</ele>
        <time>2015-06-07T08:17:09Z</time>
      </trkpt>
      <trkpt lat="45.54836" lon="4.7214">
        <ele>390</ele>
        <time>2015-06-07T08:17:14Z</time>
      </trkpt>
      <trkpt lat="45.54824" lon="4.72151">
        <ele>391</ele>
        <time>2015-06-07T08:17:19Z</time>
      </trkpt>
      <trkpt lat="45.5481" lon="4.72161">
        <ele>392</ele>
        <time>2015-06-07T08:17:24Z</time>
      </trkpt>
      <trkpt lat="45.54798" lon="4.72172">
        <ele>393</ele>
        <time>2015-06-07T08:17:29Z</time>
      </trkpt>
      <trkpt lat="45.54785" lon="4.72182">
        <ele>393</ele>
        <time>2015-06-07T08:17:34Z</time>
      </trkpt>
      <trkpt lat="45.54773" lon="4.72195">
        <ele>394</ele>
        <time>2015-06-07T08:17:39Z</time>
      </trkpt>
      <trkpt lat="45.54761" lon="4.72206">
        <ele>396</ele>
        <time>2015-06-07T08:17:45Z</time>
      </trkpt>
      <trkpt lat="45.5475" lon="4.72217">
        <ele>394</ele>
        <time>2015-06-07T08:17:49Z</time>
      </trkpt>
      <trkpt lat="45.54738" lon="4.72227">
        <ele>398</ele>
        <time>2015-06-07T08:17:54Z</time>
      </trkpt>
      <trkpt lat="45.54726" lon="4.72238">
        <ele>399</ele>
        <time>2015-06-07T08:17:59Z</time>
      </trkpt>
      <trkpt lat="45.54714" lon="4.72251">
        <ele>400</ele>
        <time>2015-06-07T08:18:04Z</time>
      </trkpt>
      <trkpt lat="45.54703" lon="4.72261">
        <ele>401</ele>
        <time>2015-06-07T08:18:09Z</time>
      </trkpt>
      <trkpt lat="45.54692" lon="4.72273">
        <ele>402</ele>
        <time>2015-06-07T08:18:14Z</time>
      </trkpt>
      <trkpt lat="45.5468" lon="4.72283">
        <ele>404</ele>
        <time>2015-06-07T08:18:19Z</time>
      </trkpt>
      <trkpt lat="45.54666" lon="4.72293">
        <ele>405</ele>
        <time>2015-06-07T08:18:24Z</time>
      </trkpt>
      <trkpt lat="45.54652" lon="4.72305">
        <ele>407</ele>
        <time>2015-06-07T08:18:29Z</time>
      </trkpt>
      <trkpt lat="45.54639" lon="4.72317">
        <ele>409</ele>
        <time>2015-06-07T08:18:34Z</time>
      </trkpt>
      <trkpt lat="45.54624" lon="4.72328">
        <ele>411</ele>
        <time>2015-06-07T08:18:39Z</time>
      </trkpt>
      <trkpt lat="45.54611" lon="4.72339">
        <ele>412</ele>
        <time>2015-06-07T08:18:44Z</time>
      </trkpt>
      <trkpt lat="45.54598" lon="4.7235">
        <ele>412</ele>
        <time>2015-06-07T08:18:49Z</time>
      </trkpt>
      <trkpt lat="45.54585" lon="4.72361">
        <ele>414</ele>
        <time>2015-06-07T08:18:55Z</time>
      </trkpt>
      <trkpt lat="45.54572" lon="4.72371">
        <ele>415</ele>
        <time>2015-06-07T08:18:59Z</time>
      </trkpt>
      <trkpt lat="45.5456" lon="4.72384">
        <ele>415</ele>
        <time>2015-06-07T08:19:04Z</time>
      </trkpt>
      <trkpt lat="45.54547" lon="4.72398">
        <ele>416</ele>
        <time>2015-06-07T08:19:10Z</time>
      </trkpt>
      <trkpt lat="45.54533" lon="4.72412">
        <ele>417</ele>
        <time>2015-06-07T08:19:14Z</time>
      </trkpt>
      <trkpt lat="45.54518" lon="4.72426">
        <ele>418</ele>
        <time>2015-06-07T08:19:19Z</time>
      </trkpt>
      <trkpt lat="45.54504" lon="4.72442">
        <ele>419</ele>
        <time>2015-06-07T08:19:24Z</time>
      </trkpt>
      <trkpt lat="45.54489" lon="4.72459">
        <ele>420</ele>
        <time>2015-06-07T08:19:29Z</time>
      </trkpt>
      <trkpt lat="45.54477" lon="4.72476">
        <ele>420</ele>
        <time>2015-06-07T08:19:34Z</time>
      </trkpt>
      <trkpt lat="45.54466" lon="4.72494">
        <ele>421</ele>
        <time>2015-06-07T08:19:39Z</time>
      </trkpt>
      <trkpt lat="45.54455" lon="4.72512">
        <ele>422</ele>
        <time>2015-06-07T08:19:44Z</time>
      </trkpt>
      <trkpt lat="45.54444" lon="4.7253">
        <ele>423</ele>
        <time>2015-06-07T08:19:49Z</time>
      </trkpt>
      <trkpt lat="45.54433" lon="4.72547">
        <ele>424</ele>
        <time>2015-06-07T08:19:54Z</time>
      </trkpt>
      <trkpt lat="45.54422" lon="4.72566">
        <ele>424</ele>
        <time>2015-06-07T08:19:59Z</time>
      </trkpt>
      <trkpt lat="45.5441" lon="4.72588">
        <ele>425</ele>
        <time>2015-06-07T08:20:05Z</time>
      </trkpt>
      <trkpt lat="45.54398" lon="4.7261">
        <ele>425</ele>
        <time>2015-06-07T08:20:09Z</time>
      </trkpt>
      <trkpt lat="45.54386" lon="4.72634">
        <ele>426</ele>
        <time>2015-06-07T08:20:14Z</time>
      </trkpt>
      <trkpt lat="45.54374" lon="4.72657">
        <ele>426</ele>
        <time>2015-06-07T08:20:19Z</time>
      </trkpt>
      <trkpt lat="45.54363" lon="4.7268">
        <ele>426</ele>
        <time>2015-06-07T08:20:24Z</time>
      </trkpt>
      <trkpt lat="45.54353" lon="4.72704">
        <ele>427</ele>
        <time>2015-06-07T08:20:29Z</time>
      </trkpt>
      <trkpt lat="45.54345" lon="4.72728">
        <ele>428</ele>
        <time>2015-06-07T08:20:34Z</time>
      </trkpt>
      <trkpt lat="45.54336" lon="4.72753">
        <ele>428</ele>
        <time>2015-06-07T08:20:39Z</time>
      </trkpt>
      <trkpt lat="45.54326" lon="4.72778">
        <ele>429</ele>
        <time>2015-06-07T08:20:44Z</time>
      </trkpt>
      <trkpt lat="45.54316" lon="4.72802">
        <ele>430</ele>
        <time>2015-06-07T08:20:50Z</time>
      </trkpt>
      <trkpt lat="45.54305" lon="4.72824">
        <ele>431</ele>
        <time>2015-06-07T08:20:54Z</time>
      </trkpt>
      <trkpt lat="45.5429" lon="4.72844">
        <ele>432</ele>
        <time>2015-06-07T08:20:59Z</time>
      </trkpt>
      <trkpt lat="45.54274" lon="4.72868">
        <ele>432</ele>
        <time>2015-06-07T08:21:04Z</time>
      </trkpt>
      <trkpt lat="45.54256" lon="4.72894">
        <ele>431</ele>
        <time>2015-06-07T08:21:09Z</time>
      </trkpt>
      <trkpt lat="45.54235" lon="4.72927">
        <ele>431</ele>
        <time>2015-06-07T08:21:14Z</time>
      </trkpt>
      <trkpt lat="45.54215" lon="4.7296">
        <ele>430</ele>
        <time>2015-06-07T08:21:19Z</time>
      </trkpt>
      <trkpt lat="45.54195" lon="4.72992">
        <ele>430</ele>
        <time>2015-06-07T08:21:24Z</time>
      </trkpt>
      <trkpt lat="45.54175" lon="4.73026">
        <ele>432</ele>
        <time>2015-06-07T08:21:29Z</time>
      </trkpt>
      <trkpt lat="45.54158" lon="4.73057">
        <ele>432</ele>
        <time>2015-06-07T08:21:34Z</time>
      </trkpt>
      <trkpt lat="45.54142" lon="4.73086">
        <ele>434</ele>
        <time>2015-06-07T08:21:39Z</time>
      </trkpt>
      <trkpt lat="45.54128" lon="4.73111">
        <ele>435</ele>
        <time>2015-06-07T08:21:44Z</time>
      </trkpt>
      <trkpt lat="45.54114" lon="4.73136">
        <ele>437</ele>
        <time>2015-06-07T08:21:49Z</time>
      </trkpt>
      <trkpt lat="45.54104" lon="4.73157">
        <ele>440</ele>
        <time>2015-06-07T08:21:54Z</time>
      </trkpt>
      <trkpt lat="45.54092" lon="4.73178">
        <ele>441</ele>
        <time>2015-06-07T08:21:59Z</time>
      </trkpt>
      <trkpt lat="45.54081" lon="4.73199">
        <ele>442</ele>
        <time>2015-06-07T08:22:04Z</time>
      </trkpt>
      <trkpt lat="45.54072" lon="4.73224">
        <ele>442</ele>
        <time>2015-06-07T08:22:09Z</time>
      </trkpt>
      <trkpt lat="45.54065" lon="4.73252">
        <ele>443</ele>
        <time>2015-06-07T08:22:14Z</time>
      </trkpt>
      <trkpt lat="45.54057" lon="4.7328">
        <ele>445</ele>
        <time>2015-06-07T08:22:19Z</time>
      </trkpt>
      <trkpt lat="45.54049" lon="4.73312">
        <ele>443</ele>
        <time>2015-06-07T08:22:24Z</time>
      </trkpt>
      <trkpt lat="45.54047" lon="4.73347">
        <ele>444</ele>
        <time>2015-06-07T08:22:29Z</time>
      </trkpt>
      <trkpt lat="45.54067" lon="4.73374">
        <ele>443</ele>
        <time>2015-06-07T08:22:34Z</time>
      </trkpt>
      <trkpt lat="45.54095" lon="4.73392">
        <ele>442</ele>
        <time>2015-06-07T08:22:39Z</time>
      </trkpt>
      <trkpt lat="45.5411" lon="4.73436">
        <ele>442</ele>
        <time>2015-06-07T08:22:45Z</time>
      </trkpt>
      <trkpt lat="45.54102" lon="4.73483">
        <ele>442</ele>
        <time>2015-06-07T08:22:50Z</time>
      </trkpt>
      <trkpt lat="45.54088" lon="4.73526">
        <ele>441</ele>
        <time>2015-06-07T08:22:54Z</time>
      </trkpt>
      <trkpt lat="45.54068" lon="4.73563">
        <ele>441</ele>
        <time>2015-06-07T08:22:59Z</time>
      </trkpt>
      <trkpt lat="45.54048" lon="4.73598">
        <ele>442</ele>
        <time>2015-06-07T08:23:04Z</time>
      </trkpt>
      <trkpt lat="45.54031" lon="4.73632">
        <ele>442</ele>
        <time>2015-06-07T08:23:09Z</time>
      </trkpt>
      <trkpt lat="45.54022" lon="4.7367">
        <ele>443</ele>
        <time>2015-06-07T08:23:14Z</time>
      </trkpt>
      <trkpt lat="45.54026" lon="4.7371">
        <ele>442</ele>
        <time>2015-06-07T08:23:19Z</time>
      </trkpt>
      <trkpt lat="45.54047" lon="4.73742">
        <ele>443</ele>
        <time>2015-06-07T08:23:24Z</time>
      </trkpt>
      <trkpt lat="45.54069" lon="4.7377">
        <ele>444</ele>
        <time>2015-06-07T08:23:30Z</time>
      </trkpt>
      <trkpt lat="45.54081" lon="4.73809">
        <ele>444</ele>
        <time>2015-06-07T08:23:34Z</time>
      </trkpt>
      <trkpt lat="45.54087" lon="4.73848">
        <ele>443</ele>
        <time>2015-06-07T08:23:39Z</time>
      </trkpt>
      <trkpt lat="45.54104" lon="4.73895">
        <ele>443</ele>
        <time>2015-06-07T08:23:44Z</time>
      </trkpt>
      <trkpt lat="45.5414" lon="4.73932">
        <ele>440</ele>
        <time>2015-06-07T08:23:49Z</time>
      </trkpt>
      <trkpt lat="45.54185" lon="4.73952">
        <ele>436</ele>
        <time>2015-06-07T08:23:54Z</time>
      </trkpt>
      <trkpt lat="45.54181" lon="4.74007">
        <ele>432</ele>
        <time>2015-06-07T08:23:59Z</time>
      </trkpt>
      <trkpt lat="45.54145" lon="4.7405">
        <ele>430</ele>
        <time>2015-06-07T08:24:04Z</time>
      </trkpt>
      <trkpt lat="45.54117" lon="4.741">
        <ele>429</ele>
        <time>2015-06-07T08:24:09Z</time>
      </trkpt>
      <trkpt lat="45.54101" lon="4.74153">
        <ele>429</ele>
        <time>2015-06-07T08:24:14Z</time>
      </trkpt>
      <trkpt lat="45.54108" lon="4.74201">
        <ele>430</ele>
        <time>2015-06-07T08:24:19Z</time>
      </trkpt>
      <trkpt lat="45.54126" lon="4.7425">
        <ele>429</ele>
        <time>2015-06-07T08:24:24Z</time>
      </trkpt>
      <trkpt lat="45.54122" lon="4.74301">
        <ele>430</ele>
        <time>2015-06-07T08:24:29Z</time>
      </trkpt>
      <trkpt lat="45.54112" lon="4.7434">
        <ele>431</ele>
        <time>2015-06-07T08:24:34Z</time>
      </trkpt>
      <trkpt lat="45.54098" lon="4.74366">
        <ele>431</ele>
        <time>2015-06-07T08:24:39Z</time>
      </trkpt>
      <trkpt lat="45.54073" lon="4.7437">
        <ele>432</ele>
        <time>2015-06-07T08:24:44Z</time>
      </trkpt>
      <trkpt lat="45.54043" lon="4.74363">
        <ele>432</ele>
        <time>2015-06-07T08:24:49Z</time>
      </trkpt>
      <trkpt lat="45.5401" lon="4.74355">
        <ele>431</ele>
        <time>2015-06-07T08:24:54Z</time>
      </trkpt>
      <trkpt lat="45.53974" lon="4.74347">
        <ele>430</ele>
        <time>2015-06-07T08:24:59Z</time>
      </trkpt>
      <trkpt lat="45.53936" lon="4.74338">
        <ele>429</ele>
        <time>2015-06-07T08:25:04Z</time>
      </trkpt>
      <trkpt lat="45.53897" lon="4.74333">
        <ele>429</ele>
        <time>2015-06-07T08:25:09Z</time>
      </trkpt>
      <trkpt lat="45.53859" lon="4.74334">
        <ele>428</ele>
        <time>2015-06-07T08:25:14Z</time>
      </trkpt>
      <trkpt lat="45.53823" lon="4.74339">
        <ele>428</ele>
        <time>2015-06-07T08:25:19Z</time>
      </trkpt>
      <trkpt lat="45.53789" lon="4.74346">
        <ele>429</ele>
        <time>2015-06-07T08:25:25Z</time>
      </trkpt>
      <trkpt lat="45.53757" lon="4.74359">
        <ele>429</ele>
        <time>2015-06-07T08:25:30Z</time>
      </trkpt>
      <trkpt lat="45.53728" lon="4.74372">
        <ele>430</ele>
        <time>2015-06-07T08:25:35Z</time>
      </trkpt>
      <trkpt lat="45.53701" lon="4.74385">
        <ele>431</ele>
        <time>2015-06-07T08:25:40Z</time>
      </trkpt>
      <trkpt lat="45.53676" lon="4.74397">
        <ele>432</ele>
        <time>2015-06-07T08:25:45Z</time>
      </trkpt>
      <trkpt lat="45.53654" lon="4.74408">
        <ele>434</ele>
        <time>2015-06-07T08:25:50Z</time>
      </trkpt>
      <trkpt lat="45.53635" lon="4.74419">
        <ele>436</ele>
        <time>2015-06-07T08:25:54Z</time>
      </trkpt>
      <trkpt lat="45.53614" lon="4.74432">
        <ele>436</ele>
        <time>2015-06-07T08:26:00Z</time>
      </trkpt>
      <trkpt lat="45.53592" lon="4.74446">
        <ele>436</ele>
        <time>2015-06-07T08:26:05Z</time>
      </trkpt>
      <trkpt lat="45.53571" lon="4.7446">
        <ele>438</ele>
        <time>2015-06-07T08:26:10Z</time>
      </trkpt>
      <trkpt lat="45.53551" lon="4.74471">
        <ele>438</ele>
        <time>2015-06-07T08:26:15Z</time>
      </trkpt>
      <trkpt lat="45.53531" lon="4.74481">
        <ele>439</ele>
        <time>2015-06-07T08:26:20Z</time>
      </trkpt>
      <trkpt lat="45.5351" lon="4.7449">
        <ele>439</ele>
        <time>2015-06-07T08:26:25Z</time>
      </trkpt>
      <trkpt lat="45.53489" lon="4.74486">
        <ele>440</ele>
        <time>2015-06-07T08:26:30Z</time>
      </trkpt>
      <trkpt lat="45.53476" lon="4.74463">
        <ele>441</ele>
        <time>2015-06-07T08:26:34Z</time>
      </trkpt>
      <trkpt lat="45.53478" lon="4.74432">
        <ele>441</ele>
        <time>2015-06-07T08:26:40Z</time>
      </trkpt>
      <trkpt lat="45.53488" lon="4.74402">
        <ele>440</ele>
        <time>2015-06-07T08:26:45Z</time>
      </trkpt>
      <trkpt lat="45.53498" lon="4.74371">
        <ele>439</ele>
        <time>2015-06-07T08:26:50Z</time>
      </trkpt>
      <trkpt lat="45.53502" lon="4.74344">
        <ele>440</ele>
        <time>2015-06-07T08:26:54Z</time>
      </trkpt>
      <trkpt lat="45.53489" lon="4.74313">
        <ele>445</ele>
        <time>2015-06-07T08:27:02Z</time>
      </trkpt>
      <trkpt lat="45.53481" lon="4.743">
        <ele>447</ele>
        <time>2015-06-07T08:27:05Z</time>
      </trkpt>
      <trkpt lat="45.53467" lon="4.74278">
        <ele>447</ele>
        <time>2015-06-07T08:27:10Z</time>
      </trkpt>
      <trkpt lat="45.5345" lon="4.74261">
        <ele>448</ele>
        <time>2015-06-07T08:27:15Z</time>
      </trkpt>
      <trkpt lat="45.5343" lon="4.74248">
        <ele>449</ele>
        <time>2015-06-07T08:27:20Z</time>
      </trkpt>
      <trkpt lat="45.5341" lon="4.74237">
        <ele>450</ele>
        <time>2015-06-07T08:27:25Z</time>
      </trkpt>
      <trkpt lat="45.53389" lon="4.74227">
        <ele>450</ele>
        <time>2015-06-07T08:27:30Z</time>
      </trkpt>
      <trkpt lat="45.53367" lon="4.74221">
        <ele>451</ele>
        <time>2015-06-07T08:27:35Z</time>
      </trkpt>
      <trkpt lat="45.53345" lon="4.7422">
        <ele>451</ele>
        <time>2015-06-07T08:27:40Z</time>
      </trkpt>
      <trkpt lat="45.53325" lon="4.74231">
        <ele>452</ele>
        <time>2015-06-07T08:27:45Z</time>
      </trkpt>
      <trkpt lat="45.53307" lon="4.74247">
        <ele>454</ele>
        <time>2015-06-07T08:27:49Z</time>
      </trkpt>
      <trkpt lat="45.5329" lon="4.74265">
        <ele>455</ele>
        <time>2015-06-07T08:27:55Z</time>
      </trkpt>
      <trkpt lat="45.53273" lon="4.74283">
        <ele>457</ele>
        <time>2015-06-07T08:28:00Z</time>
      </trkpt>
      <trkpt lat="45.53256" lon="4.74301">
        <ele>458</ele>
        <time>2015-06-07T08:28:05Z</time>
      </trkpt>
      <trkpt lat="45.5324" lon="4.74319">
        <ele>458</ele>
        <time>2015-06-07T08:28:10Z</time>
      </trkpt>
      <trkpt lat="45.53223" lon="4.74336">
        <ele>460</ele>
        <time>2015-06-07T08:28:15Z</time>
      </trkpt>
      <trkpt lat="45.53204" lon="4.74348">
        <ele>462</ele>
        <time>2015-06-07T08:28:20Z</time>
      </trkpt>
      <trkpt lat="45.53181" lon="4.74352">
        <ele>462</ele>
        <time>2015-06-07T08:28:25Z</time>
      </trkpt>
      <trkpt lat="45.53157" lon="4.7435">
        <ele>461</ele>
        <time>2015-06-07T08:28:30Z</time>
      </trkpt>
      <trkpt lat="45.53133" lon="4.74341">
        <ele>460</ele>
        <time>2015-06-07T08:28:34Z</time>
      </trkpt>
      <trkpt lat="45.53111" lon="4.74328">
        <ele>458</ele>
        <time>2015-06-07T08:28:40Z</time>
      </trkpt>
      <trkpt lat="45.53088" lon="4.74305">
        <ele>457</ele>
        <time>2015-06-07T08:28:45Z</time>
      </trkpt>
      <trkpt lat="45.53049" lon="4.7426">
        <ele>456</ele>
        <time>2015-06-07T08:28:54Z</time>
      </trkpt>
      <trkpt lat="45.53042" lon="4.74251">
        <ele>458</ele>
        <time>2015-06-07T08:28:56Z</time>
      </trkpt>
      <trkpt lat="45.53032" lon="4.74232">
        <ele>461</ele>
        <time>2015-06-07T08:29:00Z</time>
      </trkpt>
      <trkpt lat="45.53012" lon="4.74219">
        <ele>461</ele>
        <time>2015-06-07T08:29:05Z</time>
      </trkpt>
      <trkpt lat="45.52995" lon="4.74206">
        <ele>464</ele>
        <time>2015-06-07T08:29:10Z</time>
      </trkpt>
      <trkpt lat="45.52975" lon="4.742">
        <ele>464</ele>
        <time>2015-06-07T08:29:15Z</time>
      </trkpt>
      <trkpt lat="45.52955" lon="4.74191">
        <ele>465</ele>
        <time>2015-06-07T08:29:20Z</time>
      </trkpt>
      <trkpt lat="45.52937" lon="4.7418">
        <ele>466</ele>
        <time>2015-06-07T08:29:25Z</time>
      </trkpt>
      <trkpt lat="45.52924" lon="4.74162">
        <ele>467</ele>
        <time>2015-06-07T08:29:30Z</time>
      </trkpt>
      <trkpt lat="45.52911" lon="4.74141">
        <ele>468</ele>
        <time>2015-06-07T08:29:35Z</time>
      </trkpt>
      <trkpt lat="45.52899" lon="4.7412">
        <ele>470</ele>
        <time>2015-06-07T08:29:40Z</time>
      </trkpt>
      <trkpt lat="45.52885" lon="4.74101">
        <ele>471</ele>
        <time>2015-06-07T08:29:44Z</time>
      </trkpt>
      <trkpt lat="45.52872" lon="4.74086">
        <ele>472</ele>
        <time>2015-06-07T08:29:49Z</time>
      </trkpt>
      <trkpt lat="45.52854" lon="4.74079">
        <ele>473</ele>
        <time>2015-06-07T08:29:54Z</time>
      </trkpt>
      <trkpt lat="45.52836" lon="4.74079">
        <ele>472</ele>
        <time>2015-06-07T08:29:59Z</time>
      </trkpt>
      <trkpt lat="45.52819" lon="4.74089">
        <ele>472</ele>
        <time>2015-06-07T08:30:04Z</time>
      </trkpt>
      <trkpt lat="45.52807" lon="4.741">
        <ele>478</ele>
        <time>2015-06-07T08:30:09Z</time>
      </trkpt>
      <trkpt lat="45.52789" lon="4.74115">
        <ele>479</ele>
        <time>2015-06-07T08:30:14Z</time>
      </trkpt>
      <trkpt lat="45.52777" lon="4.74132">
        <ele>482</ele>
        <time>2015-06-07T08:30:19Z</time>
      </trkpt>
      <trkpt lat="45.52763" lon="4.74152">
        <ele>483</ele>
        <time>2015-06-07T08:30:25Z</time>
      </trkpt>
      <trkpt lat="45.52748" lon="4.74167">
        <ele>490</ele>
        <time>2015-06-07T08:30:29Z</time>
      </trkpt>
      <trkpt lat="45.5273" lon="4.74178">
        <ele>491</ele>
        <time>2015-06-07T08:30:35Z</time>
      </trkpt>
      <trkpt lat="45.5271" lon="4.74193">
        <ele>490</ele>
        <time>2015-06-07T08:30:41Z</time>
      </trkpt>
      <trkpt lat="45.52704" lon="4.74201">
        <ele>495</ele>
        <time>2015-06-07T08:30:44Z</time>
      </trkpt>
      <trkpt lat="45.52685" lon="4.74213">
        <ele>499</ele>
        <time>2015-06-07T08:30:50Z</time>
      </trkpt>
      <trkpt lat="45.52668" lon="4.74216">
        <ele>500</ele>
        <time>2015-06-07T08:30:54Z</time>
      </trkpt>
      <trkpt lat="45.52646" lon="4.7422">
        <ele>497</ele>
        <time>2015-06-07T08:30:59Z</time>
      </trkpt>
      <trkpt lat="45.52608" lon="4.74223">
        <ele>494</ele>
        <time>2015-06-07T08:31:08Z</time>
      </trkpt>
      <trkpt lat="45.52604" lon="4.7422">
        <ele>495</ele>
        <time>2015-06-07T08:31:09Z</time>
      </trkpt>
      <trkpt lat="45.52581" lon="4.74225">
        <ele>495</ele>
        <time>2015-06-07T08:31:15Z</time>
      </trkpt>
      <trkpt lat="45.52564" lon="4.74221">
        <ele>493</ele>
        <time>2015-06-07T08:31:20Z</time>
      </trkpt>
      <trkpt lat="45.52538" lon="4.74216">
        <ele>495</ele>
        <time>2015-06-07T08:31:26Z</time>
      </trkpt>
      <trkpt lat="45.52517" lon="4.74213">
        <ele>495</ele>
        <time>2015-06-07T08:31:31Z</time>
      </trkpt>
      <trkpt lat="45.525" lon="4.7421">
        <ele>492</ele>
        <time>2015-06-07T08:31:35Z</time>
      </trkpt>
      <trkpt lat="45.5248" lon="4.74208">
        <ele>496</ele>
        <time>2015-06-07T08:31:39Z</time>
      </trkpt>
      <trkpt lat="45.52447" lon="4.74215">
        <ele>497</ele>
        <time>2015-06-07T08:31:48Z</time>
      </trkpt>
      <trkpt lat="45.52439" lon="4.7422">
        <ele>495</ele>
        <time>2015-06-07T08:31:50Z</time>
      </trkpt>
      <trkpt lat="45.52424" lon="4.74228">
        <ele>497</ele>
        <time>2015-06-07T08:31:55Z</time>
      </trkpt>
      <trkpt lat="45.52405" lon="4.74241">
        <ele>497</ele>
        <time>2015-06-07T08:32:00Z</time>
      </trkpt>
      <trkpt lat="45.52388" lon="4.74252">
        <ele>500</ele>
        <time>2015-06-07T08:32:05Z</time>
      </trkpt>
      <trkpt lat="45.52366" lon="4.74272">
        <ele>501</ele>
        <time>2015-06-07T08:32:11Z</time>
      </trkpt>
      <trkpt lat="45.52353" lon="4.74288">
        <ele>498</ele>
        <time>2015-06-07T08:32:14Z</time>
      </trkpt>
      <trkpt lat="45.52334" lon="4.74312">
        <ele>496</ele>
        <time>2015-06-07T08:32:21Z</time>
      </trkpt>
      <trkpt lat="45.52321" lon="4.74326">
        <ele>498</ele>
        <time>2015-06-07T08:32:24Z</time>
      </trkpt>
      <trkpt lat="45.52301" lon="4.74343">
        <ele>498</ele>
        <time>2015-06-07T08:32:30Z</time>
      </trkpt>
      <trkpt lat="45.52287" lon="4.74351">
        <ele>498</ele>
        <time>2015-06-07T08:32:34Z</time>
      </trkpt>
      <trkpt lat="45.52264" lon="4.74355">
        <ele>499</ele>
        <time>2015-06-07T08:32:41Z</time>
      </trkpt>
      <trkpt lat="45.52249" lon="4.74354">
        <ele>501</ele>
        <time>2015-06-07T08:32:44Z</time>
      </trkpt>
      <trkpt lat="45.52231" lon="4.74334">
        <ele>502</ele>
        <time>2015-06-07T08:32:52Z</time>
      </trkpt>
      <trkpt lat="45.52226" lon="4.74308">
        <ele>502</ele>
        <time>2015-06-07T08:32:58Z</time>
      </trkpt>
      <trkpt lat="45.52223" lon="4.74294">
        <ele>503</ele>
        <time>2015-06-07T08:32:59Z</time>
      </trkpt>
      <trkpt lat="45.52217" lon="4.74253">
        <ele>502</ele>
        <time>2015-06-07T08:33:04Z</time>
      </trkpt>
      <trkpt lat="45.52209" lon="4.74203">
        <ele>500</ele>
        <time>2015-06-07T08:33:09Z</time>
      </trkpt>
      <trkpt lat="45.522" lon="4.74147">
        <ele>497</ele>
        <time>2015-06-07T08:33:14Z</time>
      </trkpt>
      <trkpt lat="45.52187" lon="4.74077">
        <ele>495</ele>
        <time>2015-06-07T08:33:20Z</time>
      </trkpt>
      <trkpt lat="45.52162" lon="4.73991">
        <ele>496</ele>
        <time>2015-06-07T08:33:27Z</time>
      </trkpt>
      <trkpt lat="45.52145" lon="4.73953">
        <ele>494</ele>
        <time>2015-06-07T08:33:30Z</time>
      </trkpt>
      <trkpt lat="45.52098" lon="4.7391">
        <ele>492</ele>
        <time>2015-06-07T08:33:35Z</time>
      </trkpt>
      <trkpt lat="45.52052" lon="4.73895">
        <ele>492</ele>
        <time>2015-06-07T08:33:40Z</time>
      </trkpt>
      <trkpt lat="45.51993" lon="4.73886">
        <ele>491</ele>
        <time>2015-06-07T08:33:45Z</time>
      </trkpt>
      <trkpt lat="45.51939" lon="4.73865">
        <ele>489</ele>
        <time>2015-06-07T08:33:50Z</time>
      </trkpt>
      <trkpt lat="45.51897" lon="4.73804">
        <ele>483</ele>
        <time>2015-06-07T08:33:56Z</time>
      </trkpt>
      <trkpt lat="45.51909" lon="4.73687">
        <ele>487</ele>
        <time>2015-06-07T08:34:02Z</time>
      </trkpt>
      <trkpt lat="45.51917" lon="4.73583">
        <ele>478</ele>
        <time>2015-06-07T08:34:09Z</time>
      </trkpt>
      <trkpt lat="45.51919" lon="4.73565">
        <ele>477</ele>
        <time>2015-06-07T08:34:10Z</time>
      </trkpt>
      <trkpt lat="45.51892" lon="4.7349">
        <ele>471</ele>
        <time>2015-06-07T08:34:15Z</time>
      </trkpt>
      <trkpt lat="45.51841" lon="4.73438">
        <ele>468</ele>
        <time>2015-06-07T08:34:20Z</time>
      </trkpt>
      <trkpt lat="45.51788" lon="4.73388">
        <ele>462</ele>
        <time>2015-06-07T08:34:25Z</time>
      </trkpt>
      <trkpt lat="45.51734" lon="4.73337">
        <ele>459</ele>
        <time>2015-06-07T08:34:30Z</time>
      </trkpt>
      <trkpt lat="45.51679" lon="4.73287">
        <ele>455</ele>
        <time>2015-06-07T08:34:35Z</time>
      </trkpt>
      <trkpt lat="45.51628" lon="4.7323">
        <ele>451</ele>
        <time>2015-06-07T08:34:39Z</time>
      </trkpt>
      <trkpt lat="45.51618" lon="4.7314">
        <ele>450</ele>
        <time>2015-06-07T08:34:45Z</time>
      </trkpt>
      <trkpt lat="45.51622" lon="4.73053">
        <ele>449</ele>
        <time>2015-06-07T08:34:49Z</time>
      </trkpt>
      <trkpt lat="45.51623" lon="4.72971">
        <ele>446</ele>
        <time>2015-06-07T08:34:54Z</time>
      </trkpt>
      <trkpt lat="45.51627" lon="4.7289">
        <ele>443</ele>
        <time>2015-06-07T08:34:59Z</time>
      </trkpt>
      <trkpt lat="45.5163" lon="4.72829">
        <ele>442</ele>
        <time>2015-06-07T08:35:03Z</time>
      </trkpt>
      <trkpt lat="45.51631" lon="4.7276">
        <ele>443</ele>
        <time>2015-06-07T08:35:08Z</time>
      </trkpt>
      <trkpt lat="45.51633" lon="4.72696">
        <ele>443</ele>
        <time>2015-06-07T08:35:13Z</time>
      </trkpt>
      <trkpt lat="45.51633" lon="4.72635">
        <ele>440</ele>
        <time>2015-06-07T08:35:18Z</time>
      </trkpt>
      <trkpt lat="45.51613" lon="4.72584">
        <ele>440</ele>
        <time>2015-06-07T08:35:23Z</time>
      </trkpt>
      <trkpt lat="45.51583" lon="4.72561">
        <ele>435</ele>
        <time>2015-06-07T08:35:28Z</time>
      </trkpt>
      <trkpt lat="45.51531" lon="4.72528">
        <ele>433</ele>
        <time>2015-06-07T08:35:33Z</time>
      </trkpt>
      <trkpt lat="45.51519" lon="4.72477">
        <ele>430</ele>
        <time>2015-06-07T08:35:37Z</time>
      </trkpt>
      <trkpt lat="45.51541" lon="4.72409">
        <ele>424</ele>
        <time>2015-06-07T08:35:42Z</time>
      </trkpt>
      <trkpt lat="45.51569" lon="4.72348">
        <ele>423</ele>
        <time>2015-06-07T08:35:47Z</time>
      </trkpt>
      <trkpt lat="45.51601" lon="4.72288">
        <ele>420</ele>
        <time>2015-06-07T08:35:52Z</time>
      </trkpt>
      <trkpt lat="45.51582" lon="4.72225">
        <ele>417</ele>
        <time>2015-06-07T08:35:57Z</time>
      </trkpt>
      <trkpt lat="45.51555" lon="4.72187">
        <ele>415</ele>
        <time>2015-06-07T08:36:02Z</time>
      </trkpt>
      <trkpt lat="45.51542" lon="4.72169">
        <ele>418</ele>
        <time>2015-06-07T08:36:07Z</time>
      </trkpt>
      <trkpt lat="45.51541" lon="4.72169">
        <ele>418</ele>
        <time>2015-06-07T08:36:14Z</time>
      </trkpt>
      <trkpt lat="45.51541" lon="4.72169">
        <ele>418</ele>
        <time>2015-06-07T08:36:15Z</time>
      </trkpt>
      <trkpt lat="45.51542" lon="4.72169">
        <ele>418</ele>
        <time>2015-06-07T08:36:18Z</time>
      </trkpt>
      <trkpt lat="45.51542" lon="4.72169">
        <ele>418</ele>
        <time>2015-06-07T08:36:21Z</time>
      </trkpt>
      <trkpt lat="45.51542" lon="4.72169">
        <ele>418</ele>
        <time>2015-06-07T08:36:25Z</time>
      </trkpt>
      <trkpt lat="45.51542" lon="4.72169">
        <ele>418</ele>
        <time>2015-06-07T08:36:28Z</time>
      </trkpt>
      <trkpt lat="45.51542" lon="4.72169">
        <ele>418</ele>
        <time>2015-06-07T08:36:31Z</time>
      </trkpt>
      <trkpt lat="45.51542" lon="4.72169">
        <ele>418</ele>
        <time>2015-06-07T08:36:35Z</time>
      </trkpt>
      <trkpt lat="45.51542" lon="4.72169">
        <ele>418</ele>
        <time>2015-06-07T08:36:37Z</time>
      </trkpt>
      <trkpt lat="45.51542" lon="4.72169">
        <ele>418</ele>
        <time>2015-06-07T08:36:40Z</time>
      </trkpt>
      <trkpt lat="45.51541" lon="4.72169">
        <ele>418</ele>
        <time>2015-06-07T08:36:42Z</time>
      </trkpt>
      <trkpt lat="45.51541" lon="4.7217">
        <ele>419</ele>
        <time>2015-06-07T08:36:46Z</time>
      </trkpt>
      <trkpt lat="45.5154" lon="4.7217">
        <ele>420</ele>
        <time>2015-06-07T08:36:49Z</time>
      </trkpt>
      <trkpt lat="45.51541" lon="4.72171">
        <ele>420</ele>
        <time>2015-06-07T08:36:52Z</time>
      </trkpt>
      <trkpt lat="45.5154" lon="4.72171">
        <ele>420</ele>
        <time>2015-06-07T08:36:56Z</time>
      </trkpt>
      <trkpt lat="45.5154" lon="4.72171">
        <ele>420</ele>
        <time>2015-06-07T08:36:58Z</time>
      </trkpt>
      <trkpt lat="45.5154" lon="4.72171">
        <ele>420</ele>
        <time>2015-06-07T08:37:00Z</time>
      </trkpt>
      <trkpt lat="45.5154" lon="4.72171">
        <ele>420</ele>
        <time>2015-06-07T08:37:03Z</time>
      </trkpt>
      <trkpt lat="45.5154" lon="4.72165">
        <ele>420</ele>
        <time>2015-06-07T08:37:06Z</time>
      </trkpt>
      <trkpt lat="45.51546" lon="4.7215">
        <ele>418</ele>
        <time>2015-06-07T08:37:11Z</time>
      </trkpt>
      <trkpt lat="45.51551" lon="4.72141">
        <ele>417</ele>
        <time>2015-06-07T08:37:16Z</time>
      </trkpt>
      <trkpt lat="45.51561" lon="4.72121">
        <ele>416</ele>
        <time>2015-06-07T08:37:20Z</time>
      </trkpt>
      <trkpt lat="45.51576" lon="4.72095">
        <ele>415</ele>
        <time>2015-06-07T08:37:25Z</time>
      </trkpt>
      <trkpt lat="45.51592" lon="4.72062">
        <ele>412</ele>
        <time>2015-06-07T08:37:30Z</time>
      </trkpt>
      <trkpt lat="45.51621" lon="4.72011">
        <ele>410</ele>
        <time>2015-06-07T08:37:38Z</time>
      </trkpt>
      <trkpt lat="45.51627" lon="4.71999">
        <ele>411</ele>
        <time>2015-06-07T08:37:40Z</time>
      </trkpt>
      <trkpt lat="45.51641" lon="4.71962">
        <ele>413</ele>
        <time>2015-06-07T08:37:45Z</time>
      </trkpt>
      <trkpt lat="45.51651" lon="4.71933">
        <ele>415</ele>
        <time>2015-06-07T08:37:49Z</time>
      </trkpt>
      <trkpt lat="45.51663" lon="4.71897">
        <ele>417</ele>
        <time>2015-06-07T08:37:54Z</time>
      </trkpt>
      <trkpt lat="45.5167" lon="4.71861">
        <ele>419</ele>
        <time>2015-06-07T08:37:59Z</time>
      </trkpt>
      <trkpt lat="45.51674" lon="4.71829">
        <ele>419</ele>
        <time>2015-06-07T08:38:04Z</time>
      </trkpt>
      <trkpt lat="45.51674" lon="4.71796">
        <ele>419</ele>
        <time>2015-06-07T08:38:09Z</time>
      </trkpt>
      <trkpt lat="45.51669" lon="4.71764">
        <ele>419</ele>
        <time>2015-06-07T08:38:15Z</time>
      </trkpt>
      <trkpt lat="45.51653" lon="4.71711">
        <ele>416</ele>
        <time>2015-06-07T08:38:22Z</time>
      </trkpt>
      <trkpt lat="45.51644" lon="4.71683">
        <ele>416</ele>
        <time>2015-06-07T08:38:24Z</time>
      </trkpt>
      <trkpt lat="45.51635" lon="4.71626">
        <ele>417</ele>
        <time>2015-06-07T08:38:30Z</time>
      </trkpt>
      <trkpt lat="45.51638" lon="4.71591">
        <ele>417</ele>
        <time>2015-06-07T08:38:34Z</time>
      </trkpt>
      <trkpt lat="45.51651" lon="4.71543">
        <ele>419</ele>
        <time>2015-06-07T08:38:40Z</time>
      </trkpt>
      <trkpt lat="45.51662" lon="4.71517">
        <ele>421</ele>
        <time>2015-06-07T08:38:44Z</time>
      </trkpt>
      <trkpt lat="45.51671" lon="4.71489">
        <ele>421</ele>
        <time>2015-06-07T08:38:48Z</time>
      </trkpt>
      <trkpt lat="45.51682" lon="4.71435">
        <ele>423</ele>
        <time>2015-06-07T08:38:56Z</time>
      </trkpt>
      <trkpt lat="45.51685" lon="4.7141">
        <ele>424</ele>
        <time>2015-06-07T08:38:58Z</time>
      </trkpt>
      <trkpt lat="45.5169" lon="4.71364">
        <ele>424</ele>
        <time>2015-06-07T08:39:04Z</time>
      </trkpt>
      <trkpt lat="45.51688" lon="4.71318">
        <ele>422</ele>
        <time>2015-06-07T08:39:08Z</time>
      </trkpt>
      <trkpt lat="45.51673" lon="4.71274">
        <ele>418</ele>
        <time>2015-06-07T08:39:13Z</time>
      </trkpt>
      <trkpt lat="45.51644" lon="4.71241">
        <ele>417</ele>
        <time>2015-06-07T08:39:19Z</time>
      </trkpt>
      <trkpt lat="45.51614" lon="4.71205">
        <ele>413</ele>
        <time>2015-06-07T08:39:23Z</time>
      </trkpt>
      <trkpt lat="45.51595" lon="4.71154">
        <ele>412</ele>
        <time>2015-06-07T08:39:29Z</time>
      </trkpt>
      <trkpt lat="45.51584" lon="4.7111">
        <ele>413</ele>
        <time>2015-06-07T08:39:33Z</time>
      </trkpt>
      <trkpt lat="45.5158" lon="4.71055">
        <ele>415</ele>
        <time>2015-06-07T08:39:40Z</time>
      </trkpt>
      <trkpt lat="45.51588" lon="4.71035">
        <ele>410</ele>
        <time>2015-06-07T08:39:43Z</time>
      </trkpt>
      <trkpt lat="45.5161" lon="4.71019">
        <ele>410</ele>
        <time>2015-06-07T08:39:48Z</time>
      </trkpt>
      <trkpt lat="45.51634" lon="4.71009">
        <ele>411</ele>
        <time>2015-06-07T08:39:53Z</time>
      </trkpt>
      <trkpt lat="45.51656" lon="4.70994">
        <ele>413</ele>
        <time>2015-06-07T08:39:58Z</time>
      </trkpt>
      <trkpt lat="45.51667" lon="4.70962">
        <ele>414</ele>
        <time>2015-06-07T08:40:03Z</time>
      </trkpt>
      <trkpt lat="45.51666" lon="4.70927">
        <ele>415</ele>
        <time>2015-06-07T08:40:08Z</time>
      </trkpt>
      <trkpt lat="45.51658" lon="4.70895">
        <ele>417</ele>
        <time>2015-06-07T08:40:14Z</time>
      </trkpt>
      <trkpt lat="45.51647" lon="4.70863">
        <ele>418</ele>
        <time>2015-06-07T08:40:18Z</time>
      </trkpt>
      <trkpt lat="45.51636" lon="4.70829">
        <ele>417</ele>
        <time>2015-06-07T08:40:23Z</time>
      </trkpt>
      <trkpt lat="45.51629" lon="4.70792">
        <ele>416</ele>
        <time>2015-06-07T08:40:28Z</time>
      </trkpt>
      <trkpt lat="45.51606" lon="4.70749">
        <ele>420</ele>
        <time>2015-06-07T08:40:37Z</time>
      </trkpt>
      <trkpt lat="45.51604" lon="4.70744">
        <ele>420</ele>
        <time>2015-06-07T08:40:38Z</time>
      </trkpt>
      <trkpt lat="45.51592" lon="4.70721">
        <ele>421</ele>
        <time>2015-06-07T08:40:43Z</time>
      </trkpt>
      <trkpt lat="45.51582" lon="4.70696">
        <ele>422</ele>
        <time>2015-06-07T08:40:48Z</time>
      </trkpt>
      <trkpt lat="45.5157" lon="4.70671">
        <ele>421</ele>
        <time>2015-06-07T08:40:53Z</time>
      </trkpt>
      <trkpt lat="45.51556" lon="4.7064">
        <ele>422</ele>
        <time>2015-06-07T08:40:59Z</time>
      </trkpt>
      <trkpt lat="45.51545" lon="4.70615">
        <ele>425</ele>
        <time>2015-06-07T08:41:03Z</time>
      </trkpt>
      <trkpt lat="45.51531" lon="4.70591">
        <ele>427</ele>
        <time>2015-06-07T08:41:09Z</time>
      </trkpt>
      <trkpt lat="45.51518" lon="4.70567">
        <ele>428</ele>
        <time>2015-06-07T08:41:14Z</time>
      </trkpt>
      <trkpt lat="45.51503" lon="4.70542">
        <ele>430</ele>
        <time>2015-06-07T08:41:19Z</time>
      </trkpt>
      <trkpt lat="45.51489" lon="4.70517">
        <ele>431</ele>
        <time>2015-06-07T08:41:24Z</time>
      </trkpt>
      <trkpt lat="45.51472" lon="4.7049">
        <ele>432</ele>
        <time>2015-06-07T08:41:28Z</time>
      </trkpt>
      <trkpt lat="45.51455" lon="4.70467">
        <ele>433</ele>
        <time>2015-06-07T08:41:33Z</time>
      </trkpt>
      <trkpt lat="45.51439" lon="4.70443">
        <ele>433</ele>
        <time>2015-06-07T08:41:38Z</time>
      </trkpt>
      <trkpt lat="45.51423" lon="4.70422">
        <ele>433</ele>
        <time>2015-06-07T08:41:43Z</time>
      </trkpt>
      <trkpt lat="45.51403" lon="4.70401">
        <ele>433</ele>
        <time>2015-06-07T08:41:48Z</time>
      </trkpt>
      <trkpt lat="45.51377" lon="4.70372">
        <ele>433</ele>
        <time>2015-06-07T08:41:53Z</time>
      </trkpt>
      <trkpt lat="45.51345" lon="4.70336">
        <ele>430</ele>
        <time>2015-06-07T08:41:58Z</time>
      </trkpt>
      <trkpt lat="45.51311" lon="4.70301">
        <ele>429</ele>
        <time>2015-06-07T08:42:03Z</time>
      </trkpt>
      <trkpt lat="45.51278" lon="4.70262">
        <ele>428</ele>
        <time>2015-06-07T08:42:08Z</time>
      </trkpt>
      <trkpt lat="45.51251" lon="4.70226">
        <ele>427</ele>
        <time>2015-06-07T08:42:13Z</time>
      </trkpt>
      <trkpt lat="45.51225" lon="4.70198">
        <ele>429</ele>
        <time>2015-06-07T08:42:19Z</time>
      </trkpt>
      <trkpt lat="45.51197" lon="4.70165">
        <ele>428</ele>
        <time>2015-06-07T08:42:23Z</time>
      </trkpt>
      <trkpt lat="45.51165" lon="4.70142">
        <ele>427</ele>
        <time>2015-06-07T08:42:29Z</time>
      </trkpt>
      <trkpt lat="45.51133" lon="4.70132">
        <ele>427</ele>
        <time>2015-06-07T08:42:33Z</time>
      </trkpt>
      <trkpt lat="45.51105" lon="4.70127">
        <ele>428</ele>
        <time>2015-06-07T08:42:39Z</time>
      </trkpt>
      <trkpt lat="45.51085" lon="4.70124">
        <ele>427</ele>
        <time>2015-06-07T08:42:43Z</time>
      </trkpt>
      <trkpt lat="45.5108" lon="4.70123">
        <ele>429</ele>
        <time>2015-06-07T08:42:48Z</time>
      </trkpt>
      <trkpt lat="45.51081" lon="4.70123">
        <ele>429</ele>
        <time>2015-06-07T08:42:53Z</time>
      </trkpt>
      <trkpt lat="45.51079" lon="4.70123">
        <ele>430</ele>
        <time>2015-06-07T08:42:58Z</time>
      </trkpt>
      <trkpt lat="45.51076" lon="4.70125">
        <ele>428</ele>
        <time>2015-06-07T08:43:01Z</time>
      </trkpt>
      <trkpt lat="45.51074" lon="4.70125">
        <ele>427</ele>
        <time>2015-06-07T08:43:05Z</time>
      </trkpt>
      <trkpt lat="45.51074" lon="4.70125">
        <ele>427</ele>
        <time>2015-06-07T08:43:09Z</time>
      </trkpt>
      <trkpt lat="45.51074" lon="4.70125">
        <ele>427</ele>
        <time>2015-06-07T08:43:11Z</time>
      </trkpt>
      <trkpt lat="45.51074" lon="4.70125">
        <ele>427</ele>
        <time>2015-06-07T08:43:14Z</time>
      </trkpt>
      <trkpt lat="45.51068" lon="4.70123">
        <ele>427</ele>
        <time>2015-06-07T08:43:18Z</time>
      </trkpt>
      <trkpt lat="45.5104" lon="4.70124">
        <ele>428</ele>
        <time>2015-06-07T08:43:25Z</time>
      </trkpt>
      <trkpt lat="45.5103" lon="4.70126">
        <ele>429</ele>
        <time>2015-06-07T08:43:29Z</time>
      </trkpt>
      <trkpt lat="45.51017" lon="4.70126">
        <ele>430</ele>
        <time>2015-06-07T08:43:32Z</time>
      </trkpt>
      <trkpt lat="45.51001" lon="4.7012">
        <ele>430</ele>
        <time>2015-06-07T08:43:37Z</time>
      </trkpt>
      <trkpt lat="45.50986" lon="4.70106">
        <ele>432</ele>
        <time>2015-06-07T08:43:42Z</time>
      </trkpt>
      <trkpt lat="45.50971" lon="4.70087">
        <ele>433</ele>
        <time>2015-06-07T08:43:47Z</time>
      </trkpt>
      <trkpt lat="45.50955" lon="4.70066">
        <ele>432</ele>
        <time>2015-06-07T08:43:53Z</time>
      </trkpt>
      <trkpt lat="45.50939" lon="4.70048">
        <ele>435</ele>
        <time>2015-06-07T08:43:57Z</time>
      </trkpt>
      <trkpt lat="45.50929" lon="4.70033">
        <ele>434</ele>
        <time>2015-06-07T08:44:02Z</time>
      </trkpt>
      <trkpt lat="45.50918" lon="4.7001">
        <ele>434</ele>
        <time>2015-06-07T08:44:08Z</time>
      </trkpt>
      <trkpt lat="45.50911" lon="4.69986">
        <ele>435</ele>
        <time>2015-06-07T08:44:12Z</time>
      </trkpt>
      <trkpt lat="45.50907" lon="4.69965">
        <ele>436</ele>
        <time>2015-06-07T08:44:18Z</time>
      </trkpt>
      <trkpt lat="45.50902" lon="4.69945">
        <ele>438</ele>
        <time>2015-06-07T08:44:23Z</time>
      </trkpt>
      <trkpt lat="45.50897" lon="4.69927">
        <ele>438</ele>
        <time>2015-06-07T08:44:27Z</time>
      </trkpt>
      <trkpt lat="45.50889" lon="4.69911">
        <ele>439</ele>
        <time>2015-06-07T08:44:33Z</time>
      </trkpt>
      <trkpt lat="45.5088" lon="4.69895">
        <ele>441</ele>
        <time>2015-06-07T08:44:37Z</time>
      </trkpt>
      <trkpt lat="45.5087" lon="4.6988">
        <ele>442</ele>
        <time>2015-06-07T08:44:42Z</time>
      </trkpt>
      <trkpt lat="45.50862" lon="4.69867">
        <ele>442</ele>
        <time>2015-06-07T08:44:46Z</time>
      </trkpt>
      <trkpt lat="45.50851" lon="4.69848">
        <ele>443</ele>
        <time>2015-06-07T08:44:51Z</time>
      </trkpt>
      <trkpt lat="45.50841" lon="4.69826">
        <ele>444</ele>
        <time>2015-06-07T08:44:57Z</time>
      </trkpt>
      <trkpt lat="45.50831" lon="4.69806">
        <ele>445</ele>
        <time>2015-06-07T08:45:01Z</time>
      </trkpt>
      <trkpt lat="45.50822" lon="4.69786">
        <ele>446</ele>
        <time>2015-06-07T08:45:06Z</time>
      </trkpt>
      <trkpt lat="45.50813" lon="4.69765">
        <ele>447</ele>
        <time>2015-06-07T08:45:12Z</time>
      </trkpt>
      <trkpt lat="45.50804" lon="4.69739">
        <ele>447</ele>
        <time>2015-06-07T08:45:16Z</time>
      </trkpt>
      <trkpt lat="45.5079" lon="4.69705">
        <ele>446</ele>
        <time>2015-06-07T08:45:21Z</time>
      </trkpt>
      <trkpt lat="45.50774" lon="4.69668">
        <ele>445</ele>
        <time>2015-06-07T08:45:27Z</time>
      </trkpt>
      <trkpt lat="45.50757" lon="4.69624">
        <ele>444</ele>
        <time>2015-06-07T08:45:32Z</time>
      </trkpt>
      <trkpt lat="45.50748" lon="4.69583">
        <ele>442</ele>
        <time>2015-06-07T08:45:35Z</time>
      </trkpt>
      <trkpt lat="45.50736" lon="4.6952">
        <ele>439</ele>
        <time>2015-06-07T08:45:40Z</time>
      </trkpt>
      <trkpt lat="45.50691" lon="4.69503">
        <ele>433</ele>
        <time>2015-06-07T08:45:49Z</time>
      </trkpt>
      <trkpt lat="45.50681" lon="4.69524">
        <ele>432</ele>
        <time>2015-06-07T08:45:50Z</time>
      </trkpt>
      <trkpt lat="45.50654" lon="4.69594">
        <ele>429</ele>
        <time>2015-06-07T08:45:56Z</time>
      </trkpt>
      <trkpt lat="45.5063" lon="4.69656">
        <ele>430</ele>
        <time>2015-06-07T08:46:01Z</time>
      </trkpt>
      <trkpt lat="45.5061" lon="4.69702">
        <ele>428</ele>
        <time>2015-06-07T08:46:05Z</time>
      </trkpt>
      <trkpt lat="45.50571" lon="4.69733">
        <ele>423</ele>
        <time>2015-06-07T08:46:10Z</time>
      </trkpt>
      <trkpt lat="45.50548" lon="4.69689">
        <ele>423</ele>
        <time>2015-06-07T08:46:16Z</time>
      </trkpt>
      <trkpt lat="45.50555" lon="4.69649">
        <ele>425</ele>
        <time>2015-06-07T08:46:20Z</time>
      </trkpt>
      <trkpt lat="45.5056" lon="4.69616">
        <ele>425</ele>
        <time>2015-06-07T08:46:25Z</time>
      </trkpt>
      <trkpt lat="45.50566" lon="4.69579">
        <ele>426</ele>
        <time>2015-06-07T08:46:32Z</time>
      </trkpt>
      <trkpt lat="45.50568" lon="4.69562">
        <ele>427</ele>
        <time>2015-06-07T08:46:34Z</time>
      </trkpt>
      <trkpt lat="45.50571" lon="4.69533">
        <ele>429</ele>
        <time>2015-06-07T08:46:39Z</time>
      </trkpt>
      <trkpt lat="45.50572" lon="4.69499">
        <ele>430</ele>
        <time>2015-06-07T08:46:45Z</time>
      </trkpt>
      <trkpt lat="45.5057" lon="4.69483">
        <ele>429</ele>
        <time>2015-06-07T08:46:48Z</time>
      </trkpt>
      <trkpt lat="45.50565" lon="4.69459">
        <ele>432</ele>
        <time>2015-06-07T08:46:53Z</time>
      </trkpt>
      <trkpt lat="45.50553" lon="4.69439">
        <ele>433</ele>
        <time>2015-06-07T08:46:58Z</time>
      </trkpt>
      <trkpt lat="45.50537" lon="4.69424">
        <ele>434</ele>
        <time>2015-06-07T08:47:04Z</time>
      </trkpt>
      <trkpt lat="45.50521" lon="4.69408">
        <ele>436</ele>
        <time>2015-06-07T08:47:08Z</time>
      </trkpt>
      <trkpt lat="45.50503" lon="4.69392">
        <ele>436</ele>
        <time>2015-06-07T08:47:13Z</time>
      </trkpt>
      <trkpt lat="45.50483" lon="4.69376">
        <ele>434</ele>
        <time>2015-06-07T08:47:18Z</time>
      </trkpt>
      <trkpt lat="45.5046" lon="4.69357">
        <ele>433</ele>
        <time>2015-06-07T08:47:23Z</time>
      </trkpt>
      <trkpt lat="45.50434" lon="4.69344">
        <ele>434</ele>
        <time>2015-06-07T08:47:28Z</time>
      </trkpt>
      <trkpt lat="45.50405" lon="4.69335">
        <ele>433</ele>
        <time>2015-06-07T08:47:34Z</time>
      </trkpt>
      <trkpt lat="45.50363" lon="4.69318">
        <ele>431</ele>
        <time>2015-06-07T08:47:40Z</time>
      </trkpt>
      <trkpt lat="45.50344" lon="4.69312">
        <ele>430</ele>
        <time>2015-06-07T08:47:43Z</time>
      </trkpt>
      <trkpt lat="45.50315" lon="4.69302">
        <ele>427</ele>
        <time>2015-06-07T08:47:49Z</time>
      </trkpt>
      <trkpt lat="45.50304" lon="4.69273">
        <ele>428</ele>
        <time>2015-06-07T08:47:53Z</time>
      </trkpt>
      <trkpt lat="45.50322" lon="4.69253">
        <ele>432</ele>
        <time>2015-06-07T08:47:58Z</time>
      </trkpt>
      <trkpt lat="45.50335" lon="4.69242">
        <ele>434</ele>
        <time>2015-06-07T08:48:03Z</time>
      </trkpt>
      <trkpt lat="45.50353" lon="4.69228">
        <ele>442</ele>
        <time>2015-06-07T08:48:10Z</time>
      </trkpt>
      <trkpt lat="45.50365" lon="4.69217">
        <ele>436</ele>
        <time>2015-06-07T08:48:14Z</time>
      </trkpt>
      <trkpt lat="45.50379" lon="4.69207">
        <ele>437</ele>
        <time>2015-06-07T08:48:18Z</time>
      </trkpt>
      <trkpt lat="45.50392" lon="4.69196">
        <ele>436</ele>
        <time>2015-06-07T08:48:23Z</time>
      </trkpt>
      <trkpt lat="45.50403" lon="4.69184">
        <ele>437</ele>
        <time>2015-06-07T08:48:28Z</time>
      </trkpt>
      <trkpt lat="45.50414" lon="4.69173">
        <ele>437</ele>
        <time>2015-06-07T08:48:34Z</time>
      </trkpt>
      <trkpt lat="45.5042" lon="4.69154">
        <ele>440</ele>
        <time>2015-06-07T08:48:39Z</time>
      </trkpt>
      <trkpt lat="45.50424" lon="4.69136">
        <ele>443</ele>
        <time>2015-06-07T08:48:44Z</time>
      </trkpt>
      <trkpt lat="45.50427" lon="4.69115">
        <ele>445</ele>
        <time>2015-06-07T08:48:49Z</time>
      </trkpt>
      <trkpt lat="45.50433" lon="4.69099">
        <ele>445</ele>
        <time>2015-06-07T08:48:53Z</time>
      </trkpt>
      <trkpt lat="45.50446" lon="4.69091">
        <ele>446</ele>
        <time>2015-06-07T08:48:58Z</time>
      </trkpt>
      <trkpt lat="45.50469" lon="4.69107">
        <ele>447</ele>
        <time>2015-06-07T08:49:08Z</time>
      </trkpt>
      <trkpt lat="45.50472" lon="4.69108">
        <ele>447</ele>
        <time>2015-06-07T08:49:08Z</time>
      </trkpt>
      <trkpt lat="45.50492" lon="4.69119">
        <ele>449</ele>
        <time>2015-06-07T08:49:18Z</time>
      </trkpt>
      <trkpt lat="45.50498" lon="4.69115">
        <ele>450</ele>
        <time>2015-06-07T08:49:21Z</time>
      </trkpt>
      <trkpt lat="45.50504" lon="4.69107">
        <ele>452</ele>
        <time>2015-06-07T08:49:24Z</time>
      </trkpt>
      <trkpt lat="45.50507" lon="4.69091">
        <ele>452</ele>
        <time>2015-06-07T08:49:29Z</time>
      </trkpt>
      <trkpt lat="45.50508" lon="4.69072">
        <ele>453</ele>
        <time>2015-06-07T08:49:34Z</time>
      </trkpt>
      <trkpt lat="45.50509" lon="4.69053">
        <ele>455</ele>
        <time>2015-06-07T08:49:39Z</time>
      </trkpt>
      <trkpt lat="45.5051" lon="4.69036">
        <ele>456</ele>
        <time>2015-06-07T08:49:44Z</time>
      </trkpt>
      <trkpt lat="45.50511" lon="4.69016">
        <ele>457</ele>
        <time>2015-06-07T08:49:49Z</time>
      </trkpt>
      <trkpt lat="45.50511" lon="4.68999">
        <ele>459</ele>
        <time>2015-06-07T08:49:53Z</time>
      </trkpt>
      <trkpt lat="45.50513" lon="4.68982">
        <ele>460</ele>
        <time>2015-06-07T08:49:59Z</time>
      </trkpt>
      <trkpt lat="45.50515" lon="4.68963">
        <ele>460</ele>
        <time>2015-06-07T08:50:03Z</time>
      </trkpt>
      <trkpt lat="45.50512" lon="4.68941">
        <ele>459</ele>
        <time>2015-06-07T08:50:09Z</time>
      </trkpt>
      <trkpt lat="45.50509" lon="4.68921">
        <ele>460</ele>
        <time>2015-06-07T08:50:14Z</time>
      </trkpt>
      <trkpt lat="45.50506" lon="4.68899">
        <ele>460</ele>
        <time>2015-06-07T08:50:20Z</time>
      </trkpt>
      <trkpt lat="45.50501" lon="4.68885">
        <ele>461</ele>
        <time>2015-06-07T08:50:24Z</time>
      </trkpt>
      <trkpt lat="45.505" lon="4.68869">
        <ele>463</ele>
        <time>2015-06-07T08:50:29Z</time>
      </trkpt>
      <trkpt lat="45.50498" lon="4.68853">
        <ele>464</ele>
        <time>2015-06-07T08:50:34Z</time>
      </trkpt>
      <trkpt lat="45.50496" lon="4.68844">
        <ele>466</ele>
        <time>2015-06-07T08:50:39Z</time>
      </trkpt>
      <trkpt lat="45.50491" lon="4.68829">
        <ele>467</ele>
        <time>2015-06-07T08:50:45Z</time>
      </trkpt>
      <trkpt lat="45.50482" lon="4.68825">
        <ele>466</ele>
        <time>2015-06-07T08:50:49Z</time>
      </trkpt>
      <trkpt lat="45.50469" lon="4.6883">
        <ele>469</ele>
        <time>2015-06-07T08:50:54Z</time>
      </trkpt>
      <trkpt lat="45.50456" lon="4.68832">
        <ele>472</ele>
        <time>2015-06-07T08:50:59Z</time>
      </trkpt>
      <trkpt lat="45.50441" lon="4.68833">
        <ele>475</ele>
        <time>2015-06-07T08:51:05Z</time>
      </trkpt>
      <trkpt lat="45.50431" lon="4.68836">
        <ele>473</ele>
        <time>2015-06-07T08:51:08Z</time>
      </trkpt>
      <trkpt lat="45.50416" lon="4.68839">
        <ele>472</ele>
        <time>2015-06-07T08:51:14Z</time>
      </trkpt>
      <trkpt lat="45.50405" lon="4.68837">
        <ele>472</ele>
        <time>2015-06-07T08:51:18Z</time>
      </trkpt>
      <trkpt lat="45.50401" lon="4.68825">
        <ele>471</ele>
        <time>2015-06-07T08:51:23Z</time>
      </trkpt>
      <trkpt lat="45.50401" lon="4.68811">
        <ele>472</ele>
        <time>2015-06-07T08:51:31Z</time>
      </trkpt>
      <trkpt lat="45.50402" lon="4.68809">
        <ele>471</ele>
        <time>2015-06-07T08:51:34Z</time>
      </trkpt>
      <trkpt lat="45.50404" lon="4.68808">
        <ele>470</ele>
        <time>2015-06-07T08:51:39Z</time>
      </trkpt>
      <trkpt lat="45.50404" lon="4.68807">
        <ele>468</ele>
        <time>2015-06-07T08:51:44Z</time>
      </trkpt>
      <trkpt lat="45.50404" lon="4.68807">
        <ele>468</ele>
        <time>2015-06-07T08:51:47Z</time>
      </trkpt>
      <trkpt lat="45.50404" lon="4.6881">
        <ele>468</ele>
        <time>2015-06-07T08:51:50Z</time>
      </trkpt>
      <trkpt lat="45.50403" lon="4.6881">
        <ele>468</ele>
        <time>2015-06-07T08:51:55Z</time>
      </trkpt>
      <trkpt lat="45.50403" lon="4.68811">
        <ele>468</ele>
        <time>2015-06-07T08:51:58Z</time>
      </trkpt>
      <trkpt lat="45.50403" lon="4.68811">
        <ele>467</ele>
        <time>2015-06-07T08:52:01Z</time>
      </trkpt>
      <trkpt lat="45.50403" lon="4.68812">
        <ele>467</ele>
        <time>2015-06-07T08:52:04Z</time>
      </trkpt>
      <trkpt lat="45.50403" lon="4.68812">
        <ele>467</ele>
        <time>2015-06-07T08:52:07Z</time>
      </trkpt>
      <trkpt lat="45.50403" lon="4.68813">
        <ele>467</ele>
        <time>2015-06-07T08:52:10Z</time>
      </trkpt>
      <trkpt lat="45.50404" lon="4.68813">
        <ele>467</ele>
        <time>2015-06-07T08:52:12Z</time>
      </trkpt>
      <trkpt lat="45.50403" lon="4.68813">
        <ele>467</ele>
        <time>2015-06-07T08:52:16Z</time>
      </trkpt>
      <trkpt lat="45.50404" lon="4.68812">
        <ele>467</ele>
        <time>2015-06-07T08:52:19Z</time>
      </trkpt>
      <trkpt lat="45.50403" lon="4.68812">
        <ele>467</ele>
        <time>2015-06-07T08:52:22Z</time>
      </trkpt>
      <trkpt lat="45.50404" lon="4.68812">
        <ele>468</ele>
        <time>2015-06-07T08:52:25Z</time>
      </trkpt>
      <trkpt lat="45.50404" lon="4.68811">
        <ele>468</ele>
        <time>2015-06-07T08:52:28Z</time>
      </trkpt>
      <trkpt lat="45.50404" lon="4.68811">
        <ele>467</ele>
        <time>2015-06-07T08:52:31Z</time>
      </trkpt>
      <trkpt lat="45.50404" lon="4.68811">
        <ele>467</ele>
        <time>2015-06-07T08:52:34Z</time>
      </trkpt>
      <trkpt lat="45.50404" lon="4.68811">
        <ele>467</ele>
        <time>2015-06-07T08:52:37Z</time>
      </trkpt>
      <trkpt lat="45.50404" lon="4.68811">
        <ele>467</ele>
        <time>2015-06-07T08:52:40Z</time>
      </trkpt>
      <trkpt lat="45.50404" lon="4.68811">
        <ele>467</ele>
        <time>2015-06-07T08:52:43Z</time>
      </trkpt>
      <trkpt lat="45.50404" lon="4.68811">
        <ele>467</ele>
        <time>2015-06-07T08:52:46Z</time>
      </trkpt>
      <trkpt lat="45.50404" lon="4.68811">
        <ele>467</ele>
        <time>2015-06-07T08:52:49Z</time>
      </trkpt>
      <trkpt lat="45.50404" lon="4.68811">
        <ele>467</ele>
        <time>2015-06-07T08:52:51Z</time>
      </trkpt>
      <trkpt lat="45.50404" lon="4.68811">
        <ele>467</ele>
        <time>2015-06-07T08:52:55Z</time>
      </trkpt>
      <trkpt lat="45.50404" lon="4.68811">
        <ele>467</ele>
        <time>2015-06-07T08:52:57Z</time>
      </trkpt>
      <trkpt lat="45.50404" lon="4.68811">
        <ele>467</ele>
        <time>2015-06-07T08:53:01Z</time>
      </trkpt>
      <trkpt lat="45.50404" lon="4.68811">
        <ele>467</ele>
        <time>2015-06-07T08:53:04Z</time>
      </trkpt>
      <trkpt lat="45.50404" lon="4.68811">
        <ele>467</ele>
        <time>2015-06-07T08:53:07Z</time>
      </trkpt>
      <trkpt lat="45.50404" lon="4.68811">
        <ele>467</ele>
        <time>2015-06-07T08:53:09Z</time>
      </trkpt>
      <trkpt lat="45.50405" lon="4.68812">
        <ele>468</ele>
        <time>2015-06-07T08:53:13Z</time>
      </trkpt>
      <trkpt lat="45.50404" lon="4.68812">
        <ele>467</ele>
        <time>2015-06-07T08:53:14Z</time>
      </trkpt>
      <trkpt lat="45.50405" lon="4.68812">
        <ele>466</ele>
        <time>2015-06-07T08:53:17Z</time>
      </trkpt>
      <trkpt lat="45.50406" lon="4.68812">
        <ele>465</ele>
        <time>2015-06-07T08:53:20Z</time>
      </trkpt>
      <trkpt lat="45.50405" lon="4.68811">
        <ele>465</ele>
        <time>2015-06-07T08:53:24Z</time>
      </trkpt>
      <trkpt lat="45.50404" lon="4.68811">
        <ele>466</ele>
        <time>2015-06-07T08:53:29Z</time>
      </trkpt>
      <trkpt lat="45.50404" lon="4.6881">
        <ele>467</ele>
        <time>2015-06-07T08:53:30Z</time>
      </trkpt>
      <trkpt lat="45.50404" lon="4.6881">
        <ele>467</ele>
        <time>2015-06-07T08:53:32Z</time>
      </trkpt>
      <trkpt lat="45.50404" lon="4.6881">
        <ele>467</ele>
        <time>2015-06-07T08:53:36Z</time>
      </trkpt>
      <trkpt lat="45.50404" lon="4.6881">
        <ele>467</ele>
        <time>2015-06-07T08:53:39Z</time>
      </trkpt>
      <trkpt lat="45.50404" lon="4.6881">
        <ele>467</ele>
        <time>2015-06-07T08:53:42Z</time>
      </trkpt>
      <trkpt lat="45.50404" lon="4.6881">
        <ele>467</ele>
        <time>2015-06-07T08:53:47Z</time>
      </trkpt>
      <trkpt lat="45.50404" lon="4.6881">
        <ele>467</ele>
        <time>2015-06-07T08:53:47Z</time>
      </trkpt>
      <trkpt lat="45.50404" lon="4.6881">
        <ele>467</ele>
        <time>2015-06-07T08:53:50Z</time>
      </trkpt>
      <trkpt lat="45.50404" lon="4.6881">
        <ele>467</ele>
        <time>2015-06-07T08:53:53Z</time>
      </trkpt>
      <trkpt lat="45.50404" lon="4.6881">
        <ele>467</ele>
        <time>2015-06-07T08:53:57Z</time>
      </trkpt>
      <trkpt lat="45.50404" lon="4.6881">
        <ele>467</ele>
        <time>2015-06-07T08:53:59Z</time>
      </trkpt>
      <trkpt lat="45.50404" lon="4.6881">
        <ele>467</ele>
        <time>2015-06-07T08:54:02Z</time>
      </trkpt>
      <trkpt lat="45.50404" lon="4.6881">
        <ele>467</ele>
        <time>2015-06-07T08:54:05Z</time>
      </trkpt>
      <trkpt lat="45.50404" lon="4.6881">
        <ele>467</ele>
        <time>2015-06-07T08:54:10Z</time>
      </trkpt>
      <trkpt lat="45.50404" lon="4.6881">
        <ele>467</ele>
        <time>2015-06-07T08:54:11Z</time>
      </trkpt>
      <trkpt lat="45.50404" lon="4.6881">
        <ele>467</ele>
        <time>2015-06-07T08:54:14Z</time>
      </trkpt>
      <trkpt lat="45.50404" lon="4.6881">
        <ele>467</ele>
        <time>2015-06-07T08:54:18Z</time>
      </trkpt>
      <trkpt lat="45.50404" lon="4.6881">
        <ele>467</ele>
        <time>2015-06-07T08:54:23Z</time>
      </trkpt>
      <trkpt lat="45.50404" lon="4.6881">
        <ele>467</ele>
        <time>2015-06-07T08:54:23Z</time>
      </trkpt>
      <trkpt lat="45.50404" lon="4.6881">
        <ele>467</ele>
        <time>2015-06-07T08:54:26Z</time>
      </trkpt>
      <trkpt lat="45.50404" lon="4.6881">
        <ele>467</ele>
        <time>2015-06-07T08:54:29Z</time>
      </trkpt>
      <trkpt lat="45.50404" lon="4.6881">
        <ele>467</ele>
        <time>2015-06-07T08:54:32Z</time>
      </trkpt>
      <trkpt lat="45.50404" lon="4.6881">
        <ele>467</ele>
        <time>2015-06-07T08:54:35Z</time>
      </trkpt>
      <trkpt lat="45.50404" lon="4.6881">
        <ele>467</ele>
        <time>2015-06-07T08:54:38Z</time>
      </trkpt>
      <trkpt lat="45.50404" lon="4.6881">
        <ele>467</ele>
        <time>2015-06-07T08:54:41Z</time>
      </trkpt>
      <trkpt lat="45.50404" lon="4.6881">
        <ele>467</ele>
        <time>2015-06-07T08:54:45Z</time>
      </trkpt>
      <trkpt lat="45.50404" lon="4.6881">
        <ele>467</ele>
        <time>2015-06-07T08:54:47Z</time>
      </trkpt>
      <trkpt lat="45.50404" lon="4.6881">
        <ele>467</ele>
        <time>2015-06-07T08:54:51Z</time>
      </trkpt>
      <trkpt lat="45.50404" lon="4.6881">
        <ele>467</ele>
        <time>2015-06-07T08:54:54Z</time>
      </trkpt>
      <trkpt lat="45.50404" lon="4.6881">
        <ele>467</ele>
        <time>2015-06-07T08:54:56Z</time>
      </trkpt>
      <trkpt lat="45.50404" lon="4.6881">
        <ele>467</ele>
        <time>2015-06-07T08:55:00Z</time>
      </trkpt>
      <trkpt lat="45.50404" lon="4.6881">
        <ele>467</ele>
        <time>2015-06-07T08:55:03Z</time>
      </trkpt>
      <trkpt lat="45.50404" lon="4.6881">
        <ele>467</ele>
        <time>2015-06-07T08:55:05Z</time>
      </trkpt>
      <trkpt lat="45.50404" lon="4.6881">
        <ele>467</ele>
        <time>2015-06-07T08:55:09Z</time>
      </trkpt>
      <trkpt lat="45.50404" lon="4.6881">
        <ele>467</ele>
        <time>2015-06-07T08:55:12Z</time>
      </trkpt>
      <trkpt lat="45.50404" lon="4.6881">
        <ele>467</ele>
        <time>2015-06-07T08:55:14Z</time>
      </trkpt>
      <trkpt lat="45.50404" lon="4.6881">
        <ele>467</ele>
        <time>2015-06-07T08:55:17Z</time>
      </trkpt>
      <trkpt lat="45.50404" lon="4.6881">
        <ele>467</ele>
        <time>2015-06-07T08:55:20Z</time>
      </trkpt>
      <trkpt lat="45.50404" lon="4.6881">
        <ele>467</ele>
        <time>2015-06-07T08:55:23Z</time>
      </trkpt>
      <trkpt lat="45.50404" lon="4.6881">
        <ele>467</ele>
        <time>2015-06-07T08:55:27Z</time>
      </trkpt>
      <trkpt lat="45.50404" lon="4.6881">
        <ele>467</ele>
        <time>2015-06-07T08:55:29Z</time>
      </trkpt>
      <trkpt lat="45.50404" lon="4.6881">
        <ele>467</ele>
        <time>2015-06-07T08:55:32Z</time>
      </trkpt>
      <trkpt lat="45.50404" lon="4.6881">
        <ele>467</ele>
        <time>2015-06-07T08:55:37Z</time>
      </trkpt>
      <trkpt lat="45.50404" lon="4.6881">
        <ele>467</ele>
        <time>2015-06-07T08:55:38Z</time>
      </trkpt>
      <trkpt lat="45.50404" lon="4.6881">
        <ele>467</ele>
        <time>2015-06-07T08:55:41Z</time>
      </trkpt>
      <trkpt lat="45.50404" lon="4.6881">
        <ele>467</ele>
        <time>2015-06-07T08:55:45Z</time>
      </trkpt>
      <trkpt lat="45.50404" lon="4.6881">
        <ele>467</ele>
        <time>2015-06-07T08:55:47Z</time>
      </trkpt>
      <trkpt lat="45.50404" lon="4.6881">
        <ele>467</ele>
        <time>2015-06-07T08:55:50Z</time>
      </trkpt>
      <trkpt lat="45.50404" lon="4.6881">
        <ele>467</ele>
        <time>2015-06-07T08:55:53Z</time>
      </trkpt>
      <trkpt lat="45.50404" lon="4.6881">
        <ele>467</ele>
        <time>2015-06-07T08:55:57Z</time>
      </trkpt>
      <trkpt lat="45.50404" lon="4.6881">
        <ele>467</ele>
        <time>2015-06-07T08:55:59Z</time>
      </trkpt>
      <trkpt lat="45.50404" lon="4.6881">
        <ele>467</ele>
        <time>2015-06-07T08:56:03Z</time>
      </trkpt>
      <trkpt lat="45.50404" lon="4.6881">
        <ele>467</ele>
        <time>2015-06-07T08:56:06Z</time>
      </trkpt>
      <trkpt lat="45.50404" lon="4.6881">
        <ele>467</ele>
        <time>2015-06-07T08:56:09Z</time>
      </trkpt>
      <trkpt lat="45.50404" lon="4.6881">
        <ele>467</ele>
        <time>2015-06-07T08:56:12Z</time>
      </trkpt>
      <trkpt lat="45.50404" lon="4.6881">
        <ele>467</ele>
        <time>2015-06-07T08:56:15Z</time>
      </trkpt>
      <trkpt lat="45.50404" lon="4.6881">
        <ele>467</ele>
        <time>2015-06-07T08:56:18Z</time>
      </trkpt>
      <trkpt lat="45.50404" lon="4.6881">
        <ele>467</ele>
        <time>2015-06-07T08:56:21Z</time>
      </trkpt>
      <trkpt lat="45.50404" lon="4.6881">
        <ele>467</ele>
        <time>2015-06-07T08:56:23Z</time>
      </trkpt>
      <trkpt lat="45.50404" lon="4.6881">
        <ele>467</ele>
        <time>2015-06-07T08:56:27Z</time>
      </trkpt>
      <trkpt lat="45.50404" lon="4.6881">
        <ele>467</ele>
        <time>2015-06-07T08:56:32Z</time>
      </trkpt>
      <trkpt lat="45.50404" lon="4.6881">
        <ele>467</ele>
        <time>2015-06-07T08:56:34Z</time>
      </trkpt>
      <trkpt lat="45.50404" lon="4.6881">
        <ele>467</ele>
        <time>2015-06-07T08:56:36Z</time>
      </trkpt>
      <trkpt lat="45.50404" lon="4.6881">
        <ele>467</ele>
        <time>2015-06-07T08:56:39Z</time>
      </trkpt>
      <trkpt lat="45.50404" lon="4.6881">
        <ele>467</ele>
        <time>2015-06-07T08:56:41Z</time>
      </trkpt>
      <trkpt lat="45.50404" lon="4.6881">
        <ele>467</ele>
        <time>2015-06-07T08:56:45Z</time>
      </trkpt>
      <trkpt lat="45.50404" lon="4.6881">
        <ele>467</ele>
        <time>2015-06-07T08:56:47Z</time>
      </trkpt>
      <trkpt lat="45.50404" lon="4.6881">
        <ele>467</ele>
        <time>2015-06-07T08:56:50Z</time>
      </trkpt>
      <trkpt lat="45.50404" lon="4.6881">
        <ele>467</ele>
        <time>2015-06-07T08:56:54Z</time>
      </trkpt>
      <trkpt lat="45.50404" lon="4.6881">
        <ele>467</ele>
        <time>2015-06-07T08:56:56Z</time>
      </trkpt>
      <trkpt lat="45.50404" lon="4.6881">
        <ele>467</ele>
        <time>2015-06-07T08:57:00Z</time>
      </trkpt>
      <trkpt lat="45.50404" lon="4.6881">
        <ele>467</ele>
        <time>2015-06-07T08:57:03Z</time>
      </trkpt>
      <trkpt lat="45.50404" lon="4.6881">
        <ele>467</ele>
        <time>2015-06-07T08:57:05Z</time>
      </trkpt>
      <trkpt lat="45.50404" lon="4.6881">
        <ele>467</ele>
        <time>2015-06-07T08:57:09Z</time>
      </trkpt>
      <trkpt lat="45.50404" lon="4.6881">
        <ele>467</ele>
        <time>2015-06-07T08:57:11Z</time>
      </trkpt>
      <trkpt lat="45.50404" lon="4.6881">
        <ele>467</ele>
        <time>2015-06-07T08:57:15Z</time>
      </trkpt>
      <trkpt lat="45.50404" lon="4.6881">
        <ele>467</ele>
        <time>2015-06-07T08:57:17Z</time>
      </trkpt>
      <trkpt lat="45.50404" lon="4.6881">
        <ele>467</ele>
        <time>2015-06-07T08:57:20Z</time>
      </trkpt>
      <trkpt lat="45.50404" lon="4.6881">
        <ele>467</ele>
        <time>2015-06-07T08:57:23Z</time>
      </trkpt>
      <trkpt lat="45.50404" lon="4.6881">
        <ele>467</ele>
        <time>2015-06-07T08:57:26Z</time>
      </trkpt>
      <trkpt lat="45.50404" lon="4.6881">
        <ele>467</ele>
        <time>2015-06-07T08:57:30Z</time>
      </trkpt>
      <trkpt lat="45.50404" lon="4.6881">
        <ele>467</ele>
        <time>2015-06-07T08:57:32Z</time>
      </trkpt>
      <trkpt lat="45.50404" lon="4.6881">
        <ele>467</ele>
        <time>2015-06-07T08:57:35Z</time>
      </trkpt>
      <trkpt lat="45.50404" lon="4.6881">
        <ele>467</ele>
        <time>2015-06-07T08:57:38Z</time>
      </trkpt>
      <trkpt lat="45.50404" lon="4.6881">
        <ele>467</ele>
        <time>2015-06-07T08:57:41Z</time>
      </trkpt>
      <trkpt lat="45.50404" lon="4.6881">
        <ele>467</ele>
        <time>2015-06-07T08:57:45Z</time>
      </trkpt>
      <trkpt lat="45.50404" lon="4.6881">
        <ele>467</ele>
        <time>2015-06-07T08:57:48Z</time>
      </trkpt>
      <trkpt lat="45.50404" lon="4.6881">
        <ele>467</ele>
        <time>2015-06-07T08:57:50Z</time>
      </trkpt>
      <trkpt lat="45.50404" lon="4.6881">
        <ele>467</ele>
        <time>2015-06-07T08:57:55Z</time>
      </trkpt>
      <trkpt lat="45.50404" lon="4.6881">
        <ele>467</ele>
        <time>2015-06-07T08:57:57Z</time>
      </trkpt>
      <trkpt lat="45.50404" lon="4.6881">
        <ele>467</ele>
        <time>2015-06-07T08:57:59Z</time>
      </trkpt>
      <trkpt lat="45.50404" lon="4.6881">
        <ele>467</ele>
        <time>2015-06-07T08:58:03Z</time>
      </trkpt>
      <trkpt lat="45.50404" lon="4.6881">
        <ele>467</ele>
        <time>2015-06-07T08:58:04Z</time>
      </trkpt>
      <trkpt lat="45.50404" lon="4.6881">
        <ele>467</ele>
        <time>2015-06-07T08:58:07Z</time>
      </trkpt>
      <trkpt lat="45.50404" lon="4.6881">
        <ele>467</ele>
        <time>2015-06-07T08:58:10Z</time>
      </trkpt>
      <trkpt lat="45.50404" lon="4.6881">
        <ele>467</ele>
        <time>2015-06-07T08:58:13Z</time>
      </trkpt>
      <trkpt lat="45.50404" lon="4.6881">
        <ele>467</ele>
        <time>2015-06-07T08:58:16Z</time>
      </trkpt>
      <trkpt lat="45.50404" lon="4.6881">
        <ele>467</ele>
        <time>2015-06-07T08:58:19Z</time>
      </trkpt>
      <trkpt lat="45.50404" lon="4.6881">
        <ele>467</ele>
        <time>2015-06-07T08:58:23Z</time>
      </trkpt>
      <trkpt lat="45.50404" lon="4.6881">
        <ele>467</ele>
        <time>2015-06-07T08:58:26Z</time>
      </trkpt>
      <trkpt lat="45.50404" lon="4.6881">
        <ele>467</ele>
        <time>2015-06-07T08:58:29Z</time>
      </trkpt>
      <trkpt lat="45.50404" lon="4.6881">
        <ele>467</ele>
        <time>2015-06-07T08:58:32Z</time>
      </trkpt>
      <trkpt lat="45.50404" lon="4.6881">
        <ele>467</ele>
        <time>2015-06-07T08:58:35Z</time>
      </trkpt>
      <trkpt lat="45.50404" lon="4.6881">
        <ele>467</ele>
        <time>2015-06-07T08:58:37Z</time>
      </trkpt>
      <trkpt lat="45.50404" lon="4.6881">
        <ele>467</ele>
        <time>2015-06-07T08:58:41Z</time>
      </trkpt>
      <trkpt lat="45.50404" lon="4.6881">
        <ele>467</ele>
        <time>2015-06-07T08:58:44Z</time>
      </trkpt>
      <trkpt lat="45.50404" lon="4.6881">
        <ele>467</ele>
        <time>2015-06-07T08:58:49Z</time>
      </trkpt>
      <trkpt lat="45.50404" lon="4.6881">
        <ele>467</ele>
        <time>2015-06-07T08:58:50Z</time>
      </trkpt>
      <trkpt lat="45.50404" lon="4.6881">
        <ele>467</ele>
        <time>2015-06-07T08:58:53Z</time>
      </trkpt>
      <trkpt lat="45.50404" lon="4.6881">
        <ele>467</ele>
        <time>2015-06-07T08:58:56Z</time>
      </trkpt>
      <trkpt lat="45.50404" lon="4.6881">
        <ele>467</ele>
        <time>2015-06-07T08:58:58Z</time>
      </trkpt>
      <trkpt lat="45.50404" lon="4.6881">
        <ele>467</ele>
        <time>2015-06-07T08:59:02Z</time>
      </trkpt>
      <trkpt lat="45.50404" lon="4.6881">
        <ele>467</ele>
        <time>2015-06-07T08:59:04Z</time>
      </trkpt>
      <trkpt lat="45.50404" lon="4.6881">
        <ele>467</ele>
        <time>2015-06-07T08:59:07Z</time>
      </trkpt>
      <trkpt lat="45.50404" lon="4.6881">
        <ele>467</ele>
        <time>2015-06-07T08:59:12Z</time>
      </trkpt>
      <trkpt lat="45.50404" lon="4.6881">
        <ele>467</ele>
        <time>2015-06-07T08:59:13Z</time>
      </trkpt>
      <trkpt lat="45.50404" lon="4.6881">
        <ele>467</ele>
        <time>2015-06-07T08:59:18Z</time>
      </trkpt>
      <trkpt lat="45.50404" lon="4.6881">
        <ele>467</ele>
        <time>2015-06-07T08:59:21Z</time>
      </trkpt>
      <trkpt lat="45.50404" lon="4.6881">
        <ele>467</ele>
        <time>2015-06-07T08:59:22Z</time>
      </trkpt>
      <trkpt lat="45.50404" lon="4.6881">
        <ele>467</ele>
        <time>2015-06-07T08:59:26Z</time>
      </trkpt>
      <trkpt lat="45.50404" lon="4.6881">
        <ele>467</ele>
        <time>2015-06-07T08:59:28Z</time>
      </trkpt>
      <trkpt lat="45.50404" lon="4.6881">
        <ele>467</ele>
        <time>2015-06-07T08:59:31Z</time>
      </trkpt>
      <trkpt lat="45.50404" lon="4.6881">
        <ele>467</ele>
        <time>2015-06-07T08:59:35Z</time>
      </trkpt>
      <trkpt lat="45.50404" lon="4.6881">
        <ele>467</ele>
        <time>2015-06-07T08:59:38Z</time>
      </trkpt>
      <trkpt lat="45.50404" lon="4.6881">
        <ele>467</ele>
        <time>2015-06-07T08:59:40Z</time>
      </trkpt>
      <trkpt lat="45.50404" lon="4.6881">
        <ele>467</ele>
        <time>2015-06-07T08:59:44Z</time>
      </trkpt>
      <trkpt lat="45.50404" lon="4.6881">
        <ele>467</ele>
        <time>2015-06-07T08:59:47Z</time>
      </trkpt>
      <trkpt lat="45.50404" lon="4.6881">
        <ele>467</ele>
        <time>2015-06-07T08:59:51Z</time>
      </trkpt>
      <trkpt lat="45.50404" lon="4.6881">
        <ele>467</ele>
        <time>2015-06-07T08:59:52Z</time>
      </trkpt>
      <trkpt lat="45.50404" lon="4.6881">
        <ele>467</ele>
        <time>2015-06-07T08:59:56Z</time>
      </trkpt>
      <trkpt lat="45.50404" lon="4.6881">
        <ele>467</ele>
        <time>2015-06-07T09:00:01Z</time>
      </trkpt>
      <trkpt lat="45.50404" lon="4.6881">
        <ele>467</ele>
        <time>2015-06-07T09:00:02Z</time>
      </trkpt>
      <trkpt lat="45.50404" lon="4.6881">
        <ele>467</ele>
        <time>2015-06-07T09:00:05Z</time>
      </trkpt>
      <trkpt lat="45.50404" lon="4.6881">
        <ele>467</ele>
        <time>2015-06-07T09:00:08Z</time>
      </trkpt>
      <trkpt lat="45.50404" lon="4.6881">
        <ele>467</ele>
        <time>2015-06-07T09:00:11Z</time>
      </trkpt>
      <trkpt lat="45.50404" lon="4.6881">
        <ele>467</ele>
        <time>2015-06-07T09:00:14Z</time>
      </trkpt>
      <trkpt lat="45.50404" lon="4.6881">
        <ele>467</ele>
        <time>2015-06-07T09:00:17Z</time>
      </trkpt>
      <trkpt lat="45.50404" lon="4.6881">
        <ele>467</ele>
        <time>2015-06-07T09:00:20Z</time>
      </trkpt>
      <trkpt lat="45.50404" lon="4.6881">
        <ele>467</ele>
        <time>2015-06-07T09:00:23Z</time>
      </trkpt>
      <trkpt lat="45.50404" lon="4.6881">
        <ele>467</ele>
        <time>2015-06-07T09:00:25Z</time>
      </trkpt>
      <trkpt lat="45.50404" lon="4.6881">
        <ele>467</ele>
        <time>2015-06-07T09:00:29Z</time>
      </trkpt>
      <trkpt lat="45.50404" lon="4.6881">
        <ele>467</ele>
        <time>2015-06-07T09:00:31Z</time>
      </trkpt>
      <trkpt lat="45.50404" lon="4.6881">
        <ele>467</ele>
        <time>2015-06-07T09:00:36Z</time>
      </trkpt>
      <trkpt lat="45.50404" lon="4.6881">
        <ele>467</ele>
        <time>2015-06-07T09:00:37Z</time>
      </trkpt>
      <trkpt lat="45.50404" lon="4.6881">
        <ele>467</ele>
        <time>2015-06-07T09:00:41Z</time>
      </trkpt>
      <trkpt lat="45.50404" lon="4.6881">
        <ele>467</ele>
        <time>2015-06-07T09:00:43Z</time>
      </trkpt>
      <trkpt lat="45.50404" lon="4.6881">
        <ele>467</ele>
        <time>2015-06-07T09:00:46Z</time>
      </trkpt>
      <trkpt lat="45.50404" lon="4.6881">
        <ele>467</ele>
        <time>2015-06-07T09:00:49Z</time>
      </trkpt>
      <trkpt lat="45.50404" lon="4.6881">
        <ele>467</ele>
        <time>2015-06-07T09:00:52Z</time>
      </trkpt>
      <trkpt lat="45.50404" lon="4.6881">
        <ele>467</ele>
        <time>2015-06-07T09:00:55Z</time>
      </trkpt>
      <trkpt lat="45.50404" lon="4.6881">
        <ele>467</ele>
        <time>2015-06-07T09:00:59Z</time>
      </trkpt>
      <trkpt lat="45.50404" lon="4.6881">
        <ele>467</ele>
        <time>2015-06-07T09:01:02Z</time>
      </trkpt>
      <trkpt lat="45.50404" lon="4.6881">
        <ele>467</ele>
        <time>2015-06-07T09:01:04Z</time>
      </trkpt>
      <trkpt lat="45.50404" lon="4.6881">
        <ele>467</ele>
        <time>2015-06-07T09:01:07Z</time>
      </trkpt>
      <trkpt lat="45.50404" lon="4.6881">
        <ele>467</ele>
        <time>2015-06-07T09:01:10Z</time>
      </trkpt>
      <trkpt lat="45.50404" lon="4.6881">
        <ele>467</ele>
        <time>2015-06-07T09:01:14Z</time>
      </trkpt>
      <trkpt lat="45.50404" lon="4.6881">
        <ele>467</ele>
        <time>2015-06-07T09:01:16Z</time>
      </trkpt>
      <trkpt lat="45.50404" lon="4.6881">
        <ele>467</ele>
        <time>2015-06-07T09:01:19Z</time>
      </trkpt>
      <trkpt lat="45.50404" lon="4.6881">
        <ele>467</ele>
        <time>2015-06-07T09:01:23Z</time>
      </trkpt>
      <trkpt lat="45.50404" lon="4.6881">
        <ele>467</ele>
        <time>2015-06-07T09:01:25Z</time>
      </trkpt>
      <trkpt lat="45.50404" lon="4.68811">
        <ele>467</ele>
        <time>2015-06-07T09:01:28Z</time>
      </trkpt>
      <trkpt lat="45.50404" lon="4.68811">
        <ele>468</ele>
        <time>2015-06-07T09:01:33Z</time>
      </trkpt>
      <trkpt lat="45.50404" lon="4.68811">
        <ele>468</ele>
        <time>2015-06-07T09:01:35Z</time>
      </trkpt>
      <trkpt lat="45.50404" lon="4.68811">
        <ele>469</ele>
        <time>2015-06-07T09:01:37Z</time>
      </trkpt>
      <trkpt lat="45.50404" lon="4.68811">
        <ele>470</ele>
        <time>2015-06-07T09:01:41Z</time>
      </trkpt>
      <trkpt lat="45.50403" lon="4.68809">
        <ele>469</ele>
        <time>2015-06-07T09:01:43Z</time>
      </trkpt>
      <trkpt lat="45.50401" lon="4.68804">
        <ele>471</ele>
        <time>2015-06-07T09:01:48Z</time>
      </trkpt>
      <trkpt lat="45.50396" lon="4.68788">
        <ele>473</ele>
        <time>2015-06-07T09:01:54Z</time>
      </trkpt>
      <trkpt lat="45.5039" lon="4.68769">
        <ele>471</ele>
        <time>2015-06-07T09:01:59Z</time>
      </trkpt>
      <trkpt lat="45.50376" lon="4.68724">
        <ele>468</ele>
        <time>2015-06-07T09:02:07Z</time>
      </trkpt>
      <trkpt lat="45.5037" lon="4.68712">
        <ele>467</ele>
        <time>2015-06-07T09:02:09Z</time>
      </trkpt>
      <trkpt lat="45.50351" lon="4.68679">
        <ele>464</ele>
        <time>2015-06-07T09:02:14Z</time>
      </trkpt>
      <trkpt lat="45.50337" lon="4.68634">
        <ele>464</ele>
        <time>2015-06-07T09:02:19Z</time>
      </trkpt>
      <trkpt lat="45.50334" lon="4.68581">
        <ele>461</ele>
        <time>2015-06-07T09:02:24Z</time>
      </trkpt>
      <trkpt lat="45.50332" lon="4.68524">
        <ele>458</ele>
        <time>2015-06-07T09:02:29Z</time>
      </trkpt>
      <trkpt lat="45.50312" lon="4.68468">
        <ele>457</ele>
        <time>2015-06-07T09:02:34Z</time>
      </trkpt>
      <trkpt lat="45.50271" lon="4.68432">
        <ele>455</ele>
        <time>2015-06-07T09:02:39Z</time>
      </trkpt>
      <trkpt lat="45.50231" lon="4.68399">
        <ele>454</ele>
        <time>2015-06-07T09:02:44Z</time>
      </trkpt>
      <trkpt lat="45.50193" lon="4.68372">
        <ele>453</ele>
        <time>2015-06-07T09:02:49Z</time>
      </trkpt>
      <trkpt lat="45.50167" lon="4.68331">
        <ele>453</ele>
        <time>2015-06-07T09:02:54Z</time>
      </trkpt>
      <trkpt lat="45.50147" lon="4.68287">
        <ele>452</ele>
        <time>2015-06-07T09:02:59Z</time>
      </trkpt>
      <trkpt lat="45.50127" lon="4.68251">
        <ele>453</ele>
        <time>2015-06-07T09:03:04Z</time>
      </trkpt>
      <trkpt lat="45.50104" lon="4.68223">
        <ele>453</ele>
        <time>2015-06-07T09:03:09Z</time>
      </trkpt>
      <trkpt lat="45.50076" lon="4.682">
        <ele>452</ele>
        <time>2015-06-07T09:03:14Z</time>
      </trkpt>
      <trkpt lat="45.5004" lon="4.68187">
        <ele>448</ele>
        <time>2015-06-07T09:03:20Z</time>
      </trkpt>
      <trkpt lat="45.50015" lon="4.68184">
        <ele>451</ele>
        <time>2015-06-07T09:03:24Z</time>
      </trkpt>
      <trkpt lat="45.49991" lon="4.68184">
        <ele>453</ele>
        <time>2015-06-07T09:03:29Z</time>
      </trkpt>
      <trkpt lat="45.49969" lon="4.68181">
        <ele>458</ele>
        <time>2015-06-07T09:03:34Z</time>
      </trkpt>
      <trkpt lat="45.49964" lon="4.68154">
        <ele>457</ele>
        <time>2015-06-07T09:03:39Z</time>
      </trkpt>
      <trkpt lat="45.49991" lon="4.68116">
        <ele>458</ele>
        <time>2015-06-07T09:03:46Z</time>
      </trkpt>
      <trkpt lat="45.49997" lon="4.68106">
        <ele>457</ele>
        <time>2015-06-07T09:03:49Z</time>
      </trkpt>
      <trkpt lat="45.50009" lon="4.68065">
        <ele>459</ele>
        <time>2015-06-07T09:03:56Z</time>
      </trkpt>
      <trkpt lat="45.50005" lon="4.68051">
        <ele>459</ele>
        <time>2015-06-07T09:03:59Z</time>
      </trkpt>
      <trkpt lat="45.49981" lon="4.68028">
        <ele>462</ele>
        <time>2015-06-07T09:04:08Z</time>
      </trkpt>
      <trkpt lat="45.49978" lon="4.68028">
        <ele>463</ele>
        <time>2015-06-07T09:04:09Z</time>
      </trkpt>
      <trkpt lat="45.49961" lon="4.68024">
        <ele>463</ele>
        <time>2015-06-07T09:04:14Z</time>
      </trkpt>
      <trkpt lat="45.49945" lon="4.68023">
        <ele>465</ele>
        <time>2015-06-07T09:04:19Z</time>
      </trkpt>
      <trkpt lat="45.49931" lon="4.6802">
        <ele>466</ele>
        <time>2015-06-07T09:04:24Z</time>
      </trkpt>
      <trkpt lat="45.49917" lon="4.68017">
        <ele>467</ele>
        <time>2015-06-07T09:04:28Z</time>
      </trkpt>
      <trkpt lat="45.49903" lon="4.68011">
        <ele>467</ele>
        <time>2015-06-07T09:04:33Z</time>
      </trkpt>
      <trkpt lat="45.49898" lon="4.6799">
        <ele>472</ele>
        <time>2015-06-07T09:04:40Z</time>
      </trkpt>
      <trkpt lat="45.49904" lon="4.6798">
        <ele>472</ele>
        <time>2015-06-07T09:04:44Z</time>
      </trkpt>
      <trkpt lat="45.49913" lon="4.67963">
        <ele>473</ele>
        <time>2015-06-07T09:04:49Z</time>
      </trkpt>
      <trkpt lat="45.49927" lon="4.67934">
        <ele>477</ele>
        <time>2015-06-07T09:04:57Z</time>
      </trkpt>
      <trkpt lat="45.49927" lon="4.6793">
        <ele>477</ele>
        <time>2015-06-07T09:04:58Z</time>
      </trkpt>
      <trkpt lat="45.49926" lon="4.67912">
        <ele>474</ele>
        <time>2015-06-07T09:05:03Z</time>
      </trkpt>
      <trkpt lat="45.49919" lon="4.6789">
        <ele>471</ele>
        <time>2015-06-07T09:05:09Z</time>
      </trkpt>
      <trkpt lat="45.49915" lon="4.67865">
        <ele>473</ele>
        <time>2015-06-07T09:05:16Z</time>
      </trkpt>
      <trkpt lat="45.49909" lon="4.67856">
        <ele>473</ele>
        <time>2015-06-07T09:05:19Z</time>
      </trkpt>
      <trkpt lat="45.49895" lon="4.6784">
        <ele>476</ele>
        <time>2015-06-07T09:05:26Z</time>
      </trkpt>
      <trkpt lat="45.49886" lon="4.67834">
        <ele>476</ele>
        <time>2015-06-07T09:05:29Z</time>
      </trkpt>
      <trkpt lat="45.49868" lon="4.67818">
        <ele>476</ele>
        <time>2015-06-07T09:05:34Z</time>
      </trkpt>
      <trkpt lat="45.49844" lon="4.67799">
        <ele>475</ele>
        <time>2015-06-07T09:05:39Z</time>
      </trkpt>
      <trkpt lat="45.49819" lon="4.67776">
        <ele>475</ele>
        <time>2015-06-07T09:05:44Z</time>
      </trkpt>
      <trkpt lat="45.49804" lon="4.67745">
        <ele>476</ele>
        <time>2015-06-07T09:05:49Z</time>
      </trkpt>
      <trkpt lat="45.49789" lon="4.67715">
        <ele>477</ele>
        <time>2015-06-07T09:05:54Z</time>
      </trkpt>
      <trkpt lat="45.49778" lon="4.67695">
        <ele>478</ele>
        <time>2015-06-07T09:05:58Z</time>
      </trkpt>
      <trkpt lat="45.49761" lon="4.67675">
        <ele>480</ele>
        <time>2015-06-07T09:06:02Z</time>
      </trkpt>
      <trkpt lat="45.49742" lon="4.67659">
        <ele>480</ele>
        <time>2015-06-07T09:06:07Z</time>
      </trkpt>
      <trkpt lat="45.49723" lon="4.67645">
        <ele>481</ele>
        <time>2015-06-07T09:06:12Z</time>
      </trkpt>
      <trkpt lat="45.49706" lon="4.67636">
        <ele>480</ele>
        <time>2015-06-07T09:06:17Z</time>
      </trkpt>
      <trkpt lat="45.49678" lon="4.67628">
        <ele>441</ele>
        <time>2015-06-07T09:06:25Z</time>
      </trkpt>
      <trkpt lat="45.49672" lon="4.67629">
        <ele>456</ele>
        <time>2015-06-07T09:06:28Z</time>
      </trkpt>
      <trkpt lat="45.49657" lon="4.67626">
        <ele>473</ele>
        <time>2015-06-07T09:06:33Z</time>
      </trkpt>
      <trkpt lat="45.49644" lon="4.67617">
        <ele>481</ele>
        <time>2015-06-07T09:06:38Z</time>
      </trkpt>
      <trkpt lat="45.49645" lon="4.67592">
        <ele>483</ele>
        <time>2015-06-07T09:06:44Z</time>
      </trkpt>
      <trkpt lat="45.49653" lon="4.67583">
        <ele>484</ele>
        <time>2015-06-07T09:06:48Z</time>
      </trkpt>
      <trkpt lat="45.49664" lon="4.67564">
        <ele>484</ele>
        <time>2015-06-07T09:06:53Z</time>
      </trkpt>
      <trkpt lat="45.49683" lon="4.67537">
        <ele>480</ele>
        <time>2015-06-07T09:07:01Z</time>
      </trkpt>
      <trkpt lat="45.49689" lon="4.67532">
        <ele>479</ele>
        <time>2015-06-07T09:07:02Z</time>
      </trkpt>
      <trkpt lat="45.49703" lon="4.67517">
        <ele>483</ele>
        <time>2015-06-07T09:07:08Z</time>
      </trkpt>
      <trkpt lat="45.4971" lon="4.67492">
        <ele>486</ele>
        <time>2015-06-07T09:07:12Z</time>
      </trkpt>
      <trkpt lat="45.49709" lon="4.67466">
        <ele>490</ele>
        <time>2015-06-07T09:07:18Z</time>
      </trkpt>
      <trkpt lat="45.49701" lon="4.67445">
        <ele>493</ele>
        <time>2015-06-07T09:07:22Z</time>
      </trkpt>
      <trkpt lat="45.49687" lon="4.67424">
        <ele>495</ele>
        <time>2015-06-07T09:07:27Z</time>
      </trkpt>
      <trkpt lat="45.49672" lon="4.67403">
        <ele>491</ele>
        <time>2015-06-07T09:07:32Z</time>
      </trkpt>
      <trkpt lat="45.49658" lon="4.67386">
        <ele>493</ele>
        <time>2015-06-07T09:07:38Z</time>
      </trkpt>
      <trkpt lat="45.49646" lon="4.67373">
        <ele>498</ele>
        <time>2015-06-07T09:07:42Z</time>
      </trkpt>
      <trkpt lat="45.49629" lon="4.67357">
        <ele>497</ele>
        <time>2015-06-07T09:07:48Z</time>
      </trkpt>
      <trkpt lat="45.4961" lon="4.67337">
        <ele>496</ele>
        <time>2015-06-07T09:07:53Z</time>
      </trkpt>
      <trkpt lat="45.49597" lon="4.67306">
        <ele>495</ele>
        <time>2015-06-07T09:08:00Z</time>
      </trkpt>
      <trkpt lat="45.49604" lon="4.67289">
        <ele>496</ele>
        <time>2015-06-07T09:08:06Z</time>
      </trkpt>
      <trkpt lat="45.49608" lon="4.67279">
        <ele>496</ele>
        <time>2015-06-07T09:08:09Z</time>
      </trkpt>
      <trkpt lat="45.49616" lon="4.67255">
        <ele>495</ele>
        <time>2015-06-07T09:08:13Z</time>
      </trkpt>
      <trkpt lat="45.49616" lon="4.67202">
        <ele>498</ele>
        <time>2015-06-07T09:08:21Z</time>
      </trkpt>
      <trkpt lat="45.49615" lon="4.67198">
        <ele>499</ele>
        <time>2015-06-07T09:08:23Z</time>
      </trkpt>
      <trkpt lat="45.49602" lon="4.67179">
        <ele>501</ele>
        <time>2015-06-07T09:08:27Z</time>
      </trkpt>
      <trkpt lat="45.49586" lon="4.67166">
        <ele>501</ele>
        <time>2015-06-07T09:08:33Z</time>
      </trkpt>
      <trkpt lat="45.49571" lon="4.67157">
        <ele>504</ele>
        <time>2015-06-07T09:08:38Z</time>
      </trkpt>
      <trkpt lat="45.4955" lon="4.67136">
        <ele>505</ele>
        <time>2015-06-07T09:08:45Z</time>
      </trkpt>
      <trkpt lat="45.49541" lon="4.67122">
        <ele>505</ele>
        <time>2015-06-07T09:08:48Z</time>
      </trkpt>
      <trkpt lat="45.49528" lon="4.67103">
        <ele>506</ele>
        <time>2015-06-07T09:08:53Z</time>
      </trkpt>
      <trkpt lat="45.49516" lon="4.67081">
        <ele>508</ele>
        <time>2015-06-07T09:08:58Z</time>
      </trkpt>
      <trkpt lat="45.49506" lon="4.67054">
        <ele>508</ele>
        <time>2015-06-07T09:09:03Z</time>
      </trkpt>
      <trkpt lat="45.49501" lon="4.67027">
        <ele>511</ele>
        <time>2015-06-07T09:09:08Z</time>
      </trkpt>
      <trkpt lat="45.49488" lon="4.67005">
        <ele>511</ele>
        <time>2015-06-07T09:09:13Z</time>
      </trkpt>
      <trkpt lat="45.49465" lon="4.66988">
        <ele>514</ele>
        <time>2015-06-07T09:09:19Z</time>
      </trkpt>
      <trkpt lat="45.49454" lon="4.66985">
        <ele>513</ele>
        <time>2015-06-07T09:09:23Z</time>
      </trkpt>
      <trkpt lat="45.49435" lon="4.6698">
        <ele>513</ele>
        <time>2015-06-07T09:09:28Z</time>
      </trkpt>
      <trkpt lat="45.49417" lon="4.66966">
        <ele>516</ele>
        <time>2015-06-07T09:09:34Z</time>
      </trkpt>
      <trkpt lat="45.49409" lon="4.66942">
        <ele>519</ele>
        <time>2015-06-07T09:09:39Z</time>
      </trkpt>
      <trkpt lat="45.49391" lon="4.66913">
        <ele>520</ele>
        <time>2015-06-07T09:09:47Z</time>
      </trkpt>
      <trkpt lat="45.4939" lon="4.66908">
        <ele>521</ele>
        <time>2015-06-07T09:09:48Z</time>
      </trkpt>
      <trkpt lat="45.49395" lon="4.6689">
        <ele>524</ele>
        <time>2015-06-07T09:09:53Z</time>
      </trkpt>
      <trkpt lat="45.49406" lon="4.66871">
        <ele>523</ele>
        <time>2015-06-07T09:09:58Z</time>
      </trkpt>
      <trkpt lat="45.49415" lon="4.66846">
        <ele>522</ele>
        <time>2015-06-07T09:10:04Z</time>
      </trkpt>
      <trkpt lat="45.49417" lon="4.66826">
        <ele>517</ele>
        <time>2015-06-07T09:10:08Z</time>
      </trkpt>
      <trkpt lat="45.49413" lon="4.668">
        <ele>518</ele>
        <time>2015-06-07T09:10:13Z</time>
      </trkpt>
      <trkpt lat="45.49405" lon="4.66778">
        <ele>518</ele>
        <time>2015-06-07T09:10:18Z</time>
      </trkpt>
      <trkpt lat="45.49392" lon="4.66759">
        <ele>516</ele>
        <time>2015-06-07T09:10:23Z</time>
      </trkpt>
      <trkpt lat="45.4938" lon="4.66744">
        <ele>518</ele>
        <time>2015-06-07T09:10:28Z</time>
      </trkpt>
      <trkpt lat="45.49367" lon="4.66734">
        <ele>522</ele>
        <time>2015-06-07T09:10:33Z</time>
      </trkpt>
      <trkpt lat="45.49346" lon="4.6672">
        <ele>528</ele>
        <time>2015-06-07T09:10:40Z</time>
      </trkpt>
      <trkpt lat="45.49339" lon="4.66706">
        <ele>528</ele>
        <time>2015-06-07T09:10:43Z</time>
      </trkpt>
      <trkpt lat="45.49326" lon="4.66665">
        <ele>523</ele>
        <time>2015-06-07T09:10:51Z</time>
      </trkpt>
      <trkpt lat="45.4932" lon="4.66644">
        <ele>525</ele>
        <time>2015-06-07T09:10:55Z</time>
      </trkpt>
      <trkpt lat="45.49316" lon="4.66628">
        <ele>525</ele>
        <time>2015-06-07T09:10:58Z</time>
      </trkpt>
      <trkpt lat="45.49307" lon="4.666">
        <ele>525</ele>
        <time>2015-06-07T09:11:02Z</time>
      </trkpt>
      <trkpt lat="45.49298" lon="4.66571">
        <ele>527</ele>
        <time>2015-06-07T09:11:07Z</time>
      </trkpt>
      <trkpt lat="45.49294" lon="4.66545">
        <ele>525</ele>
        <time>2015-06-07T09:11:13Z</time>
      </trkpt>
      <trkpt lat="45.49287" lon="4.66521">
        <ele>525</ele>
        <time>2015-06-07T09:11:18Z</time>
      </trkpt>
      <trkpt lat="45.49281" lon="4.66498">
        <ele>526</ele>
        <time>2015-06-07T09:11:23Z</time>
      </trkpt>
      <trkpt lat="45.49275" lon="4.66478">
        <ele>528</ele>
        <time>2015-06-07T09:11:28Z</time>
      </trkpt>
      <trkpt lat="45.49269" lon="4.66455">
        <ele>529</ele>
        <time>2015-06-07T09:11:32Z</time>
      </trkpt>
      <trkpt lat="45.49266" lon="4.66434">
        <ele>528</ele>
        <time>2015-06-07T09:11:37Z</time>
      </trkpt>
      <trkpt lat="45.49275" lon="4.66414">
        <ele>528</ele>
        <time>2015-06-07T09:11:42Z</time>
      </trkpt>
      <trkpt lat="45.49291" lon="4.66405">
        <ele>531</ele>
        <time>2015-06-07T09:11:47Z</time>
      </trkpt>
      <trkpt lat="45.49306" lon="4.66399">
        <ele>530</ele>
        <time>2015-06-07T09:11:52Z</time>
      </trkpt>
      <trkpt lat="45.49328" lon="4.66376">
        <ele>529</ele>
        <time>2015-06-07T09:12:00Z</time>
      </trkpt>
      <trkpt lat="45.49333" lon="4.66367">
        <ele>529</ele>
        <time>2015-06-07T09:12:03Z</time>
      </trkpt>
      <trkpt lat="45.49334" lon="4.66351">
        <ele>530</ele>
        <time>2015-06-07T09:12:09Z</time>
      </trkpt>
      <trkpt lat="45.49337" lon="4.66329">
        <ele>529</ele>
        <time>2015-06-07T09:12:14Z</time>
      </trkpt>
      <trkpt lat="45.49337" lon="4.66313">
        <ele>529</ele>
        <time>2015-06-07T09:12:18Z</time>
      </trkpt>
      <trkpt lat="45.49337" lon="4.66293">
        <ele>531</ele>
        <time>2015-06-07T09:12:22Z</time>
      </trkpt>
      <trkpt lat="45.49337" lon="4.66271">
        <ele>532</ele>
        <time>2015-06-07T09:12:27Z</time>
      </trkpt>
      <trkpt lat="45.49339" lon="4.66245">
        <ele>533</ele>
        <time>2015-06-07T09:12:34Z</time>
      </trkpt>
      <trkpt lat="45.49342" lon="4.66216">
        <ele>533</ele>
        <time>2015-06-07T09:12:40Z</time>
      </trkpt>
      <trkpt lat="45.49347" lon="4.66194">
        <ele>536</ele>
        <time>2015-06-07T09:12:47Z</time>
      </trkpt>
      <trkpt lat="45.49348" lon="4.66191">
        <ele>538</ele>
        <time>2015-06-07T09:12:48Z</time>
      </trkpt>
      <trkpt lat="45.4935" lon="4.66173">
        <ele>537</ele>
        <time>2015-06-07T09:12:52Z</time>
      </trkpt>
      <trkpt lat="45.49353" lon="4.66157">
        <ele>538</ele>
        <time>2015-06-07T09:12:57Z</time>
      </trkpt>
      <trkpt lat="45.49347" lon="4.66129">
        <ele>538</ele>
        <time>2015-06-07T09:13:06Z</time>
      </trkpt>
      <trkpt lat="45.49344" lon="4.66122">
        <ele>537</ele>
        <time>2015-06-07T09:13:08Z</time>
      </trkpt>
      <trkpt lat="45.49337" lon="4.66112">
        <ele>542</ele>
        <time>2015-06-07T09:13:12Z</time>
      </trkpt>
      <trkpt lat="45.49328" lon="4.66097">
        <ele>545</ele>
        <time>2015-06-07T09:13:18Z</time>
      </trkpt>
      <trkpt lat="45.4932" lon="4.66077">
        <ele>545</ele>
        <time>2015-06-07T09:13:23Z</time>
      </trkpt>
      <trkpt lat="45.49319" lon="4.66057">
        <ele>548</ele>
        <time>2015-06-07T09:13:27Z</time>
      </trkpt>
      <trkpt lat="45.49313" lon="4.66041">
        <ele>548</ele>
        <time>2015-06-07T09:13:32Z</time>
      </trkpt>
      <trkpt lat="45.49311" lon="4.66024">
        <ele>550</ele>
        <time>2015-06-07T09:13:38Z</time>
      </trkpt>
      <trkpt lat="45.49309" lon="4.66006">
        <ele>549</ele>
        <time>2015-06-07T09:13:42Z</time>
      </trkpt>
      <trkpt lat="45.49307" lon="4.65991">
        <ele>551</ele>
        <time>2015-06-07T09:13:48Z</time>
      </trkpt>
      <trkpt lat="45.49305" lon="4.65974">
        <ele>553</ele>
        <time>2015-06-07T09:13:52Z</time>
      </trkpt>
      <trkpt lat="45.49303" lon="4.65959">
        <ele>554</ele>
        <time>2015-06-07T09:13:57Z</time>
      </trkpt>
      <trkpt lat="45.49301" lon="4.65943">
        <ele>554</ele>
        <time>2015-06-07T09:14:01Z</time>
      </trkpt>
      <trkpt lat="45.49299" lon="4.65918">
        <ele>554</ele>
        <time>2015-06-07T09:14:08Z</time>
      </trkpt>
      <trkpt lat="45.49296" lon="4.6591">
        <ele>553</ele>
        <time>2015-06-07T09:14:12Z</time>
      </trkpt>
      <trkpt lat="45.49295" lon="4.65898">
        <ele>553</ele>
        <time>2015-06-07T09:14:15Z</time>
      </trkpt>
      <trkpt lat="45.49293" lon="4.65881">
        <ele>554</ele>
        <time>2015-06-07T09:14:21Z</time>
      </trkpt>
      <trkpt lat="45.49292" lon="4.65864">
        <ele>554</ele>
        <time>2015-06-07T09:14:26Z</time>
      </trkpt>
      <trkpt lat="45.49289" lon="4.65849">
        <ele>556</ele>
        <time>2015-06-07T09:14:31Z</time>
      </trkpt>
      <trkpt lat="45.49287" lon="4.65834">
        <ele>560</ele>
        <time>2015-06-07T09:14:35Z</time>
      </trkpt>
      <trkpt lat="45.49284" lon="4.65817">
        <ele>559</ele>
        <time>2015-06-07T09:14:40Z</time>
      </trkpt>
      <trkpt lat="45.4928" lon="4.65803">
        <ele>560</ele>
        <time>2015-06-07T09:14:45Z</time>
      </trkpt>
      <trkpt lat="45.49277" lon="4.6579">
        <ele>562</ele>
        <time>2015-06-07T09:14:50Z</time>
      </trkpt>
      <trkpt lat="45.49272" lon="4.65769">
        <ele>563</ele>
        <time>2015-06-07T09:14:57Z</time>
      </trkpt>
      <trkpt lat="45.4927" lon="4.65761">
        <ele>562</ele>
        <time>2015-06-07T09:15:00Z</time>
      </trkpt>
      <trkpt lat="45.49269" lon="4.65746">
        <ele>565</ele>
        <time>2015-06-07T09:15:06Z</time>
      </trkpt>
      <trkpt lat="45.49269" lon="4.65732">
        <ele>568</ele>
        <time>2015-06-07T09:15:11Z</time>
      </trkpt>
      <trkpt lat="45.49269" lon="4.65719">
        <ele>570</ele>
        <time>2015-06-07T09:15:15Z</time>
      </trkpt>
      <trkpt lat="45.49271" lon="4.65698">
        <ele>571</ele>
        <time>2015-06-07T09:15:23Z</time>
      </trkpt>
      <trkpt lat="45.49273" lon="4.65676">
        <ele>571</ele>
        <time>2015-06-07T09:15:28Z</time>
      </trkpt>
      <trkpt lat="45.49274" lon="4.6566">
        <ele>570</ele>
        <time>2015-06-07T09:15:30Z</time>
      </trkpt>
      <trkpt lat="45.49274" lon="4.65634">
        <ele>571</ele>
        <time>2015-06-07T09:15:36Z</time>
      </trkpt>
      <trkpt lat="45.49273" lon="4.65597">
        <ele>570</ele>
        <time>2015-06-07T09:15:44Z</time>
      </trkpt>
      <trkpt lat="45.49273" lon="4.65588">
        <ele>570</ele>
        <time>2015-06-07T09:15:45Z</time>
      </trkpt>
      <trkpt lat="45.49275" lon="4.65563">
        <ele>570</ele>
        <time>2015-06-07T09:15:50Z</time>
      </trkpt>
      <trkpt lat="45.49273" lon="4.65538">
        <ele>573</ele>
        <time>2015-06-07T09:15:55Z</time>
      </trkpt>
      <trkpt lat="45.49276" lon="4.65504">
        <ele>577</ele>
        <time>2015-06-07T09:16:02Z</time>
      </trkpt>
      <trkpt lat="45.49285" lon="4.65468">
        <ele>575</ele>
        <time>2015-06-07T09:16:10Z</time>
      </trkpt>
      <trkpt lat="45.49289" lon="4.6545">
        <ele>575</ele>
        <time>2015-06-07T09:16:12Z</time>
      </trkpt>
      <trkpt lat="45.49296" lon="4.6543">
        <ele>574</ele>
        <time>2015-06-07T09:16:15Z</time>
      </trkpt>
      <trkpt lat="45.49305" lon="4.65392">
        <ele>572</ele>
        <time>2015-06-07T09:16:21Z</time>
      </trkpt>
      <trkpt lat="45.49314" lon="4.65355">
        <ele>571</ele>
        <time>2015-06-07T09:16:26Z</time>
      </trkpt>
      <trkpt lat="45.49324" lon="4.65319">
        <ele>571</ele>
        <time>2015-06-07T09:16:31Z</time>
      </trkpt>
      <trkpt lat="45.49337" lon="4.65284">
        <ele>570</ele>
        <time>2015-06-07T09:16:36Z</time>
      </trkpt>
      <trkpt lat="45.49352" lon="4.6525">
        <ele>571</ele>
        <time>2015-06-07T09:16:41Z</time>
      </trkpt>
      <trkpt lat="45.49371" lon="4.65213">
        <ele>570</ele>
        <time>2015-06-07T09:16:46Z</time>
      </trkpt>
      <trkpt lat="45.4939" lon="4.65173">
        <ele>568</ele>
        <time>2015-06-07T09:16:51Z</time>
      </trkpt>
      <trkpt lat="45.49395" lon="4.65084">
        <ele>563</ele>
        <time>2015-06-07T09:16:59Z</time>
      </trkpt>
      <trkpt lat="45.49381" lon="4.6507">
        <ele>563</ele>
        <time>2015-06-07T09:17:01Z</time>
      </trkpt>
      <trkpt lat="45.49299" lon="4.6502">
        <ele>559</ele>
        <time>2015-06-07T09:17:08Z</time>
      </trkpt>
      <trkpt lat="45.49287" lon="4.65013">
        <ele>557</ele>
        <time>2015-06-07T09:17:09Z</time>
      </trkpt>
      <trkpt lat="45.49229" lon="4.64992">
        <ele>553</ele>
        <time>2015-06-07T09:17:15Z</time>
      </trkpt>
      <trkpt lat="45.49162" lon="4.64993">
        <ele>546</ele>
        <time>2015-06-07T09:17:19Z</time>
      </trkpt>
      <trkpt lat="45.49062" lon="4.65026">
        <ele>542</ele>
        <time>2015-06-07T09:17:28Z</time>
      </trkpt>
      <trkpt lat="45.49051" lon="4.65029">
        <ele>543</ele>
        <time>2015-06-07T09:17:29Z</time>
      </trkpt>
      <trkpt lat="45.49004" lon="4.65036">
        <ele>543</ele>
        <time>2015-06-07T09:17:34Z</time>
      </trkpt>
      <trkpt lat="45.4897" lon="4.65039">
        <ele>546</ele>
        <time>2015-06-07T09:17:39Z</time>
      </trkpt>
      <trkpt lat="45.48939" lon="4.65035">
        <ele>546</ele>
        <time>2015-06-07T09:17:45Z</time>
      </trkpt>
      <trkpt lat="45.48894" lon="4.65023">
        <ele>547</ele>
        <time>2015-06-07T09:17:54Z</time>
      </trkpt>
      <trkpt lat="45.48886" lon="4.65019">
        <ele>543</ele>
        <time>2015-06-07T09:17:55Z</time>
      </trkpt>
      <trkpt lat="45.48851" lon="4.65">
        <ele>542</ele>
        <time>2015-06-07T09:18:01Z</time>
      </trkpt>
      <trkpt lat="45.48821" lon="4.64976">
        <ele>541</ele>
        <time>2015-06-07T09:18:05Z</time>
      </trkpt>
      <trkpt lat="45.48782" lon="4.64937">
        <ele>538</ele>
        <time>2015-06-07T09:18:09Z</time>
      </trkpt>
      <trkpt lat="45.48736" lon="4.6492">
        <ele>540</ele>
        <time>2015-06-07T09:18:15Z</time>
      </trkpt>
      <trkpt lat="45.48715" lon="4.64915">
        <ele>541</ele>
        <time>2015-06-07T09:18:20Z</time>
      </trkpt>
      <trkpt lat="45.48691" lon="4.64899">
        <ele>528</ele>
        <time>2015-06-07T09:18:27Z</time>
      </trkpt>
      <trkpt lat="45.48685" lon="4.64892">
        <ele>533</ele>
        <time>2015-06-07T09:18:29Z</time>
      </trkpt>
      <trkpt lat="45.48667" lon="4.64863">
        <ele>539</ele>
        <time>2015-06-07T09:18:37Z</time>
      </trkpt>
      <trkpt lat="45.48657" lon="4.64846">
        <ele>541</ele>
        <time>2015-06-07T09:18:41Z</time>
      </trkpt>
      <trkpt lat="45.48637" lon="4.64811">
        <ele>544</ele>
        <time>2015-06-07T09:18:49Z</time>
      </trkpt>
      <trkpt lat="45.48632" lon="4.64799">
        <ele>546</ele>
        <time>2015-06-07T09:18:51Z</time>
      </trkpt>
      <trkpt lat="45.48615" lon="4.64773">
        <ele>543</ele>
        <time>2015-06-07T09:18:55Z</time>
      </trkpt>
      <trkpt lat="45.4859" lon="4.64733">
        <ele>539</ele>
        <time>2015-06-07T09:19:00Z</time>
      </trkpt>
      <trkpt lat="45.48565" lon="4.64688">
        <ele>540</ele>
        <time>2015-06-07T09:19:05Z</time>
      </trkpt>
      <trkpt lat="45.4853" lon="4.64614">
        <ele>536</ele>
        <time>2015-06-07T09:19:14Z</time>
      </trkpt>
      <trkpt lat="45.48522" lon="4.64586">
        <ele>530</ele>
        <time>2015-06-07T09:19:16Z</time>
      </trkpt>
      <trkpt lat="45.48529" lon="4.64488">
        <ele>529</ele>
        <time>2015-06-07T09:19:23Z</time>
      </trkpt>
      <trkpt lat="45.48547" lon="4.64431">
        <ele>523</ele>
        <time>2015-06-07T09:19:26Z</time>
      </trkpt>
      <trkpt lat="45.48565" lon="4.64389">
        <ele>521</ele>
        <time>2015-06-07T09:19:29Z</time>
      </trkpt>
      <trkpt lat="45.48613" lon="4.64333">
        <ele>515</ele>
        <time>2015-06-07T09:19:35Z</time>
      </trkpt>
      <trkpt lat="45.48649" lon="4.6429">
        <ele>514</ele>
        <time>2015-06-07T09:19:41Z</time>
      </trkpt>
      <trkpt lat="45.48663" lon="4.64229">
        <ele>512</ele>
        <time>2015-06-07T09:19:46Z</time>
      </trkpt>
      <trkpt lat="45.48672" lon="4.64174">
        <ele>508</ele>
        <time>2015-06-07T09:19:50Z</time>
      </trkpt>
      <trkpt lat="45.487" lon="4.64049">
        <ele>505</ele>
        <time>2015-06-07T09:19:58Z</time>
      </trkpt>
      <trkpt lat="45.48721" lon="4.6398">
        <ele>499</ele>
        <time>2015-06-07T09:20:04Z</time>
      </trkpt>
      <trkpt lat="45.4872" lon="4.6395">
        <ele>497</ele>
        <time>2015-06-07T09:20:08Z</time>
      </trkpt>
      <trkpt lat="45.48695" lon="4.63945">
        <ele>506</ele>
        <time>2015-06-07T09:20:13Z</time>
      </trkpt>
      <trkpt lat="45.48689" lon="4.63944">
        <ele>500</ele>
        <time>2015-06-07T09:20:14Z</time>
      </trkpt>
      <trkpt lat="45.48657" lon="4.63937">
        <ele>496</ele>
        <time>2015-06-07T09:20:19Z</time>
      </trkpt>
      <trkpt lat="45.48616" lon="4.639">
        <ele>498</ele>
        <time>2015-06-07T09:20:27Z</time>
      </trkpt>
      <trkpt lat="45.48595" lon="4.63917">
        <ele>488</ele>
        <time>2015-06-07T09:20:29Z</time>
      </trkpt>
      <trkpt lat="45.48564" lon="4.63955">
        <ele>480</ele>
        <time>2015-06-07T09:20:34Z</time>
      </trkpt>
      <trkpt lat="45.48564" lon="4.64019">
        <ele>475</ele>
        <time>2015-06-07T09:20:39Z</time>
      </trkpt>
      <trkpt lat="45.48529" lon="4.64063">
        <ele>473</ele>
        <time>2015-06-07T09:20:44Z</time>
      </trkpt>
      <trkpt lat="45.4849" lon="4.64088">
        <ele>471</ele>
        <time>2015-06-07T09:20:49Z</time>
      </trkpt>
      <trkpt lat="45.4846" lon="4.64113">
        <ele>473</ele>
        <time>2015-06-07T09:20:55Z</time>
      </trkpt>
      <trkpt lat="45.48438" lon="4.64129">
        <ele>474</ele>
        <time>2015-06-07T09:20:59Z</time>
      </trkpt>
      <trkpt lat="45.48416" lon="4.6414">
        <ele>476</ele>
        <time>2015-06-07T09:21:04Z</time>
      </trkpt>
      <trkpt lat="45.48397" lon="4.64154">
        <ele>475</ele>
        <time>2015-06-07T09:21:09Z</time>
      </trkpt>
      <trkpt lat="45.48374" lon="4.64159">
        <ele>476</ele>
        <time>2015-06-07T09:21:14Z</time>
      </trkpt>
      <trkpt lat="45.48341" lon="4.64164">
        <ele>476</ele>
        <time>2015-06-07T09:21:20Z</time>
      </trkpt>
      <trkpt lat="45.48291" lon="4.64173">
        <ele>470</ele>
        <time>2015-06-07T09:21:24Z</time>
      </trkpt>
      <trkpt lat="45.48235" lon="4.64172">
        <ele>465</ele>
        <time>2015-06-07T09:21:29Z</time>
      </trkpt>
      <trkpt lat="45.48178" lon="4.64184">
        <ele>459</ele>
        <time>2015-06-07T09:21:34Z</time>
      </trkpt>
      <trkpt lat="45.48126" lon="4.64223">
        <ele>453</ele>
        <time>2015-06-07T09:21:40Z</time>
      </trkpt>
      <trkpt lat="45.48102" lon="4.64279">
        <ele>449</ele>
        <time>2015-06-07T09:21:45Z</time>
      </trkpt>
      <trkpt lat="45.48109" lon="4.64344">
        <ele>444</ele>
        <time>2015-06-07T09:21:50Z</time>
      </trkpt>
      <trkpt lat="45.48121" lon="4.64405">
        <ele>441</ele>
        <time>2015-06-07T09:21:54Z</time>
      </trkpt>
      <trkpt lat="45.48142" lon="4.64487">
        <ele>434</ele>
        <time>2015-06-07T09:22:01Z</time>
      </trkpt>
      <trkpt lat="45.48137" lon="4.64543">
        <ele>431</ele>
        <time>2015-06-07T09:22:05Z</time>
      </trkpt>
      <trkpt lat="45.48117" lon="4.64579">
        <ele>428</ele>
        <time>2015-06-07T09:22:10Z</time>
      </trkpt>
      <trkpt lat="45.4809" lon="4.64597">
        <ele>428</ele>
        <time>2015-06-07T09:22:15Z</time>
      </trkpt>
      <trkpt lat="45.48066" lon="4.64617">
        <ele>429</ele>
        <time>2015-06-07T09:22:20Z</time>
      </trkpt>
      <trkpt lat="45.48044" lon="4.64638">
        <ele>430</ele>
        <time>2015-06-07T09:22:25Z</time>
      </trkpt>
      <trkpt lat="45.48027" lon="4.64667">
        <ele>429</ele>
        <time>2015-06-07T09:22:30Z</time>
      </trkpt>
      <trkpt lat="45.48017" lon="4.64702">
        <ele>429</ele>
        <time>2015-06-07T09:22:35Z</time>
      </trkpt>
      <trkpt lat="45.4801" lon="4.64733">
        <ele>430</ele>
        <time>2015-06-07T09:22:40Z</time>
      </trkpt>
      <trkpt lat="45.47996" lon="4.64763">
        <ele>429</ele>
        <time>2015-06-07T09:22:45Z</time>
      </trkpt>
      <trkpt lat="45.47973" lon="4.6477">
        <ele>429</ele>
        <time>2015-06-07T09:22:50Z</time>
      </trkpt>
      <trkpt lat="45.47953" lon="4.64756">
        <ele>431</ele>
        <time>2015-06-07T09:22:55Z</time>
      </trkpt>
      <trkpt lat="45.47948" lon="4.64741">
        <ele>435</ele>
        <time>2015-06-07T09:23:00Z</time>
      </trkpt>
      <trkpt lat="45.47933" lon="4.64723">
        <ele>438</ele>
        <time>2015-06-07T09:23:05Z</time>
      </trkpt>
      <trkpt lat="45.47913" lon="4.64714">
        <ele>439</ele>
        <time>2015-06-07T09:23:12Z</time>
      </trkpt>
      <trkpt lat="45.47903" lon="4.64714">
        <ele>438</ele>
        <time>2015-06-07T09:23:15Z</time>
      </trkpt>
      <trkpt lat="45.4789" lon="4.64707">
        <ele>438</ele>
        <time>2015-06-07T09:23:20Z</time>
      </trkpt>
      <trkpt lat="45.47875" lon="4.64698">
        <ele>436</ele>
        <time>2015-06-07T09:23:25Z</time>
      </trkpt>
      <trkpt lat="45.47865" lon="4.6469">
        <ele>436</ele>
        <time>2015-06-07T09:23:30Z</time>
      </trkpt>
      <trkpt lat="45.47865" lon="4.6469">
        <ele>435</ele>
        <time>2015-06-07T09:23:35Z</time>
      </trkpt>
      <trkpt lat="45.47864" lon="4.6469">
        <ele>435</ele>
        <time>2015-06-07T09:23:38Z</time>
      </trkpt>
      <trkpt lat="45.47864" lon="4.64689">
        <ele>433</ele>
        <time>2015-06-07T09:23:41Z</time>
      </trkpt>
      <trkpt lat="45.47864" lon="4.64689">
        <ele>432</ele>
        <time>2015-06-07T09:23:44Z</time>
      </trkpt>
      <trkpt lat="45.47863" lon="4.6469">
        <ele>432</ele>
        <time>2015-06-07T09:23:47Z</time>
      </trkpt>
      <trkpt lat="45.47862" lon="4.6469">
        <ele>432</ele>
        <time>2015-06-07T09:23:52Z</time>
      </trkpt>
      <trkpt lat="45.47861" lon="4.64688">
        <ele>429</ele>
        <time>2015-06-07T09:23:55Z</time>
      </trkpt>
      <trkpt lat="45.4786" lon="4.64689">
        <ele>429</ele>
        <time>2015-06-07T09:24:00Z</time>
      </trkpt>
      <trkpt lat="45.4786" lon="4.64689">
        <ele>430</ele>
        <time>2015-06-07T09:24:03Z</time>
      </trkpt>
      <trkpt lat="45.4786" lon="4.64689">
        <ele>430</ele>
        <time>2015-06-07T09:24:06Z</time>
      </trkpt>
      <trkpt lat="45.4786" lon="4.64688">
        <ele>427</ele>
        <time>2015-06-07T09:24:09Z</time>
      </trkpt>
      <trkpt lat="45.4786" lon="4.64688">
        <ele>428</ele>
        <time>2015-06-07T09:24:11Z</time>
      </trkpt>
      <trkpt lat="45.4786" lon="4.64688">
        <ele>429</ele>
        <time>2015-06-07T09:24:14Z</time>
      </trkpt>
      <trkpt lat="45.4786" lon="4.64689">
        <ele>428</ele>
        <time>2015-06-07T09:24:17Z</time>
      </trkpt>
      <trkpt lat="45.4786" lon="4.64688">
        <ele>428</ele>
        <time>2015-06-07T09:24:20Z</time>
      </trkpt>
      <trkpt lat="45.4786" lon="4.64688">
        <ele>427</ele>
        <time>2015-06-07T09:24:23Z</time>
      </trkpt>
      <trkpt lat="45.4786" lon="4.64688">
        <ele>427</ele>
        <time>2015-06-07T09:24:26Z</time>
      </trkpt>
      <trkpt lat="45.4786" lon="4.64688">
        <ele>427</ele>
        <time>2015-06-07T09:24:29Z</time>
      </trkpt>
      <trkpt lat="45.4786" lon="4.64688">
        <ele>427</ele>
        <time>2015-06-07T09:24:33Z</time>
      </trkpt>
      <trkpt lat="45.4786" lon="4.64688">
        <ele>427</ele>
        <time>2015-06-07T09:24:35Z</time>
      </trkpt>
      <trkpt lat="45.4786" lon="4.64688">
        <ele>427</ele>
        <time>2015-06-07T09:24:37Z</time>
      </trkpt>
      <trkpt lat="45.4786" lon="4.64688">
        <ele>427</ele>
        <time>2015-06-07T09:24:40Z</time>
      </trkpt>
      <trkpt lat="45.4786" lon="4.64688">
        <ele>427</ele>
        <time>2015-06-07T09:24:44Z</time>
      </trkpt>
      <trkpt lat="45.4786" lon="4.64688">
        <ele>427</ele>
        <time>2015-06-07T09:24:46Z</time>
      </trkpt>
      <trkpt lat="45.4786" lon="4.64688">
        <ele>427</ele>
        <time>2015-06-07T09:24:49Z</time>
      </trkpt>
      <trkpt lat="45.4786" lon="4.64688">
        <ele>427</ele>
        <time>2015-06-07T09:24:52Z</time>
      </trkpt>
      <trkpt lat="45.4786" lon="4.64688">
        <ele>427</ele>
        <time>2015-06-07T09:24:55Z</time>
      </trkpt>
      <trkpt lat="45.4786" lon="4.64688">
        <ele>427</ele>
        <time>2015-06-07T09:24:59Z</time>
      </trkpt>
      <trkpt lat="45.4786" lon="4.64688">
        <ele>427</ele>
        <time>2015-06-07T09:25:02Z</time>
      </trkpt>
      <trkpt lat="45.4786" lon="4.64688">
        <ele>427</ele>
        <time>2015-06-07T09:25:04Z</time>
      </trkpt>
      <trkpt lat="45.4786" lon="4.64688">
        <ele>427</ele>
        <time>2015-06-07T09:25:06Z</time>
      </trkpt>
      <trkpt lat="45.4786" lon="4.64688">
        <ele>427</ele>
        <time>2015-06-07T09:25:10Z</time>
      </trkpt>
      <trkpt lat="45.4786" lon="4.64688">
        <ele>427</ele>
        <time>2015-06-07T09:25:12Z</time>
      </trkpt>
      <trkpt lat="45.4786" lon="4.64688">
        <ele>427</ele>
        <time>2015-06-07T09:25:15Z</time>
      </trkpt>
      <trkpt lat="45.4786" lon="4.64689">
        <ele>428</ele>
        <time>2015-06-07T09:25:18Z</time>
      </trkpt>
      <trkpt lat="45.4786" lon="4.64689">
        <ele>428</ele>
        <time>2015-06-07T09:25:22Z</time>
      </trkpt>
      <trkpt lat="45.4786" lon="4.6469">
        <ele>428</ele>
        <time>2015-06-07T09:25:25Z</time>
      </trkpt>
      <trkpt lat="45.4786" lon="4.6469">
        <ele>428</ele>
        <time>2015-06-07T09:25:28Z</time>
      </trkpt>
      <trkpt lat="45.4786" lon="4.64691">
        <ele>428</ele>
        <time>2015-06-07T09:25:31Z</time>
      </trkpt>
      <trkpt lat="45.4786" lon="4.64691">
        <ele>428</ele>
        <time>2015-06-07T09:25:34Z</time>
      </trkpt>
      <trkpt lat="45.4786" lon="4.64691">
        <ele>428</ele>
        <time>2015-06-07T09:25:36Z</time>
      </trkpt>
      <trkpt lat="45.47859" lon="4.64691">
        <ele>428</ele>
        <time>2015-06-07T09:25:39Z</time>
      </trkpt>
      <trkpt lat="45.47859" lon="4.64691">
        <ele>428</ele>
        <time>2015-06-07T09:25:42Z</time>
      </trkpt>
      <trkpt lat="45.47859" lon="4.64691">
        <ele>428</ele>
        <time>2015-06-07T09:25:45Z</time>
      </trkpt>
      <trkpt lat="45.47859" lon="4.64691">
        <ele>428</ele>
        <time>2015-06-07T09:25:48Z</time>
      </trkpt>
      <trkpt lat="45.47859" lon="4.64691">
        <ele>428</ele>
        <time>2015-06-07T09:25:50Z</time>
      </trkpt>
      <trkpt lat="45.47859" lon="4.64691">
        <ele>428</ele>
        <time>2015-06-07T09:25:54Z</time>
      </trkpt>
      <trkpt lat="45.47859" lon="4.64691">
        <ele>428</ele>
        <time>2015-06-07T09:25:57Z</time>
      </trkpt>
      <trkpt lat="45.47859" lon="4.64691">
        <ele>428</ele>
        <time>2015-06-07T09:26:00Z</time>
      </trkpt>
      <trkpt lat="45.47859" lon="4.64691">
        <ele>428</ele>
        <time>2015-06-07T09:26:03Z</time>
      </trkpt>
      <trkpt lat="45.4786" lon="4.64691">
        <ele>427</ele>
        <time>2015-06-07T09:26:06Z</time>
      </trkpt>
      <trkpt lat="45.47859" lon="4.64692">
        <ele>425</ele>
        <time>2015-06-07T09:26:09Z</time>
      </trkpt>
      <trkpt lat="45.47859" lon="4.64693">
        <ele>426</ele>
        <time>2015-06-07T09:26:12Z</time>
      </trkpt>
      <trkpt lat="45.4786" lon="4.64692">
        <ele>425</ele>
        <time>2015-06-07T09:26:15Z</time>
      </trkpt>
      <trkpt lat="45.4786" lon="4.64693">
        <ele>425</ele>
        <time>2015-06-07T09:26:18Z</time>
      </trkpt>
      <trkpt lat="45.4786" lon="4.64693">
        <ele>424</ele>
        <time>2015-06-07T09:26:21Z</time>
      </trkpt>
      <trkpt lat="45.47861" lon="4.64693">
        <ele>424</ele>
        <time>2015-06-07T09:26:24Z</time>
      </trkpt>
      <trkpt lat="45.47861" lon="4.64694">
        <ele>424</ele>
        <time>2015-06-07T09:26:28Z</time>
      </trkpt>
      <trkpt lat="45.47861" lon="4.64694">
        <ele>424</ele>
        <time>2015-06-07T09:26:30Z</time>
      </trkpt>
      <trkpt lat="45.47861" lon="4.64694">
        <ele>424</ele>
        <time>2015-06-07T09:26:33Z</time>
      </trkpt>
      <trkpt lat="45.47861" lon="4.64694">
        <ele>424</ele>
        <time>2015-06-07T09:26:36Z</time>
      </trkpt>
      <trkpt lat="45.47861" lon="4.64694">
        <ele>424</ele>
        <time>2015-06-07T09:26:39Z</time>
      </trkpt>
      <trkpt lat="45.47861" lon="4.64694">
        <ele>424</ele>
        <time>2015-06-07T09:26:44Z</time>
      </trkpt>
      <trkpt lat="45.47861" lon="4.64694">
        <ele>424</ele>
        <time>2015-06-07T09:26:45Z</time>
      </trkpt>
      <trkpt lat="45.47861" lon="4.64694">
        <ele>424</ele>
        <time>2015-06-07T09:26:48Z</time>
      </trkpt>
      <trkpt lat="45.47861" lon="4.64694">
        <ele>424</ele>
        <time>2015-06-07T09:26:51Z</time>
      </trkpt>
      <trkpt lat="45.4786" lon="4.64694">
        <ele>425</ele>
        <time>2015-06-07T09:26:54Z</time>
      </trkpt>
      <trkpt lat="45.4786" lon="4.64693">
        <ele>426</ele>
        <time>2015-06-07T09:26:57Z</time>
      </trkpt>
      <trkpt lat="45.47859" lon="4.64688">
        <ele>428</ele>
        <time>2015-06-07T09:27:00Z</time>
      </trkpt>
      <trkpt lat="45.47852" lon="4.64682">
        <ele>429</ele>
        <time>2015-06-07T09:27:05Z</time>
      </trkpt>
      <trkpt lat="45.47847" lon="4.64676">
        <ele>434</ele>
        <time>2015-06-07T09:27:10Z</time>
      </trkpt>
      <trkpt lat="45.47841" lon="4.64673">
        <ele>447</ele>
        <time>2015-06-07T09:27:15Z</time>
      </trkpt>
      <trkpt lat="45.47836" lon="4.64669">
        <ele>454</ele>
        <time>2015-06-07T09:27:20Z</time>
      </trkpt>
      <trkpt lat="45.47826" lon="4.64664">
        <ele>455</ele>
        <time>2015-06-07T09:27:25Z</time>
      </trkpt>
      <trkpt lat="45.47813" lon="4.64656">
        <ele>458</ele>
        <time>2015-06-07T09:27:30Z</time>
      </trkpt>
      <trkpt lat="45.47801" lon="4.64647">
        <ele>458</ele>
        <time>2015-06-07T09:27:36Z</time>
      </trkpt>
      <trkpt lat="45.47781" lon="4.64645">
        <ele>446</ele>
        <time>2015-06-07T09:27:44Z</time>
      </trkpt>
      <trkpt lat="45.4778" lon="4.64644">
        <ele>445</ele>
        <time>2015-06-07T09:27:45Z</time>
      </trkpt>
      <trkpt lat="45.47772" lon="4.64644">
        <ele>451</ele>
        <time>2015-06-07T09:27:50Z</time>
      </trkpt>
      <trkpt lat="45.47759" lon="4.64638">
        <ele>453</ele>
        <time>2015-06-07T09:27:56Z</time>
      </trkpt>
      <trkpt lat="45.47754" lon="4.64632">
        <ele>456</ele>
        <time>2015-06-07T09:28:00Z</time>
      </trkpt>
      <trkpt lat="45.47732" lon="4.64622">
        <ele>454</ele>
        <time>2015-06-07T09:28:09Z</time>
      </trkpt>
      <trkpt lat="45.47727" lon="4.64622">
        <ele>456</ele>
        <time>2015-06-07T09:28:11Z</time>
      </trkpt>
      <trkpt lat="45.4772" lon="4.64619">
        <ele>460</ele>
        <time>2015-06-07T09:28:15Z</time>
      </trkpt>
      <trkpt lat="45.47709" lon="4.64615">
        <ele>468</ele>
        <time>2015-06-07T09:28:21Z</time>
      </trkpt>
      <trkpt lat="45.47702" lon="4.64608">
        <ele>469</ele>
        <time>2015-06-07T09:28:25Z</time>
      </trkpt>
      <trkpt lat="45.47685" lon="4.64596">
        <ele>465</ele>
        <time>2015-06-07T09:28:33Z</time>
      </trkpt>
      <trkpt lat="45.47684" lon="4.64592">
        <ele>468</ele>
        <time>2015-06-07T09:28:35Z</time>
      </trkpt>
      <trkpt lat="45.47672" lon="4.64585">
        <ele>466</ele>
        <time>2015-06-07T09:28:40Z</time>
      </trkpt>
      <trkpt lat="45.47664" lon="4.64572">
        <ele>464</ele>
        <time>2015-06-07T09:28:45Z</time>
      </trkpt>
      <trkpt lat="45.47652" lon="4.64569">
        <ele>467</ele>
        <time>2015-06-07T09:28:50Z</time>
      </trkpt>
      <trkpt lat="45.47647" lon="4.64563">
        <ele>468</ele>
        <time>2015-06-07T09:28:55Z</time>
      </trkpt>
      <trkpt lat="45.47635" lon="4.6456">
        <ele>468</ele>
        <time>2015-06-07T09:29:00Z</time>
      </trkpt>
      <trkpt lat="45.47626" lon="4.64554">
        <ele>467</ele>
        <time>2015-06-07T09:29:05Z</time>
      </trkpt>
      <trkpt lat="45.47616" lon="4.64548">
        <ele>468</ele>
        <time>2015-06-07T09:29:10Z</time>
      </trkpt>
      <trkpt lat="45.47596" lon="4.64529">
        <ele>467</ele>
        <time>2015-06-07T09:29:19Z</time>
      </trkpt>
      <trkpt lat="45.47594" lon="4.64535">
        <ele>472</ele>
        <time>2015-06-07T09:29:20Z</time>
      </trkpt>
      <trkpt lat="45.47574" lon="4.64522">
        <ele>470</ele>
        <time>2015-06-07T09:29:29Z</time>
      </trkpt>
      <trkpt lat="45.47571" lon="4.64523">
        <ele>470</ele>
        <time>2015-06-07T09:29:30Z</time>
      </trkpt>
      <trkpt lat="45.47559" lon="4.64514">
        <ele>472</ele>
        <time>2015-06-07T09:29:37Z</time>
      </trkpt>
      <trkpt lat="45.47552" lon="4.64512">
        <ele>471</ele>
        <time>2015-06-07T09:29:40Z</time>
      </trkpt>
      <trkpt lat="45.47537" lon="4.64502">
        <ele>469</ele>
        <time>2015-06-07T09:29:47Z</time>
      </trkpt>
      <trkpt lat="45.47532" lon="4.64499">
        <ele>470</ele>
        <time>2015-06-07T09:29:50Z</time>
      </trkpt>
      <trkpt lat="45.47524" lon="4.64485">
        <ele>467</ele>
        <time>2015-06-07T09:29:55Z</time>
      </trkpt>
      <trkpt lat="45.47516" lon="4.64478">
        <ele>470</ele>
        <time>2015-06-07T09:30:01Z</time>
      </trkpt>
      <trkpt lat="45.47515" lon="4.64478">
        <ele>482</ele>
        <time>2015-06-07T09:30:05Z</time>
      </trkpt>
      <trkpt lat="45.47507" lon="4.64473">
        <ele>486</ele>
        <time>2015-06-07T09:30:10Z</time>
      </trkpt>
      <trkpt lat="45.47498" lon="4.64466">
        <ele>485</ele>
        <time>2015-06-07T09:30:15Z</time>
      </trkpt>
      <trkpt lat="45.47493" lon="4.64462">
        <ele>494</ele>
        <time>2015-06-07T09:30:20Z</time>
      </trkpt>
      <trkpt lat="45.47486" lon="4.64456">
        <ele>499</ele>
        <time>2015-06-07T09:30:25Z</time>
      </trkpt>
      <trkpt lat="45.47474" lon="4.64447">
        <ele>492</ele>
        <time>2015-06-07T09:30:30Z</time>
      </trkpt>
      <trkpt lat="45.47469" lon="4.64442">
        <ele>491</ele>
        <time>2015-06-07T09:30:35Z</time>
      </trkpt>
      <trkpt lat="45.47465" lon="4.6443">
        <ele>489</ele>
        <time>2015-06-07T09:30:40Z</time>
      </trkpt>
      <trkpt lat="45.4747" lon="4.64424">
        <ele>483</ele>
        <time>2015-06-07T09:30:45Z</time>
      </trkpt>
      <trkpt lat="45.47483" lon="4.64425">
        <ele>484</ele>
        <time>2015-06-07T09:30:53Z</time>
      </trkpt>
      <trkpt lat="45.47486" lon="4.64426">
        <ele>484</ele>
        <time>2015-06-07T09:30:55Z</time>
      </trkpt>
      <trkpt lat="45.47495" lon="4.64432">
        <ele>486</ele>
        <time>2015-06-07T09:31:01Z</time>
      </trkpt>
      <trkpt lat="45.4751" lon="4.64438">
        <ele>487</ele>
        <time>2015-06-07T09:31:08Z</time>
      </trkpt>
      <trkpt lat="45.47515" lon="4.64439">
        <ele>488</ele>
        <time>2015-06-07T09:31:10Z</time>
      </trkpt>
      <trkpt lat="45.47528" lon="4.64439">
        <ele>488</ele>
        <time>2015-06-07T09:31:15Z</time>
      </trkpt>
      <trkpt lat="45.47536" lon="4.64441">
        <ele>489</ele>
        <time>2015-06-07T09:31:20Z</time>
      </trkpt>
      <trkpt lat="45.47549" lon="4.64443">
        <ele>493</ele>
        <time>2015-06-07T09:31:26Z</time>
      </trkpt>
      <trkpt lat="45.4756" lon="4.64441">
        <ele>494</ele>
        <time>2015-06-07T09:31:31Z</time>
      </trkpt>
      <trkpt lat="45.47572" lon="4.64439">
        <ele>498</ele>
        <time>2015-06-07T09:31:36Z</time>
      </trkpt>
      <trkpt lat="45.47589" lon="4.64433">
        <ele>499</ele>
        <time>2015-06-07T09:31:43Z</time>
      </trkpt>
      <trkpt lat="45.47594" lon="4.6443">
        <ele>498</ele>
        <time>2015-06-07T09:31:45Z</time>
      </trkpt>
      <trkpt lat="45.47602" lon="4.64422">
        <ele>499</ele>
        <time>2015-06-07T09:31:50Z</time>
      </trkpt>
      <trkpt lat="45.47613" lon="4.64413">
        <ele>498</ele>
        <time>2015-06-07T09:31:55Z</time>
      </trkpt>
      <trkpt lat="45.47621" lon="4.64403">
        <ele>498</ele>
        <time>2015-06-07T09:32:00Z</time>
      </trkpt>
      <trkpt lat="45.47625" lon="4.6439">
        <ele>498</ele>
        <time>2015-06-07T09:32:05Z</time>
      </trkpt>
      <trkpt lat="45.47629" lon="4.64372">
        <ele>501</ele>
        <time>2015-06-07T09:32:11Z</time>
      </trkpt>
      <trkpt lat="45.4763" lon="4.64356">
        <ele>502</ele>
        <time>2015-06-07T09:32:16Z</time>
      </trkpt>
      <trkpt lat="45.47626" lon="4.64341">
        <ele>504</ele>
        <time>2015-06-07T09:32:21Z</time>
      </trkpt>
      <trkpt lat="45.47624" lon="4.6433">
        <ele>505</ele>
        <time>2015-06-07T09:32:25Z</time>
      </trkpt>
      <trkpt lat="45.47621" lon="4.64315">
        <ele>505</ele>
        <time>2015-06-07T09:32:29Z</time>
      </trkpt>
      <trkpt lat="45.47618" lon="4.64301">
        <ele>504</ele>
        <time>2015-06-07T09:32:35Z</time>
      </trkpt>
      <trkpt lat="45.47614" lon="4.64287">
        <ele>503</ele>
        <time>2015-06-07T09:32:39Z</time>
      </trkpt>
      <trkpt lat="45.47611" lon="4.64272">
        <ele>505</ele>
        <time>2015-06-07T09:32:44Z</time>
      </trkpt>
      <trkpt lat="45.47607" lon="4.64258">
        <ele>505</ele>
        <time>2015-06-07T09:32:49Z</time>
      </trkpt>
      <trkpt lat="45.47604" lon="4.64243">
        <ele>508</ele>
        <time>2015-06-07T09:32:55Z</time>
      </trkpt>
      <trkpt lat="45.47599" lon="4.64223">
        <ele>505</ele>
        <time>2015-06-07T09:33:01Z</time>
      </trkpt>
      <trkpt lat="45.47595" lon="4.6421">
        <ele>504</ele>
        <time>2015-06-07T09:33:04Z</time>
      </trkpt>
      <trkpt lat="45.47591" lon="4.64196">
        <ele>507</ele>
        <time>2015-06-07T09:33:10Z</time>
      </trkpt>
      <trkpt lat="45.47588" lon="4.64182">
        <ele>507</ele>
        <time>2015-06-07T09:33:14Z</time>
      </trkpt>
      <trkpt lat="45.47585" lon="4.64167">
        <ele>505</ele>
        <time>2015-06-07T09:33:20Z</time>
      </trkpt>
      <trkpt lat="45.47581" lon="4.64154">
        <ele>504</ele>
        <time>2015-06-07T09:33:24Z</time>
      </trkpt>
      <trkpt lat="45.47578" lon="4.6414">
        <ele>503</ele>
        <time>2015-06-07T09:33:30Z</time>
      </trkpt>
      <trkpt lat="45.47574" lon="4.64129">
        <ele>502</ele>
        <time>2015-06-07T09:33:35Z</time>
      </trkpt>
      <trkpt lat="45.4757" lon="4.64114">
        <ele>500</ele>
        <time>2015-06-07T09:33:39Z</time>
      </trkpt>
      <trkpt lat="45.47567" lon="4.64097">
        <ele>499</ele>
        <time>2015-06-07T09:33:45Z</time>
      </trkpt>
      <trkpt lat="45.47564" lon="4.64073">
        <ele>500</ele>
        <time>2015-06-07T09:33:54Z</time>
      </trkpt>
      <trkpt lat="45.47563" lon="4.6407">
        <ele>501</ele>
        <time>2015-06-07T09:33:55Z</time>
      </trkpt>
      <trkpt lat="45.47561" lon="4.64051">
        <ele>504</ele>
        <time>2015-06-07T09:34:00Z</time>
      </trkpt>
      <trkpt lat="45.47557" lon="4.64039">
        <ele>503</ele>
        <time>2015-06-07T09:34:05Z</time>
      </trkpt>
      <trkpt lat="45.47552" lon="4.64019">
        <ele>503</ele>
        <time>2015-06-07T09:34:10Z</time>
      </trkpt>
      <trkpt lat="45.47547" lon="4.63996">
        <ele>506</ele>
        <time>2015-06-07T09:34:19Z</time>
      </trkpt>
      <trkpt lat="45.47546" lon="4.63989">
        <ele>506</ele>
        <time>2015-06-07T09:34:20Z</time>
      </trkpt>
      <trkpt lat="45.47545" lon="4.63973">
        <ele>509</ele>
        <time>2015-06-07T09:34:25Z</time>
      </trkpt>
      <trkpt lat="45.47542" lon="4.63961">
        <ele>511</ele>
        <time>2015-06-07T09:34:30Z</time>
      </trkpt>
      <trkpt lat="45.47539" lon="4.63945">
        <ele>509</ele>
        <time>2015-06-07T09:34:34Z</time>
      </trkpt>
      <trkpt lat="45.47534" lon="4.63923">
        <ele>512</ele>
        <time>2015-06-07T09:34:42Z</time>
      </trkpt>
      <trkpt lat="45.47529" lon="4.63908">
        <ele>518</ele>
        <time>2015-06-07T09:34:48Z</time>
      </trkpt>
      <trkpt lat="45.47519" lon="4.63895">
        <ele>517</ele>
        <time>2015-06-07T09:34:54Z</time>
      </trkpt>
      <trkpt lat="45.47517" lon="4.63894">
        <ele>517</ele>
        <time>2015-06-07T09:34:55Z</time>
      </trkpt>
      <trkpt lat="45.47508" lon="4.63887">
        <ele>518</ele>
        <time>2015-06-07T09:34:59Z</time>
      </trkpt>
      <trkpt lat="45.47491" lon="4.63875">
        <ele>521</ele>
        <time>2015-06-07T09:35:07Z</time>
      </trkpt>
      <trkpt lat="45.47482" lon="4.63871">
        <ele>521</ele>
        <time>2015-06-07T09:35:11Z</time>
      </trkpt>
      <trkpt lat="45.47474" lon="4.63869">
        <ele>522</ele>
        <time>2015-06-07T09:35:15Z</time>
      </trkpt>
      <trkpt lat="45.47465" lon="4.63865">
        <ele>525</ele>
        <time>2015-06-07T09:35:19Z</time>
      </trkpt>
      <trkpt lat="45.4744" lon="4.63863">
        <ele>524</ele>
        <time>2015-06-07T09:35:27Z</time>
      </trkpt>
      <trkpt lat="45.47434" lon="4.63862">
        <ele>524</ele>
        <time>2015-06-07T09:35:28Z</time>
      </trkpt>
      <trkpt lat="45.47413" lon="4.63868">
        <ele>524</ele>
        <time>2015-06-07T09:35:35Z</time>
      </trkpt>
      <trkpt lat="45.47404" lon="4.63871">
        <ele>524</ele>
        <time>2015-06-07T09:35:39Z</time>
      </trkpt>
      <trkpt lat="45.4739" lon="4.63875">
        <ele>526</ele>
        <time>2015-06-07T09:35:43Z</time>
      </trkpt>
      <trkpt lat="45.47379" lon="4.63877">
        <ele>531</ele>
        <time>2015-06-07T09:35:49Z</time>
      </trkpt>
      <trkpt lat="45.47366" lon="4.63883">
        <ele>533</ele>
        <time>2015-06-07T09:35:54Z</time>
      </trkpt>
      <trkpt lat="45.47353" lon="4.63887">
        <ele>531</ele>
        <time>2015-06-07T09:35:58Z</time>
      </trkpt>
      <trkpt lat="45.47337" lon="4.63894">
        <ele>536</ele>
        <time>2015-06-07T09:36:05Z</time>
      </trkpt>
      <trkpt lat="45.47329" lon="4.63897">
        <ele>536</ele>
        <time>2015-06-07T09:36:08Z</time>
      </trkpt>
      <trkpt lat="45.47319" lon="4.63902">
        <ele>541</ele>
        <time>2015-06-07T09:36:13Z</time>
      </trkpt>
      <trkpt lat="45.47295" lon="4.63909">
        <ele>541</ele>
        <time>2015-06-07T09:36:22Z</time>
      </trkpt>
      <trkpt lat="45.47292" lon="4.6391">
        <ele>539</ele>
        <time>2015-06-07T09:36:23Z</time>
      </trkpt>
      <trkpt lat="45.47281" lon="4.63904">
        <ele>543</ele>
        <time>2015-06-07T09:36:28Z</time>
      </trkpt>
      <trkpt lat="45.47269" lon="4.63893">
        <ele>544</ele>
        <time>2015-06-07T09:36:33Z</time>
      </trkpt>
      <trkpt lat="45.47251" lon="4.63867">
        <ele>546</ele>
        <time>2015-06-07T09:36:43Z</time>
      </trkpt>
      <trkpt lat="45.47248" lon="4.63863">
        <ele>546</ele>
        <time>2015-06-07T09:36:44Z</time>
      </trkpt>
      <trkpt lat="45.47233" lon="4.63843">
        <ele>546</ele>
        <time>2015-06-07T09:36:49Z</time>
      </trkpt>
      <trkpt lat="45.47219" lon="4.63823">
        <ele>548</ele>
        <time>2015-06-07T09:36:54Z</time>
      </trkpt>
      <trkpt lat="45.47197" lon="4.63798">
        <ele>546</ele>
        <time>2015-06-07T09:37:00Z</time>
      </trkpt>
      <trkpt lat="45.4718" lon="4.63787">
        <ele>548</ele>
        <time>2015-06-07T09:37:03Z</time>
      </trkpt>
      <trkpt lat="45.47156" lon="4.63771">
        <ele>549</ele>
        <time>2015-06-07T09:37:09Z</time>
      </trkpt>
      <trkpt lat="45.4713" lon="4.63758">
        <ele>550</ele>
        <time>2015-06-07T09:37:13Z</time>
      </trkpt>
      <trkpt lat="45.47103" lon="4.63746">
        <ele>547</ele>
        <time>2015-06-07T09:37:18Z</time>
      </trkpt>
      <trkpt lat="45.47059" lon="4.6373">
        <ele>544</ele>
        <time>2015-06-07T09:37:26Z</time>
      </trkpt>
      <trkpt lat="45.4704" lon="4.63722">
        <ele>543</ele>
        <time>2015-06-07T09:37:28Z</time>
      </trkpt>
      <trkpt lat="45.47007" lon="4.63701">
        <ele>543</ele>
        <time>2015-06-07T09:37:34Z</time>
      </trkpt>
      <trkpt lat="45.46958" lon="4.63667">
        <ele>538</ele>
        <time>2015-06-07T09:37:40Z</time>
      </trkpt>
      <trkpt lat="45.4693" lon="4.63651">
        <ele>537</ele>
        <time>2015-06-07T09:37:43Z</time>
      </trkpt>
      <trkpt lat="45.46899" lon="4.63622">
        <ele>534</ele>
        <time>2015-06-07T09:37:49Z</time>
      </trkpt>
      <trkpt lat="45.46871" lon="4.63582">
        <ele>538</ele>
        <time>2015-06-07T09:37:55Z</time>
      </trkpt>
      <trkpt lat="45.46857" lon="4.63555">
        <ele>539</ele>
        <time>2015-06-07T09:37:59Z</time>
      </trkpt>
      <trkpt lat="45.46843" lon="4.63525">
        <ele>539</ele>
        <time>2015-06-07T09:38:03Z</time>
      </trkpt>
      <trkpt lat="45.46822" lon="4.63506">
        <ele>535</ele>
        <time>2015-06-07T09:38:08Z</time>
      </trkpt>
      <trkpt lat="45.46806" lon="4.63471">
        <ele>537</ele>
        <time>2015-06-07T09:38:16Z</time>
      </trkpt>
      <trkpt lat="45.468" lon="4.63463">
        <ele>538</ele>
        <time>2015-06-07T09:38:18Z</time>
      </trkpt>
      <trkpt lat="45.46782" lon="4.6344">
        <ele>540</ele>
        <time>2015-06-07T09:38:25Z</time>
      </trkpt>
      <trkpt lat="45.46774" lon="4.63433">
        <ele>541</ele>
        <time>2015-06-07T09:38:29Z</time>
      </trkpt>
      <trkpt lat="45.4676" lon="4.6342">
        <ele>544</ele>
        <time>2015-06-07T09:38:33Z</time>
      </trkpt>
      <trkpt lat="45.46742" lon="4.63412">
        <ele>542</ele>
        <time>2015-06-07T09:38:38Z</time>
      </trkpt>
      <trkpt lat="45.46725" lon="4.63402">
        <ele>542</ele>
        <time>2015-06-07T09:38:44Z</time>
      </trkpt>
      <trkpt lat="45.46709" lon="4.63396">
        <ele>541</ele>
        <time>2015-06-07T09:38:49Z</time>
      </trkpt>
      <trkpt lat="45.46689" lon="4.63393">
        <ele>539</ele>
        <time>2015-06-07T09:38:54Z</time>
      </trkpt>
      <trkpt lat="45.46664" lon="4.63387">
        <ele>540</ele>
        <time>2015-06-07T09:39:02Z</time>
      </trkpt>
      <trkpt lat="45.46654" lon="4.63383">
        <ele>541</ele>
        <time>2015-06-07T09:39:05Z</time>
      </trkpt>
      <trkpt lat="45.46641" lon="4.6338">
        <ele>543</ele>
        <time>2015-06-07T09:39:09Z</time>
      </trkpt>
      <trkpt lat="45.46626" lon="4.63375">
        <ele>544</ele>
        <time>2015-06-07T09:39:13Z</time>
      </trkpt>
      <trkpt lat="45.46611" lon="4.63366">
        <ele>547</ele>
        <time>2015-06-07T09:39:19Z</time>
      </trkpt>
      <trkpt lat="45.46598" lon="4.63355">
        <ele>550</ele>
        <time>2015-06-07T09:39:24Z</time>
      </trkpt>
      <trkpt lat="45.46583" lon="4.63341">
        <ele>553</ele>
        <time>2015-06-07T09:39:29Z</time>
      </trkpt>
      <trkpt lat="45.4657" lon="4.63327">
        <ele>555</ele>
        <time>2015-06-07T09:39:33Z</time>
      </trkpt>
      <trkpt lat="45.46554" lon="4.63316">
        <ele>556</ele>
        <time>2015-06-07T09:39:39Z</time>
      </trkpt>
      <trkpt lat="45.46539" lon="4.63305">
        <ele>556</ele>
        <time>2015-06-07T09:39:43Z</time>
      </trkpt>
      <trkpt lat="45.46523" lon="4.63296">
        <ele>558</ele>
        <time>2015-06-07T09:39:49Z</time>
      </trkpt>
      <trkpt lat="45.46511" lon="4.63291">
        <ele>561</ele>
        <time>2015-06-07T09:39:55Z</time>
      </trkpt>
      <trkpt lat="45.46499" lon="4.63285">
        <ele>561</ele>
        <time>2015-06-07T09:39:58Z</time>
      </trkpt>
      <trkpt lat="45.46478" lon="4.63269">
        <ele>566</ele>
        <time>2015-06-07T09:40:07Z</time>
      </trkpt>
      <trkpt lat="45.46476" lon="4.63262">
        <ele>570</ele>
        <time>2015-06-07T09:40:09Z</time>
      </trkpt>
      <trkpt lat="45.46474" lon="4.63231">
        <ele>571</ele>
        <time>2015-06-07T09:40:16Z</time>
      </trkpt>
      <trkpt lat="45.46476" lon="4.63223">
        <ele>573</ele>
        <time>2015-06-07T09:40:19Z</time>
      </trkpt>
      <trkpt lat="45.46488" lon="4.63192">
        <ele>571</ele>
        <time>2015-06-07T09:40:26Z</time>
      </trkpt>
      <trkpt lat="45.46503" lon="4.63168">
        <ele>574</ele>
        <time>2015-06-07T09:40:32Z</time>
      </trkpt>
      <trkpt lat="45.46505" lon="4.63164">
        <ele>573</ele>
        <time>2015-06-07T09:40:33Z</time>
      </trkpt>
      <trkpt lat="45.46524" lon="4.63133">
        <ele>575</ele>
        <time>2015-06-07T09:40:40Z</time>
      </trkpt>
      <trkpt lat="45.4653" lon="4.63104">
        <ele>572</ele>
        <time>2015-06-07T09:40:47Z</time>
      </trkpt>
      <trkpt lat="45.46531" lon="4.63094">
        <ele>571</ele>
        <time>2015-06-07T09:40:49Z</time>
      </trkpt>
      <trkpt lat="45.4653" lon="4.63077">
        <ele>572</ele>
        <time>2015-06-07T09:40:52Z</time>
      </trkpt>
      <trkpt lat="45.46526" lon="4.63052">
        <ele>574</ele>
        <time>2015-06-07T09:40:59Z</time>
      </trkpt>
      <trkpt lat="45.46521" lon="4.63035">
        <ele>572</ele>
        <time>2015-06-07T09:41:02Z</time>
      </trkpt>
      <trkpt lat="45.46514" lon="4.63017">
        <ele>573</ele>
        <time>2015-06-07T09:41:07Z</time>
      </trkpt>
      <trkpt lat="45.46507" lon="4.63">
        <ele>574</ele>
        <time>2015-06-07T09:41:13Z</time>
      </trkpt>
      <trkpt lat="45.46501" lon="4.62982">
        <ele>574</ele>
        <time>2015-06-07T09:41:18Z</time>
      </trkpt>
      <trkpt lat="45.46495" lon="4.62959">
        <ele>573</ele>
        <time>2015-06-07T09:41:22Z</time>
      </trkpt>
      <trkpt lat="45.46487" lon="4.62934">
        <ele>571</ele>
        <time>2015-06-07T09:41:28Z</time>
      </trkpt>
      <trkpt lat="45.46486" lon="4.62919">
        <ele>574</ele>
        <time>2015-06-07T09:41:33Z</time>
      </trkpt>
      <trkpt lat="45.46485" lon="4.629">
        <ele>578</ele>
        <time>2015-06-07T09:41:38Z</time>
      </trkpt>
      <trkpt lat="45.46482" lon="4.62881">
        <ele>581</ele>
        <time>2015-06-07T09:41:43Z</time>
      </trkpt>
      <trkpt lat="45.46479" lon="4.6286">
        <ele>582</ele>
        <time>2015-06-07T09:41:48Z</time>
      </trkpt>
      <trkpt lat="45.46472" lon="4.62839">
        <ele>580</ele>
        <time>2015-06-07T09:41:52Z</time>
      </trkpt>
      <trkpt lat="45.46464" lon="4.62822">
        <ele>583</ele>
        <time>2015-06-07T09:41:58Z</time>
      </trkpt>
      <trkpt lat="45.46453" lon="4.62804">
        <ele>585</ele>
        <time>2015-06-07T09:42:03Z</time>
      </trkpt>
      <trkpt lat="45.46437" lon="4.62787">
        <ele>579</ele>
        <time>2015-06-07T09:42:07Z</time>
      </trkpt>
      <trkpt lat="45.46424" lon="4.62772">
        <ele>577</ele>
        <time>2015-06-07T09:42:13Z</time>
      </trkpt>
      <trkpt lat="45.46408" lon="4.62752">
        <ele>584</ele>
        <time>2015-06-07T09:42:20Z</time>
      </trkpt>
      <trkpt lat="45.46402" lon="4.62746">
        <ele>582</ele>
        <time>2015-06-07T09:42:22Z</time>
      </trkpt>
      <trkpt lat="45.46386" lon="4.62729">
        <ele>584</ele>
        <time>2015-06-07T09:42:29Z</time>
      </trkpt>
      <trkpt lat="45.46375" lon="4.62723">
        <ele>585</ele>
        <time>2015-06-07T09:42:32Z</time>
      </trkpt>
      <trkpt lat="45.46352" lon="4.62713">
        <ele>582</ele>
        <time>2015-06-07T09:42:40Z</time>
      </trkpt>
      <trkpt lat="45.46343" lon="4.62708">
        <ele>579</ele>
        <time>2015-06-07T09:42:42Z</time>
      </trkpt>
      <trkpt lat="45.46323" lon="4.62707">
        <ele>576</ele>
        <time>2015-06-07T09:42:48Z</time>
      </trkpt>
      <trkpt lat="45.46311" lon="4.62711">
        <ele>577</ele>
        <time>2015-06-07T09:42:52Z</time>
      </trkpt>
      <trkpt lat="45.46295" lon="4.62721">
        <ele>581</ele>
        <time>2015-06-07T09:43:00Z</time>
      </trkpt>
      <trkpt lat="45.46287" lon="4.62725">
        <ele>583</ele>
        <time>2015-06-07T09:43:03Z</time>
      </trkpt>
      <trkpt lat="45.46276" lon="4.62738">
        <ele>584</ele>
        <time>2015-06-07T09:43:07Z</time>
      </trkpt>
      <trkpt lat="45.46255" lon="4.62768">
        <ele>565</ele>
        <time>2015-06-07T09:43:16Z</time>
      </trkpt>
      <trkpt lat="45.46253" lon="4.62772">
        <ele>570</ele>
        <time>2015-06-07T09:43:17Z</time>
      </trkpt>
      <trkpt lat="45.46244" lon="4.62785">
        <ele>580</ele>
        <time>2015-06-07T09:43:23Z</time>
      </trkpt>
      <trkpt lat="45.46234" lon="4.62795">
        <ele>585</ele>
        <time>2015-06-07T09:43:28Z</time>
      </trkpt>
      <trkpt lat="45.4622" lon="4.62803">
        <ele>588</ele>
        <time>2015-06-07T09:43:33Z</time>
      </trkpt>
      <trkpt lat="45.46211" lon="4.62811">
        <ele>589</ele>
        <time>2015-06-07T09:43:38Z</time>
      </trkpt>
      <trkpt lat="45.46202" lon="4.62813">
        <ele>593</ele>
        <time>2015-06-07T09:43:43Z</time>
      </trkpt>
      <trkpt lat="45.46192" lon="4.62798">
        <ele>595</ele>
        <time>2015-06-07T09:43:47Z</time>
      </trkpt>
      <trkpt lat="45.46186" lon="4.62779">
        <ele>601</ele>
        <time>2015-06-07T09:43:53Z</time>
      </trkpt>
      <trkpt lat="45.46181" lon="4.62752">
        <ele>603</ele>
        <time>2015-06-07T09:44:01Z</time>
      </trkpt>
      <trkpt lat="45.46183" lon="4.62731">
        <ele>606</ele>
        <time>2015-06-07T09:44:06Z</time>
      </trkpt>
      <trkpt lat="45.46183" lon="4.62718">
        <ele>604</ele>
        <time>2015-06-07T09:44:10Z</time>
      </trkpt>
      <trkpt lat="45.46186" lon="4.62706">
        <ele>607</ele>
        <time>2015-06-07T09:44:14Z</time>
      </trkpt>
      <trkpt lat="45.4619" lon="4.62696">
        <ele>609</ele>
        <time>2015-06-07T09:44:17Z</time>
      </trkpt>
      <trkpt lat="45.46192" lon="4.6268">
        <ele>608</ele>
        <time>2015-06-07T09:44:22Z</time>
      </trkpt>
      <trkpt lat="45.46197" lon="4.62661">
        <ele>613</ele>
        <time>2015-06-07T09:44:27Z</time>
      </trkpt>
      <trkpt lat="45.46203" lon="4.62641">
        <ele>613</ele>
        <time>2015-06-07T09:44:32Z</time>
      </trkpt>
      <trkpt lat="45.46215" lon="4.62604">
        <ele>614</ele>
        <time>2015-06-07T09:44:42Z</time>
      </trkpt>
      <trkpt lat="45.46216" lon="4.62601">
        <ele>614</ele>
        <time>2015-06-07T09:44:42Z</time>
      </trkpt>
      <trkpt lat="45.4622" lon="4.62585">
        <ele>619</ele>
        <time>2015-06-07T09:44:48Z</time>
      </trkpt>
      <trkpt lat="45.46225" lon="4.62564">
        <ele>624</ele>
        <time>2015-06-07T09:44:54Z</time>
      </trkpt>
      <trkpt lat="45.46222" lon="4.6254">
        <ele>621</ele>
        <time>2015-06-07T09:45:01Z</time>
      </trkpt>
      <trkpt lat="45.46219" lon="4.62522">
        <ele>623</ele>
        <time>2015-06-07T09:45:06Z</time>
      </trkpt>
      <trkpt lat="45.46214" lon="4.62514">
        <ele>622</ele>
        <time>2015-06-07T09:45:08Z</time>
      </trkpt>
      <trkpt lat="45.46206" lon="4.62494">
        <ele>623</ele>
        <time>2015-06-07T09:45:14Z</time>
      </trkpt>
      <trkpt lat="45.46201" lon="4.62481">
        <ele>619</ele>
        <time>2015-06-07T09:45:18Z</time>
      </trkpt>
      <trkpt lat="45.46189" lon="4.6245">
        <ele>621</ele>
        <time>2015-06-07T09:45:26Z</time>
      </trkpt>
      <trkpt lat="45.46186" lon="4.62441">
        <ele>621</ele>
        <time>2015-06-07T09:45:28Z</time>
      </trkpt>
      <trkpt lat="45.46184" lon="4.62422">
        <ele>622</ele>
        <time>2015-06-07T09:45:33Z</time>
      </trkpt>
      <trkpt lat="45.46171" lon="4.62397">
        <ele>622</ele>
        <time>2015-06-07T09:45:41Z</time>
      </trkpt>
      <trkpt lat="45.46166" lon="4.62391">
        <ele>623</ele>
        <time>2015-06-07T09:45:43Z</time>
      </trkpt>
      <trkpt lat="45.4615" lon="4.62365">
        <ele>625</ele>
        <time>2015-06-07T09:45:51Z</time>
      </trkpt>
      <trkpt lat="45.46146" lon="4.62358">
        <ele>623</ele>
        <time>2015-06-07T09:45:53Z</time>
      </trkpt>
      <trkpt lat="45.46134" lon="4.62341">
        <ele>623</ele>
        <time>2015-06-07T09:45:58Z</time>
      </trkpt>
      <trkpt lat="45.46125" lon="4.62327">
        <ele>625</ele>
        <time>2015-06-07T09:46:03Z</time>
      </trkpt>
      <trkpt lat="45.46115" lon="4.62315">
        <ele>623</ele>
        <time>2015-06-07T09:46:08Z</time>
      </trkpt>
      <trkpt lat="45.46105" lon="4.62298">
        <ele>624</ele>
        <time>2015-06-07T09:46:13Z</time>
      </trkpt>
      <trkpt lat="45.46099" lon="4.62274">
        <ele>625</ele>
        <time>2015-06-07T09:46:19Z</time>
      </trkpt>
      <trkpt lat="45.46099" lon="4.6226">
        <ele>626</ele>
        <time>2015-06-07T09:46:23Z</time>
      </trkpt>
      <trkpt lat="45.46106" lon="4.62243">
        <ele>627</ele>
        <time>2015-06-07T09:46:28Z</time>
      </trkpt>
      <trkpt lat="45.4611" lon="4.62223">
        <ele>625</ele>
        <time>2015-06-07T09:46:33Z</time>
      </trkpt>
      <trkpt lat="45.46113" lon="4.62205">
        <ele>628</ele>
        <time>2015-06-07T09:46:38Z</time>
      </trkpt>
      <trkpt lat="45.46116" lon="4.62186">
        <ele>626</ele>
        <time>2015-06-07T09:46:43Z</time>
      </trkpt>
      <trkpt lat="45.46118" lon="4.62171">
        <ele>628</ele>
        <time>2015-06-07T09:46:48Z</time>
      </trkpt>
      <trkpt lat="45.46122" lon="4.62157">
        <ele>630</ele>
        <time>2015-06-07T09:46:53Z</time>
      </trkpt>
      <trkpt lat="45.4613" lon="4.62139">
        <ele>631</ele>
        <time>2015-06-07T09:46:59Z</time>
      </trkpt>
      <trkpt lat="45.46135" lon="4.62127">
        <ele>631</ele>
        <time>2015-06-07T09:47:03Z</time>
      </trkpt>
      <trkpt lat="45.46144" lon="4.62117">
        <ele>631</ele>
        <time>2015-06-07T09:47:08Z</time>
      </trkpt>
      <trkpt lat="45.46158" lon="4.62108">
        <ele>630</ele>
        <time>2015-06-07T09:47:15Z</time>
      </trkpt>
      <trkpt lat="45.46164" lon="4.62104">
        <ele>630</ele>
        <time>2015-06-07T09:47:17Z</time>
      </trkpt>
      <trkpt lat="45.46175" lon="4.62102">
        <ele>630</ele>
        <time>2015-06-07T09:47:22Z</time>
      </trkpt>
      <trkpt lat="45.46186" lon="4.62098">
        <ele>632</ele>
        <time>2015-06-07T09:47:27Z</time>
      </trkpt>
      <trkpt lat="45.46198" lon="4.62093">
        <ele>632</ele>
        <time>2015-06-07T09:47:32Z</time>
      </trkpt>
      <trkpt lat="45.4621" lon="4.62089">
        <ele>633</ele>
        <time>2015-06-07T09:47:39Z</time>
      </trkpt>
      <trkpt lat="45.46221" lon="4.62091">
        <ele>633</ele>
        <time>2015-06-07T09:47:43Z</time>
      </trkpt>
      <trkpt lat="45.46234" lon="4.6209">
        <ele>630</ele>
        <time>2015-06-07T09:47:48Z</time>
      </trkpt>
      <trkpt lat="45.4625" lon="4.62091">
        <ele>637</ele>
        <time>2015-06-07T09:47:55Z</time>
      </trkpt>
      <trkpt lat="45.46257" lon="4.62089">
        <ele>636</ele>
        <time>2015-06-07T09:47:57Z</time>
      </trkpt>
      <trkpt lat="45.46277" lon="4.62094">
        <ele>634</ele>
        <time>2015-06-07T09:48:07Z</time>
      </trkpt>
      <trkpt lat="45.46288" lon="4.62096">
        <ele>635</ele>
        <time>2015-06-07T09:48:11Z</time>
      </trkpt>
      <trkpt lat="45.46292" lon="4.62097">
        <ele>634</ele>
        <time>2015-06-07T09:48:12Z</time>
      </trkpt>
      <trkpt lat="45.46301" lon="4.6209">
        <ele>638</ele>
        <time>2015-06-07T09:48:18Z</time>
      </trkpt>
      <trkpt lat="45.46299" lon="4.62079">
        <ele>637</ele>
        <time>2015-06-07T09:48:22Z</time>
      </trkpt>
      <trkpt lat="45.46289" lon="4.62077">
        <ele>636</ele>
        <time>2015-06-07T09:48:28Z</time>
      </trkpt>
      <trkpt lat="45.4628" lon="4.62076">
        <ele>638</ele>
        <time>2015-06-07T09:48:33Z</time>
      </trkpt>
      <trkpt lat="45.46271" lon="4.62068">
        <ele>639</ele>
        <time>2015-06-07T09:48:41Z</time>
      </trkpt>
      <trkpt lat="45.46264" lon="4.62064">
        <ele>639</ele>
        <time>2015-06-07T09:48:44Z</time>
      </trkpt>
      <trkpt lat="45.46248" lon="4.62054">
        <ele>645</ele>
        <time>2015-06-07T09:48:52Z</time>
      </trkpt>
      <trkpt lat="45.46245" lon="4.62052">
        <ele>648</ele>
        <time>2015-06-07T09:48:53Z</time>
      </trkpt>
      <trkpt lat="45.46231" lon="4.62049">
        <ele>649</ele>
        <time>2015-06-07T09:48:59Z</time>
      </trkpt>
      <trkpt lat="45.46218" lon="4.62046">
        <ele>648</ele>
        <time>2015-06-07T09:49:02Z</time>
      </trkpt>
      <trkpt lat="45.46208" lon="4.62042">
        <ele>649</ele>
        <time>2015-06-07T09:49:07Z</time>
      </trkpt>
      <trkpt lat="45.46197" lon="4.62032">
        <ele>652</ele>
        <time>2015-06-07T09:49:13Z</time>
      </trkpt>
      <trkpt lat="45.46182" lon="4.62022">
        <ele>653</ele>
        <time>2015-06-07T09:49:21Z</time>
      </trkpt>
      <trkpt lat="45.46176" lon="4.62019">
        <ele>652</ele>
        <time>2015-06-07T09:49:23Z</time>
      </trkpt>
      <trkpt lat="45.46165" lon="4.62014">
        <ele>654</ele>
        <time>2015-06-07T09:49:27Z</time>
      </trkpt>
      <trkpt lat="45.46152" lon="4.62006">
        <ele>655</ele>
        <time>2015-06-07T09:49:33Z</time>
      </trkpt>
      <trkpt lat="45.46136" lon="4.62001">
        <ele>652</ele>
        <time>2015-06-07T09:49:38Z</time>
      </trkpt>
      <trkpt lat="45.46119" lon="4.61994">
        <ele>654</ele>
        <time>2015-06-07T09:49:46Z</time>
      </trkpt>
      <trkpt lat="45.46113" lon="4.61997">
        <ele>657</ele>
        <time>2015-06-07T09:49:47Z</time>
      </trkpt>
      <trkpt lat="45.46093" lon="4.6199">
        <ele>660</ele>
        <time>2015-06-07T09:49:55Z</time>
      </trkpt>
      <trkpt lat="45.46089" lon="4.61989">
        <ele>660</ele>
        <time>2015-06-07T09:49:57Z</time>
      </trkpt>
      <trkpt lat="45.46079" lon="4.61982">
        <ele>668</ele>
        <time>2015-06-07T09:50:05Z</time>
      </trkpt>
      <trkpt lat="45.46071" lon="4.61978">
        <ele>667</ele>
        <time>2015-06-07T09:50:08Z</time>
      </trkpt>
      <trkpt lat="45.46056" lon="4.61966">
        <ele>664</ele>
        <time>2015-06-07T09:50:16Z</time>
      </trkpt>
      <trkpt lat="45.46055" lon="4.61965">
        <ele>661</ele>
        <time>2015-06-07T09:50:20Z</time>
      </trkpt>
      <trkpt lat="45.46056" lon="4.61965">
        <ele>662</ele>
        <time>2015-06-07T09:50:24Z</time>
      </trkpt>
      <trkpt lat="45.46056" lon="4.61964">
        <ele>662</ele>
        <time>2015-06-07T09:50:27Z</time>
      </trkpt>
      <trkpt lat="45.46057" lon="4.61964">
        <ele>662</ele>
        <time>2015-06-07T09:50:30Z</time>
      </trkpt>
      <trkpt lat="45.46056" lon="4.61964">
        <ele>662</ele>
        <time>2015-06-07T09:50:31Z</time>
      </trkpt>
      <trkpt lat="45.46057" lon="4.61964">
        <ele>662</ele>
        <time>2015-06-07T09:50:35Z</time>
      </trkpt>
      <trkpt lat="45.46057" lon="4.61964">
        <ele>662</ele>
        <time>2015-06-07T09:50:37Z</time>
      </trkpt>
      <trkpt lat="45.46057" lon="4.61964">
        <ele>662</ele>
        <time>2015-06-07T09:50:41Z</time>
      </trkpt>
      <trkpt lat="45.46057" lon="4.61964">
        <ele>662</ele>
        <time>2015-06-07T09:50:46Z</time>
      </trkpt>
      <trkpt lat="45.46057" lon="4.61964">
        <ele>662</ele>
        <time>2015-06-07T09:50:47Z</time>
      </trkpt>
      <trkpt lat="45.46057" lon="4.61964">
        <ele>662</ele>
        <time>2015-06-07T09:50:50Z</time>
      </trkpt>
      <trkpt lat="45.46057" lon="4.61964">
        <ele>662</ele>
        <time>2015-06-07T09:50:52Z</time>
      </trkpt>
      <trkpt lat="45.46057" lon="4.61964">
        <ele>662</ele>
        <time>2015-06-07T09:50:56Z</time>
      </trkpt>
      <trkpt lat="45.46057" lon="4.61964">
        <ele>662</ele>
        <time>2015-06-07T09:50:59Z</time>
      </trkpt>
      <trkpt lat="45.46057" lon="4.61965">
        <ele>661</ele>
        <time>2015-06-07T09:51:04Z</time>
      </trkpt>
      <trkpt lat="45.46055" lon="4.61964">
        <ele>659</ele>
        <time>2015-06-07T09:51:09Z</time>
      </trkpt>
      <trkpt lat="45.46055" lon="4.61964">
        <ele>659</ele>
        <time>2015-06-07T09:51:10Z</time>
      </trkpt>
      <trkpt lat="45.46055" lon="4.61964">
        <ele>659</ele>
        <time>2015-06-07T09:51:13Z</time>
      </trkpt>
      <trkpt lat="45.46055" lon="4.61964">
        <ele>659</ele>
        <time>2015-06-07T09:51:16Z</time>
      </trkpt>
      <trkpt lat="45.46055" lon="4.61965">
        <ele>658</ele>
        <time>2015-06-07T09:51:19Z</time>
      </trkpt>
      <trkpt lat="45.46055" lon="4.61965">
        <ele>656</ele>
        <time>2015-06-07T09:51:24Z</time>
      </trkpt>
      <trkpt lat="45.46055" lon="4.61965">
        <ele>656</ele>
        <time>2015-06-07T09:51:27Z</time>
      </trkpt>
      <trkpt lat="45.46054" lon="4.61966">
        <ele>655</ele>
        <time>2015-06-07T09:51:30Z</time>
      </trkpt>
      <trkpt lat="45.46054" lon="4.61966">
        <ele>655</ele>
        <time>2015-06-07T09:51:33Z</time>
      </trkpt>
      <trkpt lat="45.46054" lon="4.61966">
        <ele>655</ele>
        <time>2015-06-07T09:51:36Z</time>
      </trkpt>
      <trkpt lat="45.46054" lon="4.61966">
        <ele>655</ele>
        <time>2015-06-07T09:51:39Z</time>
      </trkpt>
      <trkpt lat="45.46054" lon="4.61966">
        <ele>656</ele>
        <time>2015-06-07T09:51:42Z</time>
      </trkpt>
      <trkpt lat="45.46054" lon="4.61966">
        <ele>656</ele>
        <time>2015-06-07T09:51:45Z</time>
      </trkpt>
      <trkpt lat="45.46055" lon="4.61966">
        <ele>654</ele>
        <time>2015-06-07T09:51:50Z</time>
      </trkpt>
      <trkpt lat="45.46055" lon="4.61966">
        <ele>655</ele>
        <time>2015-06-07T09:51:51Z</time>
      </trkpt>
      <trkpt lat="45.46055" lon="4.61966">
        <ele>655</ele>
        <time>2015-06-07T09:51:54Z</time>
      </trkpt>
      <trkpt lat="45.46055" lon="4.61967">
        <ele>656</ele>
        <time>2015-06-07T09:51:57Z</time>
      </trkpt>
      <trkpt lat="45.46055" lon="4.61967">
        <ele>655</ele>
        <time>2015-06-07T09:52:00Z</time>
      </trkpt>
      <trkpt lat="45.46055" lon="4.61967">
        <ele>655</ele>
        <time>2015-06-07T09:52:03Z</time>
      </trkpt>
      <trkpt lat="45.46055" lon="4.61967">
        <ele>655</ele>
        <time>2015-06-07T09:52:07Z</time>
      </trkpt>
      <trkpt lat="45.46054" lon="4.61967">
        <ele>655</ele>
        <time>2015-06-07T09:52:09Z</time>
      </trkpt>
      <trkpt lat="45.46054" lon="4.61968">
        <ele>656</ele>
        <time>2015-06-07T09:52:15Z</time>
      </trkpt>
      <trkpt lat="45.46055" lon="4.61968">
        <ele>657</ele>
        <time>2015-06-07T09:52:19Z</time>
      </trkpt>
      <trkpt lat="45.46055" lon="4.61968">
        <ele>657</ele>
        <time>2015-06-07T09:52:22Z</time>
      </trkpt>
      <trkpt lat="45.46055" lon="4.61968">
        <ele>657</ele>
        <time>2015-06-07T09:52:23Z</time>
      </trkpt>
      <trkpt lat="45.46055" lon="4.61968">
        <ele>657</ele>
        <time>2015-06-07T09:52:26Z</time>
      </trkpt>
      <trkpt lat="45.46055" lon="4.61968">
        <ele>657</ele>
        <time>2015-06-07T09:52:30Z</time>
      </trkpt>
      <trkpt lat="45.46053" lon="4.61967">
        <ele>657</ele>
        <time>2015-06-07T09:52:33Z</time>
      </trkpt>
      <trkpt lat="45.46038" lon="4.61965">
        <ele>657</ele>
        <time>2015-06-07T09:52:40Z</time>
      </trkpt>
      <trkpt lat="45.46036" lon="4.61967">
        <ele>657</ele>
        <time>2015-06-07T09:52:42Z</time>
      </trkpt>
      <trkpt lat="45.46033" lon="4.61981">
        <ele>657</ele>
        <time>2015-06-07T09:52:46Z</time>
      </trkpt>
      <trkpt lat="45.46037" lon="4.61999">
        <ele>658</ele>
        <time>2015-06-07T09:52:51Z</time>
      </trkpt>
      <trkpt lat="45.46041" lon="4.62021">
        <ele>658</ele>
        <time>2015-06-07T09:52:56Z</time>
      </trkpt>
      <trkpt lat="45.46041" lon="4.62041">
        <ele>658</ele>
        <time>2015-06-07T09:53:01Z</time>
      </trkpt>
      <trkpt lat="45.46039" lon="4.62065">
        <ele>659</ele>
        <time>2015-06-07T09:53:07Z</time>
      </trkpt>
      <trkpt lat="45.46032" lon="4.62089">
        <ele>659</ele>
        <time>2015-06-07T09:53:11Z</time>
      </trkpt>
      <trkpt lat="45.46024" lon="4.62114">
        <ele>659</ele>
        <time>2015-06-07T09:53:16Z</time>
      </trkpt>
      <trkpt lat="45.46016" lon="4.62139">
        <ele>660</ele>
        <time>2015-06-07T09:53:22Z</time>
      </trkpt>
      <trkpt lat="45.46005" lon="4.62171">
        <ele>660</ele>
        <time>2015-06-07T09:53:27Z</time>
      </trkpt>
      <trkpt lat="45.46001" lon="4.62182">
        <ele>662</ele>
        <time>2015-06-07T09:53:30Z</time>
      </trkpt>
      <trkpt lat="45.45995" lon="4.6221">
        <ele>663</ele>
        <time>2015-06-07T09:53:36Z</time>
      </trkpt>
      <trkpt lat="45.4599" lon="4.62257">
        <ele>669</ele>
        <time>2015-06-07T09:53:44Z</time>
      </trkpt>
      <trkpt lat="45.45991" lon="4.62272">
        <ele>668</ele>
        <time>2015-06-07T09:53:45Z</time>
      </trkpt>
      <trkpt lat="45.45993" lon="4.6231">
        <ele>665</ele>
        <time>2015-06-07T09:53:50Z</time>
      </trkpt>
      <trkpt lat="45.45996" lon="4.62342">
        <ele>665</ele>
        <time>2015-06-07T09:53:55Z</time>
      </trkpt>
      <trkpt lat="45.46004" lon="4.62402">
        <ele>671</ele>
        <time>2015-06-07T09:54:05Z</time>
      </trkpt>
      <trkpt lat="45.46005" lon="4.62409">
        <ele>671</ele>
        <time>2015-06-07T09:54:06Z</time>
      </trkpt>
      <trkpt lat="45.4601" lon="4.62446">
        <ele>670</ele>
        <time>2015-06-07T09:54:10Z</time>
      </trkpt>
      <trkpt lat="45.46015" lon="4.62479">
        <ele>670</ele>
        <time>2015-06-07T09:54:15Z</time>
      </trkpt>
      <trkpt lat="45.46021" lon="4.62502">
        <ele>676</ele>
        <time>2015-06-07T09:54:21Z</time>
      </trkpt>
      <trkpt lat="45.46025" lon="4.6254">
        <ele>684</ele>
        <time>2015-06-07T09:54:27Z</time>
      </trkpt>
      <trkpt lat="45.46021" lon="4.62572">
        <ele>684</ele>
        <time>2015-06-07T09:54:31Z</time>
      </trkpt>
      <trkpt lat="45.45997" lon="4.62616">
        <ele>683</ele>
        <time>2015-06-07T09:54:38Z</time>
      </trkpt>
      <trkpt lat="45.45985" lon="4.62623">
        <ele>683</ele>
        <time>2015-06-07T09:54:42Z</time>
      </trkpt>
      <trkpt lat="45.4598" lon="4.62638">
        <ele>685</ele>
        <time>2015-06-07T09:54:46Z</time>
      </trkpt>
      <trkpt lat="45.45957" lon="4.62656">
        <ele>687</ele>
        <time>2015-06-07T09:54:51Z</time>
      </trkpt>
      <trkpt lat="45.45939" lon="4.62687">
        <ele>688</ele>
        <time>2015-06-07T09:54:56Z</time>
      </trkpt>
      <trkpt lat="45.45909" lon="4.62761">
        <ele>690</ele>
        <time>2015-06-07T09:55:05Z</time>
      </trkpt>
      <trkpt lat="45.459" lon="4.62781">
        <ele>687</ele>
        <time>2015-06-07T09:55:08Z</time>
      </trkpt>
      <trkpt lat="45.45887" lon="4.62801">
        <ele>682</ele>
        <time>2015-06-07T09:55:12Z</time>
      </trkpt>
      <trkpt lat="45.45871" lon="4.62828">
        <ele>679</ele>
        <time>2015-06-07T09:55:17Z</time>
      </trkpt>
      <trkpt lat="45.45845" lon="4.62871">
        <ele>676</ele>
        <time>2015-06-07T09:55:25Z</time>
      </trkpt>
      <trkpt lat="45.45843" lon="4.62879">
        <ele>675</ele>
        <time>2015-06-07T09:55:26Z</time>
      </trkpt>
      <trkpt lat="45.45837" lon="4.62912">
        <ele>674</ele>
        <time>2015-06-07T09:55:31Z</time>
      </trkpt>
      <trkpt lat="45.45849" lon="4.62946">
        <ele>675</ele>
        <time>2015-06-07T09:55:36Z</time>
      </trkpt>
      <trkpt lat="45.45868" lon="4.62972">
        <ele>675</ele>
        <time>2015-06-07T09:55:41Z</time>
      </trkpt>
      <trkpt lat="45.45885" lon="4.62996">
        <ele>676</ele>
        <time>2015-06-07T09:55:46Z</time>
      </trkpt>
      <trkpt lat="45.45902" lon="4.63029">
        <ele>675</ele>
        <time>2015-06-07T09:55:51Z</time>
      </trkpt>
      <trkpt lat="45.45919" lon="4.63054">
        <ele>678</ele>
        <time>2015-06-07T09:55:56Z</time>
      </trkpt>
      <trkpt lat="45.45966" lon="4.63073">
        <ele>678</ele>
        <time>2015-06-07T09:56:05Z</time>
      </trkpt>
      <trkpt lat="45.45984" lon="4.63078">
        <ele>677</ele>
        <time>2015-06-07T09:56:08Z</time>
      </trkpt>
      <trkpt lat="45.45999" lon="4.63084">
        <ele>678</ele>
        <time>2015-06-07T09:56:11Z</time>
      </trkpt>
      <trkpt lat="45.46038" lon="4.63118">
        <ele>680</ele>
        <time>2015-06-07T09:56:20Z</time>
      </trkpt>
      <trkpt lat="45.46042" lon="4.63122">
        <ele>680</ele>
        <time>2015-06-07T09:56:21Z</time>
      </trkpt>
      <trkpt lat="45.4606" lon="4.63146">
        <ele>682</ele>
        <time>2015-06-07T09:56:26Z</time>
      </trkpt>
      <trkpt lat="45.46077" lon="4.63174">
        <ele>682</ele>
        <time>2015-06-07T09:56:31Z</time>
      </trkpt>
      <trkpt lat="45.46087" lon="4.63208">
        <ele>681</ele>
        <time>2015-06-07T09:56:36Z</time>
      </trkpt>
      <trkpt lat="45.46094" lon="4.63243">
        <ele>681</ele>
        <time>2015-06-07T09:56:41Z</time>
      </trkpt>
      <trkpt lat="45.46107" lon="4.63302">
        <ele>684</ele>
        <time>2015-06-07T09:56:50Z</time>
      </trkpt>
      <trkpt lat="45.46111" lon="4.63317">
        <ele>685</ele>
        <time>2015-06-07T09:56:52Z</time>
      </trkpt>
      <trkpt lat="45.46121" lon="4.63352">
        <ele>684</ele>
        <time>2015-06-07T09:56:57Z</time>
      </trkpt>
      <trkpt lat="45.46129" lon="4.63372">
        <ele>691</ele>
        <time>2015-06-07T09:57:02Z</time>
      </trkpt>
      <trkpt lat="45.46137" lon="4.63398">
        <ele>693</ele>
        <time>2015-06-07T09:57:06Z</time>
      </trkpt>
      <trkpt lat="45.46151" lon="4.6343">
        <ele>694</ele>
        <time>2015-06-07T09:57:12Z</time>
      </trkpt>
      <trkpt lat="45.46158" lon="4.63451">
        <ele>696</ele>
        <time>2015-06-07T09:57:16Z</time>
      </trkpt>
      <trkpt lat="45.46172" lon="4.63487">
        <ele>697</ele>
        <time>2015-06-07T09:57:21Z</time>
      </trkpt>
      <trkpt lat="45.46194" lon="4.63551">
        <ele>694</ele>
        <time>2015-06-07T09:57:30Z</time>
      </trkpt>
      <trkpt lat="45.46206" lon="4.63575">
        <ele>693</ele>
        <time>2015-06-07T09:57:34Z</time>
      </trkpt>
      <trkpt lat="45.46211" lon="4.63586">
        <ele>692</ele>
        <time>2015-06-07T09:57:36Z</time>
      </trkpt>
      <trkpt lat="45.46227" lon="4.63616">
        <ele>692</ele>
        <time>2015-06-07T09:57:41Z</time>
      </trkpt>
      <trkpt lat="45.46244" lon="4.63641">
        <ele>692</ele>
        <time>2015-06-07T09:57:46Z</time>
      </trkpt>
      <trkpt lat="45.46262" lon="4.63664">
        <ele>692</ele>
        <time>2015-06-07T09:57:51Z</time>
      </trkpt>
      <trkpt lat="45.46279" lon="4.63686">
        <ele>692</ele>
        <time>2015-06-07T09:57:56Z</time>
      </trkpt>
      <trkpt lat="45.46296" lon="4.6371">
        <ele>693</ele>
        <time>2015-06-07T09:58:01Z</time>
      </trkpt>
      <trkpt lat="45.46311" lon="4.6374">
        <ele>694</ele>
        <time>2015-06-07T09:58:06Z</time>
      </trkpt>
      <trkpt lat="45.46321" lon="4.63773">
        <ele>694</ele>
        <time>2015-06-07T09:58:11Z</time>
      </trkpt>
      <trkpt lat="45.4632" lon="4.63807">
        <ele>694</ele>
        <time>2015-06-07T09:58:16Z</time>
      </trkpt>
      <trkpt lat="45.46306" lon="4.63836">
        <ele>694</ele>
        <time>2015-06-07T09:58:20Z</time>
      </trkpt>
      <trkpt lat="45.46281" lon="4.6385">
        <ele>692</ele>
        <time>2015-06-07T09:58:25Z</time>
      </trkpt>
      <trkpt lat="45.46239" lon="4.63842">
        <ele>692</ele>
        <time>2015-06-07T09:58:33Z</time>
      </trkpt>
      <trkpt lat="45.46219" lon="4.63837">
        <ele>689</ele>
        <time>2015-06-07T09:58:36Z</time>
      </trkpt>
      <trkpt lat="45.46184" lon="4.63829">
        <ele>689</ele>
        <time>2015-06-07T09:58:41Z</time>
      </trkpt>
      <trkpt lat="45.46149" lon="4.63822">
        <ele>688</ele>
        <time>2015-06-07T09:58:46Z</time>
      </trkpt>
      <trkpt lat="45.46117" lon="4.63828">
        <ele>688</ele>
        <time>2015-06-07T09:58:51Z</time>
      </trkpt>
      <trkpt lat="45.46083" lon="4.63834">
        <ele>688</ele>
        <time>2015-06-07T09:58:56Z</time>
      </trkpt>
      <trkpt lat="45.46035" lon="4.63857">
        <ele>692</ele>
        <time>2015-06-07T09:59:03Z</time>
      </trkpt>
      <trkpt lat="45.45984" lon="4.63883">
        <ele>691</ele>
        <time>2015-06-07T09:59:10Z</time>
      </trkpt>
      <trkpt lat="45.45956" lon="4.63898">
        <ele>691</ele>
        <time>2015-06-07T09:59:14Z</time>
      </trkpt>
      <trkpt lat="45.45942" lon="4.63905">
        <ele>692</ele>
        <time>2015-06-07T09:59:16Z</time>
      </trkpt>
      <trkpt lat="45.45908" lon="4.63927">
        <ele>694</ele>
        <time>2015-06-07T09:59:21Z</time>
      </trkpt>
      <trkpt lat="45.45912" lon="4.64014">
        <ele>690</ele>
        <time>2015-06-07T09:59:29Z</time>
      </trkpt>
      <trkpt lat="45.4594" lon="4.64055">
        <ele>691</ele>
        <time>2015-06-07T09:59:34Z</time>
      </trkpt>
      <trkpt lat="45.45945" lon="4.64064">
        <ele>691</ele>
        <time>2015-06-07T09:59:35Z</time>
      </trkpt>
      <trkpt lat="45.45973" lon="4.64106">
        <ele>689</ele>
        <time>2015-06-07T09:59:40Z</time>
      </trkpt>
      <trkpt lat="45.46013" lon="4.64178">
        <ele>694</ele>
        <time>2015-06-07T09:59:50Z</time>
      </trkpt>
      <trkpt lat="45.46031" lon="4.64233">
        <ele>688</ele>
        <time>2015-06-07T09:59:55Z</time>
      </trkpt>
      <trkpt lat="45.46034" lon="4.64244">
        <ele>688</ele>
        <time>2015-06-07T09:59:56Z</time>
      </trkpt>
      <trkpt lat="45.46055" lon="4.64331">
        <ele>688</ele>
        <time>2015-06-07T10:00:03Z</time>
      </trkpt>
      <trkpt lat="45.46073" lon="4.64396">
        <ele>687</ele>
        <time>2015-06-07T10:00:09Z</time>
      </trkpt>
      <trkpt lat="45.46079" lon="4.64416">
        <ele>687</ele>
        <time>2015-06-07T10:00:11Z</time>
      </trkpt>
      <trkpt lat="45.46094" lon="4.6447">
        <ele>685</ele>
        <time>2015-06-07T10:00:16Z</time>
      </trkpt>
      <trkpt lat="45.46123" lon="4.64566">
        <ele>681</ele>
        <time>2015-06-07T10:00:25Z</time>
      </trkpt>
      <trkpt lat="45.46145" lon="4.64612">
        <ele>679</ele>
        <time>2015-06-07T10:00:30Z</time>
      </trkpt>
      <trkpt lat="45.4616" lon="4.64638">
        <ele>678</ele>
        <time>2015-06-07T10:00:33Z</time>
      </trkpt>
      <trkpt lat="45.46175" lon="4.64662">
        <ele>678</ele>
        <time>2015-06-07T10:00:36Z</time>
      </trkpt>
      <trkpt lat="45.46201" lon="4.64707">
        <ele>677</ele>
        <time>2015-06-07T10:00:41Z</time>
      </trkpt>
      <trkpt lat="45.46236" lon="4.6477">
        <ele>675</ele>
        <time>2015-06-07T10:00:48Z</time>
      </trkpt>
      <trkpt lat="45.46247" lon="4.64786">
        <ele>675</ele>
        <time>2015-06-07T10:00:50Z</time>
      </trkpt>
      <trkpt lat="45.46271" lon="4.64826">
        <ele>674</ele>
        <time>2015-06-07T10:00:55Z</time>
      </trkpt>
      <trkpt lat="45.46284" lon="4.64879">
        <ele>671</ele>
        <time>2015-06-07T10:01:00Z</time>
      </trkpt>
      <trkpt lat="45.46276" lon="4.64939">
        <ele>671</ele>
        <time>2015-06-07T10:01:05Z</time>
      </trkpt>
      <trkpt lat="45.46254" lon="4.6499">
        <ele>671</ele>
        <time>2015-06-07T10:01:09Z</time>
      </trkpt>
      <trkpt lat="45.46237" lon="4.65047">
        <ele>670</ele>
        <time>2015-06-07T10:01:15Z</time>
      </trkpt>
      <trkpt lat="45.46233" lon="4.65111">
        <ele>668</ele>
        <time>2015-06-07T10:01:20Z</time>
      </trkpt>
      <trkpt lat="45.46219" lon="4.65172">
        <ele>668</ele>
        <time>2015-06-07T10:01:25Z</time>
      </trkpt>
      <trkpt lat="45.46198" lon="4.65229">
        <ele>664</ele>
        <time>2015-06-07T10:01:30Z</time>
      </trkpt>
      <trkpt lat="45.46164" lon="4.65265">
        <ele>665</ele>
        <time>2015-06-07T10:01:35Z</time>
      </trkpt>
      <trkpt lat="45.46125" lon="4.65294">
        <ele>664</ele>
        <time>2015-06-07T10:01:40Z</time>
      </trkpt>
      <trkpt lat="45.46099" lon="4.65338">
        <ele>665</ele>
        <time>2015-06-07T10:01:45Z</time>
      </trkpt>
      <trkpt lat="45.46079" lon="4.65389">
        <ele>665</ele>
        <time>2015-06-07T10:01:50Z</time>
      </trkpt>
      <trkpt lat="45.46064" lon="4.65441">
        <ele>664</ele>
        <time>2015-06-07T10:01:55Z</time>
      </trkpt>
      <trkpt lat="45.46041" lon="4.65489">
        <ele>662</ele>
        <time>2015-06-07T10:02:00Z</time>
      </trkpt>
      <trkpt lat="45.46011" lon="4.65514">
        <ele>668</ele>
        <time>2015-06-07T10:02:05Z</time>
      </trkpt>
      <trkpt lat="45.45974" lon="4.65539">
        <ele>670</ele>
        <time>2015-06-07T10:02:10Z</time>
      </trkpt>
      <trkpt lat="45.45893" lon="4.65572">
        <ele>664</ele>
        <time>2015-06-07T10:02:19Z</time>
      </trkpt>
      <trkpt lat="45.45878" lon="4.6557">
        <ele>662</ele>
        <time>2015-06-07T10:02:20Z</time>
      </trkpt>
      <trkpt lat="45.45848" lon="4.65568">
        <ele>663</ele>
        <time>2015-06-07T10:02:25Z</time>
      </trkpt>
      <trkpt lat="45.45822" lon="4.65597">
        <ele>666</ele>
        <time>2015-06-07T10:02:30Z</time>
      </trkpt>
      <trkpt lat="45.45779" lon="4.65689">
        <ele>664</ele>
        <time>2015-06-07T10:02:39Z</time>
      </trkpt>
      <trkpt lat="45.45773" lon="4.65714">
        <ele>663</ele>
        <time>2015-06-07T10:02:41Z</time>
      </trkpt>
      <trkpt lat="45.45779" lon="4.65781">
        <ele>659</ele>
        <time>2015-06-07T10:02:47Z</time>
      </trkpt>
      <trkpt lat="45.45792" lon="4.65811">
        <ele>656</ele>
        <time>2015-06-07T10:02:50Z</time>
      </trkpt>
      <trkpt lat="45.45834" lon="4.6586">
        <ele>653</ele>
        <time>2015-06-07T10:02:58Z</time>
      </trkpt>
      <trkpt lat="45.45844" lon="4.6587">
        <ele>654</ele>
        <time>2015-06-07T10:03:00Z</time>
      </trkpt>
      <trkpt lat="45.45868" lon="4.65895">
        <ele>654</ele>
        <time>2015-06-07T10:03:05Z</time>
      </trkpt>
      <trkpt lat="45.45899" lon="4.65942">
        <ele>652</ele>
        <time>2015-06-07T10:03:12Z</time>
      </trkpt>
      <trkpt lat="45.45911" lon="4.65955">
        <ele>651</ele>
        <time>2015-06-07T10:03:15Z</time>
      </trkpt>
      <trkpt lat="45.4593" lon="4.65985">
        <ele>650</ele>
        <time>2015-06-07T10:03:20Z</time>
      </trkpt>
      <trkpt lat="45.45955" lon="4.66032">
        <ele>648</ele>
        <time>2015-06-07T10:03:27Z</time>
      </trkpt>
      <trkpt lat="45.45971" lon="4.66061">
        <ele>649</ele>
        <time>2015-06-07T10:03:32Z</time>
      </trkpt>
      <trkpt lat="45.45979" lon="4.66077">
        <ele>651</ele>
        <time>2015-06-07T10:03:35Z</time>
      </trkpt>
      <trkpt lat="45.46007" lon="4.66125">
        <ele>651</ele>
        <time>2015-06-07T10:03:43Z</time>
      </trkpt>
      <trkpt lat="45.46014" lon="4.66136">
        <ele>652</ele>
        <time>2015-06-07T10:03:45Z</time>
      </trkpt>
      <trkpt lat="45.46033" lon="4.66163">
        <ele>652</ele>
        <time>2015-06-07T10:03:50Z</time>
      </trkpt>
      <trkpt lat="45.46054" lon="4.6619">
        <ele>652</ele>
        <time>2015-06-07T10:03:55Z</time>
      </trkpt>
      <trkpt lat="45.46075" lon="4.66218">
        <ele>652</ele>
        <time>2015-06-07T10:04:00Z</time>
      </trkpt>
      <trkpt lat="45.46093" lon="4.66247">
        <ele>655</ele>
        <time>2015-06-07T10:04:05Z</time>
      </trkpt>
      <trkpt lat="45.46111" lon="4.66274">
        <ele>656</ele>
        <time>2015-06-07T10:04:10Z</time>
      </trkpt>
      <trkpt lat="45.4613" lon="4.66299">
        <ele>656</ele>
        <time>2015-06-07T10:04:15Z</time>
      </trkpt>
      <trkpt lat="45.46155" lon="4.66326">
        <ele>657</ele>
        <time>2015-06-07T10:04:21Z</time>
      </trkpt>
      <trkpt lat="45.46178" lon="4.66348">
        <ele>656</ele>
        <time>2015-06-07T10:04:26Z</time>
      </trkpt>
      <trkpt lat="45.46199" lon="4.66361">
        <ele>656</ele>
        <time>2015-06-07T10:04:30Z</time>
      </trkpt>
      <trkpt lat="45.46238" lon="4.66375">
        <ele>657</ele>
        <time>2015-06-07T10:04:37Z</time>
      </trkpt>
      <trkpt lat="45.46254" lon="4.66379">
        <ele>660</ele>
        <time>2015-06-07T10:04:40Z</time>
      </trkpt>
      <trkpt lat="45.46282" lon="4.66386">
        <ele>661</ele>
        <time>2015-06-07T10:04:45Z</time>
      </trkpt>
      <trkpt lat="45.46323" lon="4.66395">
        <ele>666</ele>
        <time>2015-06-07T10:04:53Z</time>
      </trkpt>
      <trkpt lat="45.46334" lon="4.664">
        <ele>666</ele>
        <time>2015-06-07T10:04:55Z</time>
      </trkpt>
      <trkpt lat="45.46363" lon="4.66424">
        <ele>668</ele>
        <time>2015-06-07T10:05:00Z</time>
      </trkpt>
      <trkpt lat="45.46373" lon="4.6645">
        <ele>669</ele>
        <time>2015-06-07T10:05:05Z</time>
      </trkpt>
      <trkpt lat="45.46381" lon="4.66491">
        <ele>667</ele>
        <time>2015-06-07T10:05:10Z</time>
      </trkpt>
      <trkpt lat="45.46385" lon="4.66542">
        <ele>666</ele>
        <time>2015-06-07T10:05:16Z</time>
      </trkpt>
      <trkpt lat="45.46388" lon="4.66577">
        <ele>665</ele>
        <time>2015-06-07T10:05:20Z</time>
      </trkpt>
      <trkpt lat="45.46383" lon="4.66619">
        <ele>663</ele>
        <time>2015-06-07T10:05:25Z</time>
      </trkpt>
      <trkpt lat="45.46365" lon="4.66664">
        <ele>664</ele>
        <time>2015-06-07T10:05:31Z</time>
      </trkpt>
      <trkpt lat="45.46341" lon="4.66706">
        <ele>664</ele>
        <time>2015-06-07T10:05:37Z</time>
      </trkpt>
      <trkpt lat="45.4633" lon="4.66726">
        <ele>665</ele>
        <time>2015-06-07T10:05:40Z</time>
      </trkpt>
      <trkpt lat="45.46315" lon="4.66771">
        <ele>665</ele>
        <time>2015-06-07T10:05:45Z</time>
      </trkpt>
      <trkpt lat="45.46312" lon="4.6682">
        <ele>664</ele>
        <time>2015-06-07T10:05:50Z</time>
      </trkpt>
      <trkpt lat="45.46311" lon="4.66867">
        <ele>665</ele>
        <time>2015-06-07T10:05:55Z</time>
      </trkpt>
      <trkpt lat="45.46308" lon="4.66926">
        <ele>665</ele>
        <time>2015-06-07T10:06:01Z</time>
      </trkpt>
      <trkpt lat="45.46301" lon="4.66967">
        <ele>663</ele>
        <time>2015-06-07T10:06:05Z</time>
      </trkpt>
      <trkpt lat="45.46303" lon="4.6705">
        <ele>663</ele>
        <time>2015-06-07T10:06:13Z</time>
      </trkpt>
      <trkpt lat="45.46307" lon="4.67108">
        <ele>664</ele>
        <time>2015-06-07T10:06:19Z</time>
      </trkpt>
      <trkpt lat="45.46307" lon="4.67116">
        <ele>663</ele>
        <time>2015-06-07T10:06:20Z</time>
      </trkpt>
      <trkpt lat="45.46305" lon="4.67165">
        <ele>664</ele>
        <time>2015-06-07T10:06:25Z</time>
      </trkpt>
      <trkpt lat="45.46304" lon="4.67212">
        <ele>663</ele>
        <time>2015-06-07T10:06:30Z</time>
      </trkpt>
      <trkpt lat="45.46317" lon="4.67291">
        <ele>661</ele>
        <time>2015-06-07T10:06:38Z</time>
      </trkpt>
      <trkpt lat="45.46327" lon="4.67337">
        <ele>662</ele>
        <time>2015-06-07T10:06:43Z</time>
      </trkpt>
      <trkpt lat="45.4633" lon="4.67355">
        <ele>662</ele>
        <time>2015-06-07T10:06:45Z</time>
      </trkpt>
      <trkpt lat="45.46344" lon="4.67429">
        <ele>663</ele>
        <time>2015-06-07T10:06:52Z</time>
      </trkpt>
      <trkpt lat="45.46349" lon="4.67467">
        <ele>663</ele>
        <time>2015-06-07T10:06:57Z</time>
      </trkpt>
      <trkpt lat="45.46355" lon="4.67495">
        <ele>662</ele>
        <time>2015-06-07T10:07:00Z</time>
      </trkpt>
      <trkpt lat="45.46364" lon="4.67539">
        <ele>662</ele>
        <time>2015-06-07T10:07:05Z</time>
      </trkpt>
      <trkpt lat="45.46379" lon="4.67589">
        <ele>661</ele>
        <time>2015-06-07T10:07:11Z</time>
      </trkpt>
      <trkpt lat="45.46399" lon="4.67648">
        <ele>661</ele>
        <time>2015-06-07T10:07:18Z</time>
      </trkpt>
      <trkpt lat="45.46405" lon="4.67665">
        <ele>661</ele>
        <time>2015-06-07T10:07:20Z</time>
      </trkpt>
      <trkpt lat="45.46419" lon="4.67708">
        <ele>658</ele>
        <time>2015-06-07T10:07:25Z</time>
      </trkpt>
      <trkpt lat="45.46433" lon="4.67744">
        <ele>660</ele>
        <time>2015-06-07T10:07:30Z</time>
      </trkpt>
      <trkpt lat="45.46445" lon="4.67785">
        <ele>660</ele>
        <time>2015-06-07T10:07:35Z</time>
      </trkpt>
      <trkpt lat="45.46453" lon="4.67823">
        <ele>660</ele>
        <time>2015-06-07T10:07:40Z</time>
      </trkpt>
      <trkpt lat="45.46457" lon="4.67837">
        <ele>661</ele>
        <time>2015-06-07T10:07:45Z</time>
      </trkpt>
      <trkpt lat="45.46465" lon="4.67832">
        <ele>662</ele>
        <time>2015-06-07T10:07:50Z</time>
      </trkpt>
      <trkpt lat="45.4647" lon="4.67822">
        <ele>664</ele>
        <time>2015-06-07T10:07:55Z</time>
      </trkpt>
      <trkpt lat="45.46475" lon="4.67816">
        <ele>662</ele>
        <time>2015-06-07T10:07:59Z</time>
      </trkpt>
      <trkpt lat="45.46475" lon="4.67817">
        <ele>663</ele>
        <time>2015-06-07T10:08:05Z</time>
      </trkpt>
      <trkpt lat="45.46478" lon="4.67818">
        <ele>663</ele>
        <time>2015-06-07T10:08:10Z</time>
      </trkpt>
      <trkpt lat="45.46478" lon="4.67817">
        <ele>662</ele>
        <time>2015-06-07T10:08:13Z</time>
      </trkpt>
      <trkpt lat="45.46478" lon="4.67817">
        <ele>661</ele>
        <time>2015-06-07T10:08:15Z</time>
      </trkpt>
      <trkpt lat="45.46479" lon="4.67818">
        <ele>661</ele>
        <time>2015-06-07T10:08:18Z</time>
      </trkpt>
      <trkpt lat="45.46479" lon="4.67819">
        <ele>661</ele>
        <time>2015-06-07T10:08:22Z</time>
      </trkpt>
      <trkpt lat="45.46478" lon="4.67819">
        <ele>661</ele>
        <time>2015-06-07T10:08:25Z</time>
      </trkpt>
      <trkpt lat="45.46479" lon="4.67821">
        <ele>660</ele>
        <time>2015-06-07T10:08:28Z</time>
      </trkpt>
      <trkpt lat="45.46479" lon="4.67823">
        <ele>661</ele>
        <time>2015-06-07T10:08:33Z</time>
      </trkpt>
      <trkpt lat="45.46479" lon="4.67825">
        <ele>661</ele>
        <time>2015-06-07T10:08:38Z</time>
      </trkpt>
      <trkpt lat="45.46479" lon="4.67825">
        <ele>661</ele>
        <time>2015-06-07T10:08:41Z</time>
      </trkpt>
      <trkpt lat="45.46479" lon="4.67825">
        <ele>661</ele>
        <time>2015-06-07T10:08:41Z</time>
      </trkpt>
      <trkpt lat="45.46478" lon="4.67821">
        <ele>660</ele>
        <time>2015-06-07T10:08:50Z</time>
      </trkpt>
      <trkpt lat="45.46478" lon="4.67821">
        <ele>659</ele>
        <time>2015-06-07T10:08:52Z</time>
      </trkpt>
      <trkpt lat="45.46478" lon="4.67819">
        <ele>660</ele>
        <time>2015-06-07T10:08:55Z</time>
      </trkpt>
      <trkpt lat="45.46478" lon="4.67818">
        <ele>660</ele>
        <time>2015-06-07T10:08:58Z</time>
      </trkpt>
      <trkpt lat="45.46478" lon="4.67817">
        <ele>660</ele>
        <time>2015-06-07T10:09:00Z</time>
      </trkpt>
      <trkpt lat="45.46478" lon="4.67817">
        <ele>660</ele>
        <time>2015-06-07T10:09:04Z</time>
      </trkpt>
      <trkpt lat="45.46477" lon="4.67817">
        <ele>660</ele>
        <time>2015-06-07T10:09:07Z</time>
      </trkpt>
      <trkpt lat="45.46476" lon="4.67816">
        <ele>660</ele>
        <time>2015-06-07T10:09:10Z</time>
      </trkpt>
      <trkpt lat="45.46476" lon="4.67816">
        <ele>660</ele>
        <time>2015-06-07T10:09:15Z</time>
      </trkpt>
      <trkpt lat="45.46476" lon="4.67816">
        <ele>660</ele>
        <time>2015-06-07T10:09:18Z</time>
      </trkpt>
      <trkpt lat="45.46476" lon="4.67816">
        <ele>660</ele>
        <time>2015-06-07T10:09:21Z</time>
      </trkpt>
      <trkpt lat="45.46476" lon="4.67816">
        <ele>659</ele>
        <time>2015-06-07T10:09:24Z</time>
      </trkpt>
      <trkpt lat="45.46476" lon="4.67816">
        <ele>659</ele>
        <time>2015-06-07T10:09:27Z</time>
      </trkpt>
      <trkpt lat="45.46476" lon="4.67816">
        <ele>659</ele>
        <time>2015-06-07T10:09:30Z</time>
      </trkpt>
      <trkpt lat="45.46476" lon="4.67816">
        <ele>659</ele>
        <time>2015-06-07T10:09:34Z</time>
      </trkpt>
      <trkpt lat="45.46476" lon="4.67816">
        <ele>659</ele>
        <time>2015-06-07T10:09:36Z</time>
      </trkpt>
      <trkpt lat="45.46476" lon="4.67816">
        <ele>659</ele>
        <time>2015-06-07T10:09:39Z</time>
      </trkpt>
      <trkpt lat="45.46476" lon="4.67816">
        <ele>659</ele>
        <time>2015-06-07T10:09:42Z</time>
      </trkpt>
      <trkpt lat="45.46476" lon="4.67816">
        <ele>659</ele>
        <time>2015-06-07T10:09:45Z</time>
      </trkpt>
      <trkpt lat="45.46476" lon="4.67816">
        <ele>658</ele>
        <time>2015-06-07T10:09:48Z</time>
      </trkpt>
      <trkpt lat="45.46476" lon="4.67816">
        <ele>658</ele>
        <time>2015-06-07T10:09:51Z</time>
      </trkpt>
      <trkpt lat="45.46477" lon="4.67816">
        <ele>658</ele>
        <time>2015-06-07T10:09:54Z</time>
      </trkpt>
      <trkpt lat="45.46477" lon="4.67816">
        <ele>658</ele>
        <time>2015-06-07T10:09:57Z</time>
      </trkpt>
      <trkpt lat="45.46477" lon="4.67816">
        <ele>658</ele>
        <time>2015-06-07T10:10:00Z</time>
      </trkpt>
      <trkpt lat="45.46477" lon="4.67816">
        <ele>658</ele>
        <time>2015-06-07T10:10:03Z</time>
      </trkpt>
      <trkpt lat="45.46477" lon="4.67816">
        <ele>658</ele>
        <time>2015-06-07T10:10:06Z</time>
      </trkpt>
      <trkpt lat="45.46477" lon="4.67816">
        <ele>658</ele>
        <time>2015-06-07T10:10:09Z</time>
      </trkpt>
      <trkpt lat="45.46477" lon="4.67816">
        <ele>658</ele>
        <time>2015-06-07T10:10:12Z</time>
      </trkpt>
      <trkpt lat="45.46477" lon="4.67816">
        <ele>658</ele>
        <time>2015-06-07T10:10:15Z</time>
      </trkpt>
      <trkpt lat="45.46477" lon="4.67816">
        <ele>658</ele>
        <time>2015-06-07T10:10:18Z</time>
      </trkpt>
      <trkpt lat="45.46477" lon="4.67816">
        <ele>658</ele>
        <time>2015-06-07T10:10:21Z</time>
      </trkpt>
      <trkpt lat="45.46477" lon="4.67816">
        <ele>658</ele>
        <time>2015-06-07T10:10:24Z</time>
      </trkpt>
      <trkpt lat="45.46477" lon="4.67816">
        <ele>658</ele>
        <time>2015-06-07T10:10:27Z</time>
      </trkpt>
      <trkpt lat="45.46477" lon="4.67816">
        <ele>658</ele>
        <time>2015-06-07T10:10:30Z</time>
      </trkpt>
      <trkpt lat="45.46477" lon="4.67816">
        <ele>658</ele>
        <time>2015-06-07T10:10:33Z</time>
      </trkpt>
      <trkpt lat="45.46477" lon="4.67816">
        <ele>658</ele>
        <time>2015-06-07T10:10:36Z</time>
      </trkpt>
      <trkpt lat="45.46477" lon="4.67816">
        <ele>658</ele>
        <time>2015-06-07T10:10:39Z</time>
      </trkpt>
      <trkpt lat="45.46477" lon="4.67816">
        <ele>658</ele>
        <time>2015-06-07T10:10:42Z</time>
      </trkpt>
      <trkpt lat="45.46477" lon="4.67816">
        <ele>658</ele>
        <time>2015-06-07T10:10:45Z</time>
      </trkpt>
      <trkpt lat="45.46477" lon="4.67816">
        <ele>658</ele>
        <time>2015-06-07T10:10:48Z</time>
      </trkpt>
      <trkpt lat="45.46477" lon="4.67816">
        <ele>658</ele>
        <time>2015-06-07T10:10:51Z</time>
      </trkpt>
      <trkpt lat="45.46477" lon="4.67816">
        <ele>658</ele>
        <time>2015-06-07T10:10:54Z</time>
      </trkpt>
      <trkpt lat="45.46477" lon="4.67816">
        <ele>658</ele>
        <time>2015-06-07T10:10:57Z</time>
      </trkpt>
      <trkpt lat="45.46477" lon="4.67816">
        <ele>658</ele>
        <time>2015-06-07T10:11:00Z</time>
      </trkpt>
      <trkpt lat="45.46477" lon="4.67816">
        <ele>658</ele>
        <time>2015-06-07T10:11:03Z</time>
      </trkpt>
      <trkpt lat="45.46477" lon="4.67816">
        <ele>658</ele>
        <time>2015-06-07T10:11:06Z</time>
      </trkpt>
      <trkpt lat="45.46477" lon="4.67816">
        <ele>658</ele>
        <time>2015-06-07T10:11:09Z</time>
      </trkpt>
      <trkpt lat="45.46478" lon="4.67816">
        <ele>659</ele>
        <time>2015-06-07T10:11:12Z</time>
      </trkpt>
      <trkpt lat="45.4648" lon="4.67815">
        <ele>655</ele>
        <time>2015-06-07T10:11:17Z</time>
      </trkpt>
      <trkpt lat="45.4648" lon="4.67814">
        <ele>655</ele>
        <time>2015-06-07T10:11:22Z</time>
      </trkpt>
      <trkpt lat="45.4648" lon="4.67816">
        <ele>654</ele>
        <time>2015-06-07T10:11:25Z</time>
      </trkpt>
      <trkpt lat="45.4648" lon="4.67816">
        <ele>653</ele>
        <time>2015-06-07T10:11:27Z</time>
      </trkpt>
      <trkpt lat="45.4648" lon="4.67816">
        <ele>653</ele>
        <time>2015-06-07T10:11:30Z</time>
      </trkpt>
      <trkpt lat="45.46479" lon="4.67816">
        <ele>653</ele>
        <time>2015-06-07T10:11:35Z</time>
      </trkpt>
      <trkpt lat="45.46479" lon="4.67816">
        <ele>654</ele>
        <time>2015-06-07T10:11:37Z</time>
      </trkpt>
      <trkpt lat="45.46479" lon="4.67816">
        <ele>654</ele>
        <time>2015-06-07T10:11:41Z</time>
      </trkpt>
      <trkpt lat="45.46479" lon="4.67816">
        <ele>654</ele>
        <time>2015-06-07T10:11:43Z</time>
      </trkpt>
      <trkpt lat="45.46479" lon="4.67817">
        <ele>654</ele>
        <time>2015-06-07T10:11:46Z</time>
      </trkpt>
      <trkpt lat="45.46478" lon="4.67817">
        <ele>653</ele>
        <time>2015-06-07T10:11:49Z</time>
      </trkpt>
      <trkpt lat="45.46478" lon="4.67816">
        <ele>653</ele>
        <time>2015-06-07T10:11:54Z</time>
      </trkpt>
      <trkpt lat="45.46478" lon="4.67817">
        <ele>653</ele>
        <time>2015-06-07T10:11:55Z</time>
      </trkpt>
      <trkpt lat="45.46478" lon="4.67817">
        <ele>653</ele>
        <time>2015-06-07T10:11:58Z</time>
      </trkpt>
      <trkpt lat="45.46478" lon="4.67817">
        <ele>653</ele>
        <time>2015-06-07T10:12:02Z</time>
      </trkpt>
      <trkpt lat="45.46478" lon="4.67817">
        <ele>653</ele>
        <time>2015-06-07T10:12:04Z</time>
      </trkpt>
      <trkpt lat="45.46477" lon="4.67817">
        <ele>655</ele>
        <time>2015-06-07T10:12:08Z</time>
      </trkpt>
      <trkpt lat="45.46476" lon="4.67816">
        <ele>655</ele>
        <time>2015-06-07T10:12:10Z</time>
      </trkpt>
      <trkpt lat="45.46478" lon="4.67818">
        <ele>658</ele>
        <time>2015-06-07T10:12:15Z</time>
      </trkpt>
      <trkpt lat="45.46481" lon="4.67811">
        <ele>657</ele>
        <time>2015-06-07T10:12:20Z</time>
      </trkpt>
      <trkpt lat="45.46493" lon="4.678">
        <ele>657</ele>
        <time>2015-06-07T10:12:25Z</time>
      </trkpt>
      <trkpt lat="45.46504" lon="4.67784">
        <ele>660</ele>
        <time>2015-06-07T10:12:29Z</time>
      </trkpt>
      <trkpt lat="45.46519" lon="4.67766">
        <ele>661</ele>
        <time>2015-06-07T10:12:35Z</time>
      </trkpt>
      <trkpt lat="45.46552" lon="4.67728">
        <ele>658</ele>
        <time>2015-06-07T10:12:44Z</time>
      </trkpt>
      <trkpt lat="45.46572" lon="4.67709">
        <ele>656</ele>
        <time>2015-06-07T10:12:49Z</time>
      </trkpt>
      <trkpt lat="45.46584" lon="4.67699">
        <ele>655</ele>
        <time>2015-06-07T10:12:52Z</time>
      </trkpt>
      <trkpt lat="45.46595" lon="4.67692">
        <ele>654</ele>
        <time>2015-06-07T10:12:55Z</time>
      </trkpt>
      <trkpt lat="45.46623" lon="4.67673">
        <ele>651</ele>
        <time>2015-06-07T10:13:02Z</time>
      </trkpt>
      <trkpt lat="45.46634" lon="4.67664">
        <ele>650</ele>
        <time>2015-06-07T10:13:05Z</time>
      </trkpt>
      <trkpt lat="45.46656" lon="4.6765">
        <ele>647</ele>
        <time>2015-06-07T10:13:10Z</time>
      </trkpt>
      <trkpt lat="45.46676" lon="4.67638">
        <ele>648</ele>
        <time>2015-06-07T10:13:15Z</time>
      </trkpt>
      <trkpt lat="45.46697" lon="4.67626">
        <ele>649</ele>
        <time>2015-06-07T10:13:20Z</time>
      </trkpt>
      <trkpt lat="45.46718" lon="4.67614">
        <ele>652</ele>
        <time>2015-06-07T10:13:25Z</time>
      </trkpt>
      <trkpt lat="45.46739" lon="4.67602">
        <ele>653</ele>
        <time>2015-06-07T10:13:30Z</time>
      </trkpt>
      <trkpt lat="45.46761" lon="4.6759">
        <ele>655</ele>
        <time>2015-06-07T10:13:35Z</time>
      </trkpt>
      <trkpt lat="45.46782" lon="4.67579">
        <ele>656</ele>
        <time>2015-06-07T10:13:40Z</time>
      </trkpt>
      <trkpt lat="45.46803" lon="4.67571">
        <ele>661</ele>
        <time>2015-06-07T10:13:45Z</time>
      </trkpt>
      <trkpt lat="45.46824" lon="4.67552">
        <ele>660</ele>
        <time>2015-06-07T10:13:50Z</time>
      </trkpt>
      <trkpt lat="45.46839" lon="4.67527">
        <ele>661</ele>
        <time>2015-06-07T10:13:55Z</time>
      </trkpt>
      <trkpt lat="45.46852" lon="4.67504">
        <ele>662</ele>
        <time>2015-06-07T10:14:00Z</time>
      </trkpt>
      <trkpt lat="45.46864" lon="4.67484">
        <ele>664</ele>
        <time>2015-06-07T10:14:05Z</time>
      </trkpt>
      <trkpt lat="45.46872" lon="4.6746">
        <ele>664</ele>
        <time>2015-06-07T10:14:10Z</time>
      </trkpt>
      <trkpt lat="45.4688" lon="4.67438">
        <ele>666</ele>
        <time>2015-06-07T10:14:15Z</time>
      </trkpt>
      <trkpt lat="45.46887" lon="4.67415">
        <ele>666</ele>
        <time>2015-06-07T10:14:20Z</time>
      </trkpt>
      <trkpt lat="45.46897" lon="4.67397">
        <ele>667</ele>
        <time>2015-06-07T10:14:25Z</time>
      </trkpt>
      <trkpt lat="45.46915" lon="4.67361">
        <ele>667</ele>
        <time>2015-06-07T10:14:34Z</time>
      </trkpt>
      <trkpt lat="45.46917" lon="4.67357">
        <ele>668</ele>
        <time>2015-06-07T10:14:35Z</time>
      </trkpt>
      <trkpt lat="45.46928" lon="4.67338">
        <ele>668</ele>
        <time>2015-06-07T10:14:40Z</time>
      </trkpt>
      <trkpt lat="45.46942" lon="4.67321">
        <ele>669</ele>
        <time>2015-06-07T10:14:45Z</time>
      </trkpt>
      <trkpt lat="45.46956" lon="4.67306">
        <ele>669</ele>
        <time>2015-06-07T10:14:50Z</time>
      </trkpt>
      <trkpt lat="45.46972" lon="4.67291">
        <ele>670</ele>
        <time>2015-06-07T10:14:55Z</time>
      </trkpt>
      <trkpt lat="45.4699" lon="4.67278">
        <ele>670</ele>
        <time>2015-06-07T10:15:00Z</time>
      </trkpt>
      <trkpt lat="45.47008" lon="4.6727">
        <ele>672</ele>
        <time>2015-06-07T10:15:05Z</time>
      </trkpt>
      <trkpt lat="45.47029" lon="4.67261">
        <ele>672</ele>
        <time>2015-06-07T10:15:10Z</time>
      </trkpt>
      <trkpt lat="45.47052" lon="4.67253">
        <ele>672</ele>
        <time>2015-06-07T10:15:15Z</time>
      </trkpt>
      <trkpt lat="45.4708" lon="4.67241">
        <ele>674</ele>
        <time>2015-06-07T10:15:21Z</time>
      </trkpt>
      <trkpt lat="45.47102" lon="4.67234">
        <ele>675</ele>
        <time>2015-06-07T10:15:24Z</time>
      </trkpt>
      <trkpt lat="45.47133" lon="4.67226">
        <ele>674</ele>
        <time>2015-06-07T10:15:29Z</time>
      </trkpt>
      <trkpt lat="45.47168" lon="4.67219">
        <ele>673</ele>
        <time>2015-06-07T10:15:35Z</time>
      </trkpt>
      <trkpt lat="45.47214" lon="4.67209">
        <ele>671</ele>
        <time>2015-06-07T10:15:40Z</time>
      </trkpt>
      <trkpt lat="45.47263" lon="4.67196">
        <ele>672</ele>
        <time>2015-06-07T10:15:47Z</time>
      </trkpt>
      <trkpt lat="45.47287" lon="4.67193">
        <ele>672</ele>
        <time>2015-06-07T10:15:49Z</time>
      </trkpt>
      <trkpt lat="45.47324" lon="4.67213">
        <ele>669</ele>
        <time>2015-06-07T10:15:55Z</time>
      </trkpt>
      <trkpt lat="45.47343" lon="4.6728">
        <ele>664</ele>
        <time>2015-06-07T10:16:00Z</time>
      </trkpt>
      <trkpt lat="45.4735" lon="4.67347">
        <ele>661</ele>
        <time>2015-06-07T10:16:04Z</time>
      </trkpt>
      <trkpt lat="45.47356" lon="4.67423">
        <ele>658</ele>
        <time>2015-06-07T10:16:08Z</time>
      </trkpt>
      <trkpt lat="45.47358" lon="4.67522">
        <ele>652</ele>
        <time>2015-06-07T10:16:12Z</time>
      </trkpt>
      <trkpt lat="45.47307" lon="4.6762">
        <ele>646</ele>
        <time>2015-06-07T10:16:19Z</time>
      </trkpt>
      <trkpt lat="45.47275" lon="4.67665">
        <ele>644</ele>
        <time>2015-06-07T10:16:23Z</time>
      </trkpt>
      <trkpt lat="45.47267" lon="4.67725">
        <ele>643</ele>
        <time>2015-06-07T10:16:27Z</time>
      </trkpt>
      <trkpt lat="45.47326" lon="4.67797">
        <ele>640</ele>
        <time>2015-06-07T10:16:34Z</time>
      </trkpt>
      <trkpt lat="45.47401" lon="4.6785">
        <ele>636</ele>
        <time>2015-06-07T10:16:41Z</time>
      </trkpt>
      <trkpt lat="45.47412" lon="4.67858">
        <ele>635</ele>
        <time>2015-06-07T10:16:42Z</time>
      </trkpt>
      <trkpt lat="45.47468" lon="4.67959">
        <ele>627</ele>
        <time>2015-06-07T10:16:51Z</time>
      </trkpt>
      <trkpt lat="45.4753" lon="4.67987">
        <ele>615</ele>
        <time>2015-06-07T10:16:57Z</time>
      </trkpt>
      <trkpt lat="45.47542" lon="4.67987">
        <ele>613</ele>
        <time>2015-06-07T10:16:57Z</time>
      </trkpt>
      <trkpt lat="45.47606" lon="4.67973">
        <ele>607</ele>
        <time>2015-06-07T10:17:03Z</time>
      </trkpt>
      <trkpt lat="45.47644" lon="4.6794">
        <ele>602</ele>
        <time>2015-06-07T10:17:07Z</time>
      </trkpt>
      <trkpt lat="45.47661" lon="4.67934">
        <ele>598</ele>
        <time>2015-06-07T10:17:12Z</time>
      </trkpt>
      <trkpt lat="45.47663" lon="4.67967">
        <ele>595</ele>
        <time>2015-06-07T10:17:17Z</time>
      </trkpt>
      <trkpt lat="45.47656" lon="4.68015">
        <ele>595</ele>
        <time>2015-06-07T10:17:22Z</time>
      </trkpt>
      <trkpt lat="45.47635" lon="4.68061">
        <ele>593</ele>
        <time>2015-06-07T10:17:27Z</time>
      </trkpt>
      <trkpt lat="45.47603" lon="4.68102">
        <ele>589</ele>
        <time>2015-06-07T10:17:32Z</time>
      </trkpt>
      <trkpt lat="45.47601" lon="4.68147">
        <ele>588</ele>
        <time>2015-06-07T10:17:37Z</time>
      </trkpt>
      <trkpt lat="45.47608" lon="4.68186">
        <ele>588</ele>
        <time>2015-06-07T10:17:42Z</time>
      </trkpt>
      <trkpt lat="45.47615" lon="4.68217">
        <ele>588</ele>
        <time>2015-06-07T10:17:48Z</time>
      </trkpt>
      <trkpt lat="45.47619" lon="4.6824">
        <ele>590</ele>
        <time>2015-06-07T10:17:52Z</time>
      </trkpt>
      <trkpt lat="45.47624" lon="4.68274">
        <ele>592</ele>
        <time>2015-06-07T10:18:02Z</time>
      </trkpt>
      <trkpt lat="45.47625" lon="4.68282">
        <ele>593</ele>
        <time>2015-06-07T10:18:04Z</time>
      </trkpt>
      <trkpt lat="45.47628" lon="4.68304">
        <ele>593</ele>
        <time>2015-06-07T10:18:09Z</time>
      </trkpt>
      <trkpt lat="45.47628" lon="4.68314">
        <ele>592</ele>
        <time>2015-06-07T10:18:13Z</time>
      </trkpt>
      <trkpt lat="45.47628" lon="4.68333">
        <ele>594</ele>
        <time>2015-06-07T10:18:17Z</time>
      </trkpt>
      <trkpt lat="45.47628" lon="4.6835">
        <ele>596</ele>
        <time>2015-06-07T10:18:23Z</time>
      </trkpt>
      <trkpt lat="45.47628" lon="4.68367">
        <ele>599</ele>
        <time>2015-06-07T10:18:28Z</time>
      </trkpt>
      <trkpt lat="45.47629" lon="4.68385">
        <ele>601</ele>
        <time>2015-06-07T10:18:32Z</time>
      </trkpt>
      <trkpt lat="45.47628" lon="4.68401">
        <ele>601</ele>
        <time>2015-06-07T10:18:37Z</time>
      </trkpt>
      <trkpt lat="45.47626" lon="4.68417">
        <ele>603</ele>
        <time>2015-06-07T10:18:43Z</time>
      </trkpt>
      <trkpt lat="45.47621" lon="4.6844">
        <ele>603</ele>
        <time>2015-06-07T10:18:49Z</time>
      </trkpt>
      <trkpt lat="45.47618" lon="4.6845">
        <ele>604</ele>
        <time>2015-06-07T10:18:53Z</time>
      </trkpt>
      <trkpt lat="45.47614" lon="4.68466">
        <ele>603</ele>
        <time>2015-06-07T10:18:58Z</time>
      </trkpt>
      <trkpt lat="45.4761" lon="4.68485">
        <ele>604</ele>
        <time>2015-06-07T10:19:03Z</time>
      </trkpt>
      <trkpt lat="45.47602" lon="4.68516">
        <ele>603</ele>
        <time>2015-06-07T10:19:08Z</time>
      </trkpt>
      <trkpt lat="45.47587" lon="4.68567">
        <ele>600</ele>
        <time>2015-06-07T10:19:12Z</time>
      </trkpt>
      <trkpt lat="45.4756" lon="4.68614">
        <ele>597</ele>
        <time>2015-06-07T10:19:18Z</time>
      </trkpt>
      <trkpt lat="45.4756" lon="4.68672">
        <ele>599</ele>
        <time>2015-06-07T10:19:23Z</time>
      </trkpt>
      <trkpt lat="45.47585" lon="4.68697">
        <ele>601</ele>
        <time>2015-06-07T10:19:28Z</time>
      </trkpt>
      <trkpt lat="45.47605" lon="4.68718">
        <ele>602</ele>
        <time>2015-06-07T10:19:33Z</time>
      </trkpt>
      <trkpt lat="45.47626" lon="4.68739">
        <ele>601</ele>
        <time>2015-06-07T10:19:37Z</time>
      </trkpt>
      <trkpt lat="45.47645" lon="4.68762">
        <ele>601</ele>
        <time>2015-06-07T10:19:42Z</time>
      </trkpt>
      <trkpt lat="45.4766" lon="4.68782">
        <ele>602</ele>
        <time>2015-06-07T10:19:48Z</time>
      </trkpt>
      <trkpt lat="45.47673" lon="4.688">
        <ele>603</ele>
        <time>2015-06-07T10:19:53Z</time>
      </trkpt>
      <trkpt lat="45.47681" lon="4.68824">
        <ele>604</ele>
        <time>2015-06-07T10:19:57Z</time>
      </trkpt>
      <trkpt lat="45.47686" lon="4.68848">
        <ele>604</ele>
        <time>2015-06-07T10:20:02Z</time>
      </trkpt>
      <trkpt lat="45.47689" lon="4.68872">
        <ele>605</ele>
        <time>2015-06-07T10:20:07Z</time>
      </trkpt>
      <trkpt lat="45.47682" lon="4.68915">
        <ele>602</ele>
        <time>2015-06-07T10:20:12Z</time>
      </trkpt>
      <trkpt lat="45.4766" lon="4.68974">
        <ele>598</ele>
        <time>2015-06-07T10:20:18Z</time>
      </trkpt>
      <trkpt lat="45.47673" lon="4.69024">
        <ele>601</ele>
        <time>2015-06-07T10:20:24Z</time>
      </trkpt>
      <trkpt lat="45.47683" lon="4.69041">
        <ele>600</ele>
        <time>2015-06-07T10:20:28Z</time>
      </trkpt>
      <trkpt lat="45.47691" lon="4.69047">
        <ele>603</ele>
        <time>2015-06-07T10:20:33Z</time>
      </trkpt>
      <trkpt lat="45.47698" lon="4.69057">
        <ele>607</ele>
        <time>2015-06-07T10:20:38Z</time>
      </trkpt>
      <trkpt lat="45.47704" lon="4.69064">
        <ele>611</ele>
        <time>2015-06-07T10:20:42Z</time>
      </trkpt>
      <trkpt lat="45.47709" lon="4.69072">
        <ele>612</ele>
        <time>2015-06-07T10:20:48Z</time>
      </trkpt>
      <trkpt lat="45.47715" lon="4.69085">
        <ele>612</ele>
        <time>2015-06-07T10:20:53Z</time>
      </trkpt>
      <trkpt lat="45.47722" lon="4.69107">
        <ele>609</ele>
        <time>2015-06-07T10:20:58Z</time>
      </trkpt>
      <trkpt lat="45.4773" lon="4.69122">
        <ele>610</ele>
        <time>2015-06-07T10:21:04Z</time>
      </trkpt>
      <trkpt lat="45.47734" lon="4.69131">
        <ele>614</ele>
        <time>2015-06-07T10:21:07Z</time>
      </trkpt>
      <trkpt lat="45.47741" lon="4.69151">
        <ele>613</ele>
        <time>2015-06-07T10:21:13Z</time>
      </trkpt>
      <trkpt lat="45.47745" lon="4.69168">
        <ele>616</ele>
        <time>2015-06-07T10:21:17Z</time>
      </trkpt>
      <trkpt lat="45.4775" lon="4.69187">
        <ele>622</ele>
        <time>2015-06-07T10:21:23Z</time>
      </trkpt>
      <trkpt lat="45.47757" lon="4.69217">
        <ele>622</ele>
        <time>2015-06-07T10:21:30Z</time>
      </trkpt>
      <trkpt lat="45.4776" lon="4.69247">
        <ele>629</ele>
        <time>2015-06-07T10:21:37Z</time>
      </trkpt>
      <trkpt lat="45.4776" lon="4.6925">
        <ele>632</ele>
        <time>2015-06-07T10:21:38Z</time>
      </trkpt>
      <trkpt lat="45.47762" lon="4.69273">
        <ele>635</ele>
        <time>2015-06-07T10:21:42Z</time>
      </trkpt>
      <trkpt lat="45.47761" lon="4.69316">
        <ele>635</ele>
        <time>2015-06-07T10:21:52Z</time>
      </trkpt>
      <trkpt lat="45.4776" lon="4.69341">
        <ele>634</ele>
        <time>2015-06-07T10:21:57Z</time>
      </trkpt>
      <trkpt lat="45.47759" lon="4.69346">
        <ele>634</ele>
        <time>2015-06-07T10:21:58Z</time>
      </trkpt>
      <trkpt lat="45.47743" lon="4.69396">
        <ele>633</ele>
        <time>2015-06-07T10:22:07Z</time>
      </trkpt>
      <trkpt lat="45.47741" lon="4.69402">
        <ele>633</ele>
        <time>2015-06-07T10:22:08Z</time>
      </trkpt>
      <trkpt lat="45.4772" lon="4.69441">
        <ele>631</ele>
        <time>2015-06-07T10:22:17Z</time>
      </trkpt>
      <trkpt lat="45.47716" lon="4.69444">
        <ele>631</ele>
        <time>2015-06-07T10:22:18Z</time>
      </trkpt>
      <trkpt lat="45.47699" lon="4.69461">
        <ele>629</ele>
        <time>2015-06-07T10:22:22Z</time>
      </trkpt>
      <trkpt lat="45.4767" lon="4.6949">
        <ele>628</ele>
        <time>2015-06-07T10:22:30Z</time>
      </trkpt>
      <trkpt lat="45.47665" lon="4.695">
        <ele>630</ele>
        <time>2015-06-07T10:22:32Z</time>
      </trkpt>
      <trkpt lat="45.4765" lon="4.69538">
        <ele>632</ele>
        <time>2015-06-07T10:22:40Z</time>
      </trkpt>
      <trkpt lat="45.47647" lon="4.69554">
        <ele>634</ele>
        <time>2015-06-07T10:22:42Z</time>
      </trkpt>
      <trkpt lat="45.4764" lon="4.69579">
        <ele>635</ele>
        <time>2015-06-07T10:22:47Z</time>
      </trkpt>
      <trkpt lat="45.47637" lon="4.69607">
        <ele>635</ele>
        <time>2015-06-07T10:22:53Z</time>
      </trkpt>
      <trkpt lat="45.47632" lon="4.69653">
        <ele>635</ele>
        <time>2015-06-07T10:23:01Z</time>
      </trkpt>
      <trkpt lat="45.47632" lon="4.69663">
        <ele>636</ele>
        <time>2015-06-07T10:23:02Z</time>
      </trkpt>
      <trkpt lat="45.47637" lon="4.69688">
        <ele>636</ele>
        <time>2015-06-07T10:23:07Z</time>
      </trkpt>
      <trkpt lat="45.47641" lon="4.69707">
        <ele>634</ele>
        <time>2015-06-07T10:23:12Z</time>
      </trkpt>
      <trkpt lat="45.47641" lon="4.69706">
        <ele>635</ele>
        <time>2015-06-07T10:23:17Z</time>
      </trkpt>
      <trkpt lat="45.4764" lon="4.69706">
        <ele>635</ele>
        <time>2015-06-07T10:23:21Z</time>
      </trkpt>
      <trkpt lat="45.4764" lon="4.69705">
        <ele>636</ele>
        <time>2015-06-07T10:23:23Z</time>
      </trkpt>
      <trkpt lat="45.4764" lon="4.69705">
        <ele>636</ele>
        <time>2015-06-07T10:23:26Z</time>
      </trkpt>
      <trkpt lat="45.4764" lon="4.69705">
        <ele>636</ele>
        <time>2015-06-07T10:23:32Z</time>
      </trkpt>
      <trkpt lat="45.4764" lon="4.69705">
        <ele>636</ele>
        <time>2015-06-07T10:23:32Z</time>
      </trkpt>
      <trkpt lat="45.4764" lon="4.69705">
        <ele>636</ele>
        <time>2015-06-07T10:23:35Z</time>
      </trkpt>
      <trkpt lat="45.4764" lon="4.69705">
        <ele>636</ele>
        <time>2015-06-07T10:23:38Z</time>
      </trkpt>
      <trkpt lat="45.4764" lon="4.69705">
        <ele>636</ele>
        <time>2015-06-07T10:23:41Z</time>
      </trkpt>
      <trkpt lat="45.4764" lon="4.69704">
        <ele>636</ele>
        <time>2015-06-07T10:23:45Z</time>
      </trkpt>
      <trkpt lat="45.47641" lon="4.69703">
        <ele>637</ele>
        <time>2015-06-07T10:23:47Z</time>
      </trkpt>
      <trkpt lat="45.47642" lon="4.69703">
        <ele>638</ele>
        <time>2015-06-07T10:23:50Z</time>
      </trkpt>
      <trkpt lat="45.47641" lon="4.69703">
        <ele>637</ele>
        <time>2015-06-07T10:23:53Z</time>
      </trkpt>
      <trkpt lat="45.47641" lon="4.69704">
        <ele>637</ele>
        <time>2015-06-07T10:23:56Z</time>
      </trkpt>
      <trkpt lat="45.47641" lon="4.69704">
        <ele>637</ele>
        <time>2015-06-07T10:23:59Z</time>
      </trkpt>
      <trkpt lat="45.47641" lon="4.69704">
        <ele>637</ele>
        <time>2015-06-07T10:24:02Z</time>
      </trkpt>
      <trkpt lat="45.47641" lon="4.69704">
        <ele>637</ele>
        <time>2015-06-07T10:24:05Z</time>
      </trkpt>
      <trkpt lat="45.47641" lon="4.69704">
        <ele>637</ele>
        <time>2015-06-07T10:24:08Z</time>
      </trkpt>
      <trkpt lat="45.4764" lon="4.69704">
        <ele>637</ele>
        <time>2015-06-07T10:24:11Z</time>
      </trkpt>
      <trkpt lat="45.47632" lon="4.69717">
        <ele>631</ele>
        <time>2015-06-07T10:24:17Z</time>
      </trkpt>
      <trkpt lat="45.47593" lon="4.69748">
        <ele>627</ele>
        <time>2015-06-07T10:24:25Z</time>
      </trkpt>
      <trkpt lat="45.47582" lon="4.69759">
        <ele>626</ele>
        <time>2015-06-07T10:24:27Z</time>
      </trkpt>
      <trkpt lat="45.47562" lon="4.6979">
        <ele>625</ele>
        <time>2015-06-07T10:24:32Z</time>
      </trkpt>
      <trkpt lat="45.47527" lon="4.69867">
        <ele>620</ele>
        <time>2015-06-07T10:24:39Z</time>
      </trkpt>
      <trkpt lat="45.47515" lon="4.69905">
        <ele>621</ele>
        <time>2015-06-07T10:24:42Z</time>
      </trkpt>
      <trkpt lat="45.47473" lon="4.70037">
        <ele>618</ele>
        <time>2015-06-07T10:24:51Z</time>
      </trkpt>
      <trkpt lat="45.47458" lon="4.70105">
        <ele>615</ele>
        <time>2015-06-07T10:24:55Z</time>
      </trkpt>
      <trkpt lat="45.4745" lon="4.70138">
        <ele>614</ele>
        <time>2015-06-07T10:24:57Z</time>
      </trkpt>
      <trkpt lat="45.47401" lon="4.70243">
        <ele>612</ele>
        <time>2015-06-07T10:25:04Z</time>
      </trkpt>
      <trkpt lat="45.47345" lon="4.70355">
        <ele>602</ele>
        <time>2015-06-07T10:25:11Z</time>
      </trkpt>
      <trkpt lat="45.47312" lon="4.70409">
        <ele>598</ele>
        <time>2015-06-07T10:25:15Z</time>
      </trkpt>
      <trkpt lat="45.47294" lon="4.70427">
        <ele>596</ele>
        <time>2015-06-07T10:25:17Z</time>
      </trkpt>
      <trkpt lat="45.47212" lon="4.70366">
        <ele>588</ele>
        <time>2015-06-07T10:25:25Z</time>
      </trkpt>
      <trkpt lat="45.47187" lon="4.70313">
        <ele>585</ele>
        <time>2015-06-07T10:25:29Z</time>
      </trkpt>
      <trkpt lat="45.47167" lon="4.70275">
        <ele>584</ele>
        <time>2015-06-07T10:25:32Z</time>
      </trkpt>
      <trkpt lat="45.47124" lon="4.70219">
        <ele>580</ele>
        <time>2015-06-07T10:25:36Z</time>
      </trkpt>
      <trkpt lat="45.47077" lon="4.70195">
        <ele>577</ele>
        <time>2015-06-07T10:25:42Z</time>
      </trkpt>
      <trkpt lat="45.47029" lon="4.70227">
        <ele>575</ele>
        <time>2015-06-07T10:25:47Z</time>
      </trkpt>
      <trkpt lat="45.46975" lon="4.7025">
        <ele>570</ele>
        <time>2015-06-07T10:25:51Z</time>
      </trkpt>
      <trkpt lat="45.46918" lon="4.70245">
        <ele>567</ele>
        <time>2015-06-07T10:25:56Z</time>
      </trkpt>
      <trkpt lat="45.46836" lon="4.70243">
        <ele>559</ele>
        <time>2015-06-07T10:26:04Z</time>
      </trkpt>
      <trkpt lat="45.46804" lon="4.70294">
        <ele>555</ele>
        <time>2015-06-07T10:26:08Z</time>
      </trkpt>
      <trkpt lat="45.46789" lon="4.70359">
        <ele>555</ele>
        <time>2015-06-07T10:26:12Z</time>
      </trkpt>
      <trkpt lat="45.46775" lon="4.70441">
        <ele>554</ele>
        <time>2015-06-07T10:26:17Z</time>
      </trkpt>
      <trkpt lat="45.46759" lon="4.70541">
        <ele>551</ele>
        <time>2015-06-07T10:26:24Z</time>
      </trkpt>
      <trkpt lat="45.46775" lon="4.70551">
        <ele>547</ele>
        <time>2015-06-07T10:26:26Z</time>
      </trkpt>
      <trkpt lat="45.46809" lon="4.70513">
        <ele>545</ele>
        <time>2015-06-07T10:26:31Z</time>
      </trkpt>
      <trkpt lat="45.46815" lon="4.70451">
        <ele>544</ele>
        <time>2015-06-07T10:26:36Z</time>
      </trkpt>
      <trkpt lat="45.46836" lon="4.70397">
        <ele>543</ele>
        <time>2015-06-07T10:26:41Z</time>
      </trkpt>
      <trkpt lat="45.46861" lon="4.7035">
        <ele>542</ele>
        <time>2015-06-07T10:26:47Z</time>
      </trkpt>
      <trkpt lat="45.469" lon="4.7035">
        <ele>542</ele>
        <time>2015-06-07T10:26:52Z</time>
      </trkpt>
      <trkpt lat="45.46931" lon="4.7039">
        <ele>540</ele>
        <time>2015-06-07T10:26:58Z</time>
      </trkpt>
      <trkpt lat="45.46953" lon="4.70393">
        <ele>538</ele>
        <time>2015-06-07T10:27:02Z</time>
      </trkpt>
      <trkpt lat="45.46986" lon="4.70384">
        <ele>539</ele>
        <time>2015-06-07T10:27:07Z</time>
      </trkpt>
      <trkpt lat="45.47038" lon="4.70377">
        <ele>537</ele>
        <time>2015-06-07T10:27:14Z</time>
      </trkpt>
      <trkpt lat="45.47057" lon="4.70399">
        <ele>535</ele>
        <time>2015-06-07T10:27:17Z</time>
      </trkpt>
      <trkpt lat="45.47079" lon="4.7045">
        <ele>532</ele>
        <time>2015-06-07T10:27:21Z</time>
      </trkpt>
      <trkpt lat="45.4712" lon="4.70542">
        <ele>524</ele>
        <time>2015-06-07T10:27:31Z</time>
      </trkpt>
      <trkpt lat="45.47125" lon="4.70552">
        <ele>524</ele>
        <time>2015-06-07T10:27:32Z</time>
      </trkpt>
      <trkpt lat="45.4715" lon="4.70606">
        <ele>522</ele>
        <time>2015-06-07T10:27:37Z</time>
      </trkpt>
      <trkpt lat="45.4717" lon="4.70664">
        <ele>519</ele>
        <time>2015-06-07T10:27:42Z</time>
      </trkpt>
      <trkpt lat="45.47191" lon="4.70723">
        <ele>518</ele>
        <time>2015-06-07T10:27:47Z</time>
      </trkpt>
      <trkpt lat="45.47235" lon="4.70745">
        <ele>516</ele>
        <time>2015-06-07T10:27:52Z</time>
      </trkpt>
      <trkpt lat="45.47282" lon="4.70726">
        <ele>516</ele>
        <time>2015-06-07T10:27:57Z</time>
      </trkpt>
      <trkpt lat="45.47329" lon="4.70703">
        <ele>516</ele>
        <time>2015-06-07T10:28:02Z</time>
      </trkpt>
      <trkpt lat="45.47375" lon="4.70675">
        <ele>517</ele>
        <time>2015-06-07T10:28:07Z</time>
      </trkpt>
      <trkpt lat="45.47412" lon="4.70633">
        <ele>519</ele>
        <time>2015-06-07T10:28:12Z</time>
      </trkpt>
      <trkpt lat="45.47458" lon="4.70583">
        <ele>520</ele>
        <time>2015-06-07T10:28:18Z</time>
      </trkpt>
      <trkpt lat="45.47488" lon="4.70611">
        <ele>519</ele>
        <time>2015-06-07T10:28:22Z</time>
      </trkpt>
      <trkpt lat="45.47495" lon="4.70672">
        <ele>510</ele>
        <time>2015-06-07T10:28:27Z</time>
      </trkpt>
      <trkpt lat="45.47493" lon="4.70742">
        <ele>504</ele>
        <time>2015-06-07T10:28:32Z</time>
      </trkpt>
      <trkpt lat="45.47481" lon="4.70817">
        <ele>501</ele>
        <time>2015-06-07T10:28:37Z</time>
      </trkpt>
      <trkpt lat="45.47464" lon="4.70891">
        <ele>497</ele>
        <time>2015-06-07T10:28:42Z</time>
      </trkpt>
      <trkpt lat="45.4746" lon="4.70989">
        <ele>494</ele>
        <time>2015-06-07T10:28:48Z</time>
      </trkpt>
      <trkpt lat="45.4747" lon="4.71054">
        <ele>491</ele>
        <time>2015-06-07T10:28:52Z</time>
      </trkpt>
      <trkpt lat="45.47465" lon="4.71138">
        <ele>487</ele>
        <time>2015-06-07T10:28:57Z</time>
      </trkpt>
      <trkpt lat="45.47465" lon="4.71225">
        <ele>485</ele>
        <time>2015-06-07T10:29:02Z</time>
      </trkpt>
      <trkpt lat="45.47487" lon="4.7131">
        <ele>479</ele>
        <time>2015-06-07T10:29:07Z</time>
      </trkpt>
      <trkpt lat="45.47493" lon="4.71397">
        <ele>476</ele>
        <time>2015-06-07T10:29:11Z</time>
      </trkpt>
      <trkpt lat="45.47467" lon="4.71471">
        <ele>474</ele>
        <time>2015-06-07T10:29:17Z</time>
      </trkpt>
      <trkpt lat="45.47477" lon="4.7157">
        <ele>471</ele>
        <time>2015-06-07T10:29:22Z</time>
      </trkpt>
      <trkpt lat="45.475" lon="4.71651">
        <ele>466</ele>
        <time>2015-06-07T10:29:27Z</time>
      </trkpt>
      <trkpt lat="45.47507" lon="4.71685">
        <ele>463</ele>
        <time>2015-06-07T10:29:29Z</time>
      </trkpt>
      <trkpt lat="45.475" lon="4.71776">
        <ele>458</ele>
        <time>2015-06-07T10:29:34Z</time>
      </trkpt>
      <trkpt lat="45.47476" lon="4.71858">
        <ele>453</ele>
        <time>2015-06-07T10:29:39Z</time>
      </trkpt>
      <trkpt lat="45.47485" lon="4.71923">
        <ele>448</ele>
        <time>2015-06-07T10:29:44Z</time>
      </trkpt>
      <trkpt lat="45.47479" lon="4.71955">
        <ele>445</ele>
        <time>2015-06-07T10:29:49Z</time>
      </trkpt>
      <trkpt lat="45.47455" lon="4.71928">
        <ele>445</ele>
        <time>2015-06-07T10:29:54Z</time>
      </trkpt>
      <trkpt lat="45.47441" lon="4.71906">
        <ele>443</ele>
        <time>2015-06-07T10:29:59Z</time>
      </trkpt>
      <trkpt lat="45.4744" lon="4.71908">
        <ele>443</ele>
        <time>2015-06-07T10:30:04Z</time>
      </trkpt>
      <trkpt lat="45.4744" lon="4.71907">
        <ele>443</ele>
        <time>2015-06-07T10:30:07Z</time>
      </trkpt>
      <trkpt lat="45.4744" lon="4.71908">
        <ele>443</ele>
        <time>2015-06-07T10:30:10Z</time>
      </trkpt>
      <trkpt lat="45.4744" lon="4.71907">
        <ele>443</ele>
        <time>2015-06-07T10:30:13Z</time>
      </trkpt>
      <trkpt lat="45.4744" lon="4.71907">
        <ele>443</ele>
        <time>2015-06-07T10:30:16Z</time>
      </trkpt>
      <trkpt lat="45.4744" lon="4.71907">
        <ele>443</ele>
        <time>2015-06-07T10:30:20Z</time>
      </trkpt>
      <trkpt lat="45.47435" lon="4.71902">
        <ele>445</ele>
        <time>2015-06-07T10:30:25Z</time>
      </trkpt>
      <trkpt lat="45.47428" lon="4.71891">
        <ele>444</ele>
        <time>2015-06-07T10:30:28Z</time>
      </trkpt>
      <trkpt lat="45.4741" lon="4.71869">
        <ele>442</ele>
        <time>2015-06-07T10:30:33Z</time>
      </trkpt>
      <trkpt lat="45.47388" lon="4.7184">
        <ele>443</ele>
        <time>2015-06-07T10:30:37Z</time>
      </trkpt>
      <trkpt lat="45.47363" lon="4.71806">
        <ele>442</ele>
        <time>2015-06-07T10:30:42Z</time>
      </trkpt>
      <trkpt lat="45.47335" lon="4.71772">
        <ele>440</ele>
        <time>2015-06-07T10:30:47Z</time>
      </trkpt>
      <trkpt lat="45.47308" lon="4.71736">
        <ele>435</ele>
        <time>2015-06-07T10:30:52Z</time>
      </trkpt>
      <trkpt lat="45.47283" lon="4.71707">
        <ele>435</ele>
        <time>2015-06-07T10:30:57Z</time>
      </trkpt>
      <trkpt lat="45.4726" lon="4.71689">
        <ele>435</ele>
        <time>2015-06-07T10:31:02Z</time>
      </trkpt>
      <trkpt lat="45.47255" lon="4.71715">
        <ele>434</ele>
        <time>2015-06-07T10:31:08Z</time>
      </trkpt>
      <trkpt lat="45.47257" lon="4.71768">
        <ele>430</ele>
        <time>2015-06-07T10:31:12Z</time>
      </trkpt>
      <trkpt lat="45.47259" lon="4.7183">
        <ele>427</ele>
        <time>2015-06-07T10:31:17Z</time>
      </trkpt>
      <trkpt lat="45.47248" lon="4.71904">
        <ele>424</ele>
        <time>2015-06-07T10:31:23Z</time>
      </trkpt>
      <trkpt lat="45.47233" lon="4.71982">
        <ele>422</ele>
        <time>2015-06-07T10:31:28Z</time>
      </trkpt>
      <trkpt lat="45.47207" lon="4.72049">
        <ele>418</ele>
        <time>2015-06-07T10:31:32Z</time>
      </trkpt>
      <trkpt lat="45.47179" lon="4.72078">
        <ele>416</ele>
        <time>2015-06-07T10:31:37Z</time>
      </trkpt>
      <trkpt lat="45.47175" lon="4.72101">
        <ele>415</ele>
        <time>2015-06-07T10:31:43Z</time>
      </trkpt>
      <trkpt lat="45.47189" lon="4.72129">
        <ele>414</ele>
        <time>2015-06-07T10:31:49Z</time>
      </trkpt>
      <trkpt lat="45.47196" lon="4.72142">
        <ele>415</ele>
        <time>2015-06-07T10:31:53Z</time>
      </trkpt>
      <trkpt lat="45.47214" lon="4.72169">
        <ele>415</ele>
        <time>2015-06-07T10:32:00Z</time>
      </trkpt>
      <trkpt lat="45.47222" lon="4.72179">
        <ele>416</ele>
        <time>2015-06-07T10:32:02Z</time>
      </trkpt>
      <trkpt lat="45.47236" lon="4.72192">
        <ele>417</ele>
        <time>2015-06-07T10:32:07Z</time>
      </trkpt>
      <trkpt lat="45.47255" lon="4.72206">
        <ele>418</ele>
        <time>2015-06-07T10:32:12Z</time>
      </trkpt>
      <trkpt lat="45.47272" lon="4.72219">
        <ele>418</ele>
        <time>2015-06-07T10:32:17Z</time>
      </trkpt>
      <trkpt lat="45.4729" lon="4.72232">
        <ele>419</ele>
        <time>2015-06-07T10:32:23Z</time>
      </trkpt>
      <trkpt lat="45.47307" lon="4.72247">
        <ele>419</ele>
        <time>2015-06-07T10:32:27Z</time>
      </trkpt>
      <trkpt lat="45.47323" lon="4.7226">
        <ele>420</ele>
        <time>2015-06-07T10:32:32Z</time>
      </trkpt>
      <trkpt lat="45.47338" lon="4.72278">
        <ele>421</ele>
        <time>2015-06-07T10:32:38Z</time>
      </trkpt>
      <trkpt lat="45.47352" lon="4.72297">
        <ele>422</ele>
        <time>2015-06-07T10:32:42Z</time>
      </trkpt>
      <trkpt lat="45.47367" lon="4.72317">
        <ele>424</ele>
        <time>2015-06-07T10:32:48Z</time>
      </trkpt>
      <trkpt lat="45.47381" lon="4.72338">
        <ele>427</ele>
        <time>2015-06-07T10:32:53Z</time>
      </trkpt>
      <trkpt lat="45.47397" lon="4.72361">
        <ele>426</ele>
        <time>2015-06-07T10:32:57Z</time>
      </trkpt>
      <trkpt lat="45.47417" lon="4.72389">
        <ele>427</ele>
        <time>2015-06-07T10:33:05Z</time>
      </trkpt>
      <trkpt lat="45.47427" lon="4.72399">
        <ele>427</ele>
        <time>2015-06-07T10:33:08Z</time>
      </trkpt>
      <trkpt lat="45.47443" lon="4.72417">
        <ele>428</ele>
        <time>2015-06-07T10:33:13Z</time>
      </trkpt>
      <trkpt lat="45.47462" lon="4.72437">
        <ele>428</ele>
        <time>2015-06-07T10:33:19Z</time>
      </trkpt>
      <trkpt lat="45.47475" lon="4.72451">
        <ele>428</ele>
        <time>2015-06-07T10:33:22Z</time>
      </trkpt>
      <trkpt lat="45.47492" lon="4.72465">
        <ele>428</ele>
        <time>2015-06-07T10:33:27Z</time>
      </trkpt>
      <trkpt lat="45.4751" lon="4.72476">
        <ele>428</ele>
        <time>2015-06-07T10:33:32Z</time>
      </trkpt>
      <trkpt lat="45.47532" lon="4.72487">
        <ele>428</ele>
        <time>2015-06-07T10:33:37Z</time>
      </trkpt>
      <trkpt lat="45.47554" lon="4.72498">
        <ele>428</ele>
        <time>2015-06-07T10:33:43Z</time>
      </trkpt>
      <trkpt lat="45.47576" lon="4.72512">
        <ele>428</ele>
        <time>2015-06-07T10:33:48Z</time>
      </trkpt>
      <trkpt lat="45.47602" lon="4.72528">
        <ele>427</ele>
        <time>2015-06-07T10:33:52Z</time>
      </trkpt>
      <trkpt lat="45.47632" lon="4.72545">
        <ele>426</ele>
        <time>2015-06-07T10:33:57Z</time>
      </trkpt>
      <trkpt lat="45.47662" lon="4.72558">
        <ele>426</ele>
        <time>2015-06-07T10:34:03Z</time>
      </trkpt>
      <trkpt lat="45.4769" lon="4.72568">
        <ele>424</ele>
        <time>2015-06-07T10:34:08Z</time>
      </trkpt>
      <trkpt lat="45.47716" lon="4.72575">
        <ele>426</ele>
        <time>2015-06-07T10:34:12Z</time>
      </trkpt>
      <trkpt lat="45.47738" lon="4.72581">
        <ele>427</ele>
        <time>2015-06-07T10:34:17Z</time>
      </trkpt>
      <trkpt lat="45.47761" lon="4.72583">
        <ele>428</ele>
        <time>2015-06-07T10:34:22Z</time>
      </trkpt>
      <trkpt lat="45.47784" lon="4.72585">
        <ele>430</ele>
        <time>2015-06-07T10:34:27Z</time>
      </trkpt>
      <trkpt lat="45.47808" lon="4.72584">
        <ele>431</ele>
        <time>2015-06-07T10:34:32Z</time>
      </trkpt>
      <trkpt lat="45.47831" lon="4.72584">
        <ele>433</ele>
        <time>2015-06-07T10:34:37Z</time>
      </trkpt>
      <trkpt lat="45.47854" lon="4.72584">
        <ele>433</ele>
        <time>2015-06-07T10:34:43Z</time>
      </trkpt>
      <trkpt lat="45.47878" lon="4.72583">
        <ele>434</ele>
        <time>2015-06-07T10:34:48Z</time>
      </trkpt>
      <trkpt lat="45.47901" lon="4.72584">
        <ele>434</ele>
        <time>2015-06-07T10:34:52Z</time>
      </trkpt>
      <trkpt lat="45.47923" lon="4.72583">
        <ele>436</ele>
        <time>2015-06-07T10:34:58Z</time>
      </trkpt>
      <trkpt lat="45.47947" lon="4.72581">
        <ele>436</ele>
        <time>2015-06-07T10:35:03Z</time>
      </trkpt>
      <trkpt lat="45.47972" lon="4.72577">
        <ele>435</ele>
        <time>2015-06-07T10:35:08Z</time>
      </trkpt>
      <trkpt lat="45.47997" lon="4.72574">
        <ele>434</ele>
        <time>2015-06-07T10:35:12Z</time>
      </trkpt>
      <trkpt lat="45.48025" lon="4.72567">
        <ele>433</ele>
        <time>2015-06-07T10:35:17Z</time>
      </trkpt>
      <trkpt lat="45.48057" lon="4.72559">
        <ele>431</ele>
        <time>2015-06-07T10:35:22Z</time>
      </trkpt>
      <trkpt lat="45.48088" lon="4.72538">
        <ele>429</ele>
        <time>2015-06-07T10:35:28Z</time>
      </trkpt>
      <trkpt lat="45.48116" lon="4.72504">
        <ele>427</ele>
        <time>2015-06-07T10:35:33Z</time>
      </trkpt>
      <trkpt lat="45.48148" lon="4.72471">
        <ele>426</ele>
        <time>2015-06-07T10:35:38Z</time>
      </trkpt>
      <trkpt lat="45.48182" lon="4.72457">
        <ele>424</ele>
        <time>2015-06-07T10:35:41Z</time>
      </trkpt>
      <trkpt lat="45.4822" lon="4.72449">
        <ele>425</ele>
        <time>2015-06-07T10:35:46Z</time>
      </trkpt>
      <trkpt lat="45.48258" lon="4.72441">
        <ele>426</ele>
        <time>2015-06-07T10:35:51Z</time>
      </trkpt>
      <trkpt lat="45.48294" lon="4.72457">
        <ele>426</ele>
        <time>2015-06-07T10:35:56Z</time>
      </trkpt>
      <trkpt lat="45.48322" lon="4.72469">
        <ele>428</ele>
        <time>2015-06-07T10:36:02Z</time>
      </trkpt>
      <trkpt lat="45.48345" lon="4.72481">
        <ele>429</ele>
        <time>2015-06-07T10:36:06Z</time>
      </trkpt>
      <trkpt lat="45.48383" lon="4.72494">
        <ele>433</ele>
        <time>2015-06-07T10:36:16Z</time>
      </trkpt>
      <trkpt lat="45.48386" lon="4.72494">
        <ele>434</ele>
        <time>2015-06-07T10:36:16Z</time>
      </trkpt>
      <trkpt lat="45.48404" lon="4.72492">
        <ele>432</ele>
        <time>2015-06-07T10:36:21Z</time>
      </trkpt>
      <trkpt lat="45.48421" lon="4.72486">
        <ele>433</ele>
        <time>2015-06-07T10:36:26Z</time>
      </trkpt>
      <trkpt lat="45.48437" lon="4.72473">
        <ele>434</ele>
        <time>2015-06-07T10:36:31Z</time>
      </trkpt>
      <trkpt lat="45.48454" lon="4.72458">
        <ele>435</ele>
        <time>2015-06-07T10:36:36Z</time>
      </trkpt>
      <trkpt lat="45.4847" lon="4.72445">
        <ele>438</ele>
        <time>2015-06-07T10:36:41Z</time>
      </trkpt>
      <trkpt lat="45.48484" lon="4.72432">
        <ele>439</ele>
        <time>2015-06-07T10:36:46Z</time>
      </trkpt>
      <trkpt lat="45.48498" lon="4.7242">
        <ele>438</ele>
        <time>2015-06-07T10:36:51Z</time>
      </trkpt>
      <trkpt lat="45.48511" lon="4.72405">
        <ele>440</ele>
        <time>2015-06-07T10:36:56Z</time>
      </trkpt>
      <trkpt lat="45.48523" lon="4.72394">
        <ele>439</ele>
        <time>2015-06-07T10:37:01Z</time>
      </trkpt>
      <trkpt lat="45.48535" lon="4.72382">
        <ele>440</ele>
        <time>2015-06-07T10:37:06Z</time>
      </trkpt>
      <trkpt lat="45.48548" lon="4.72368">
        <ele>439</ele>
        <time>2015-06-07T10:37:11Z</time>
      </trkpt>
      <trkpt lat="45.48558" lon="4.72358">
        <ele>440</ele>
        <time>2015-06-07T10:37:16Z</time>
      </trkpt>
      <trkpt lat="45.48569" lon="4.72347">
        <ele>441</ele>
        <time>2015-06-07T10:37:22Z</time>
      </trkpt>
      <trkpt lat="45.48586" lon="4.72332">
        <ele>443</ele>
        <time>2015-06-07T10:37:29Z</time>
      </trkpt>
      <trkpt lat="45.48593" lon="4.72325">
        <ele>444</ele>
        <time>2015-06-07T10:37:32Z</time>
      </trkpt>
      <trkpt lat="45.48607" lon="4.72316">
        <ele>445</ele>
        <time>2015-06-07T10:37:37Z</time>
      </trkpt>
      <trkpt lat="45.48621" lon="4.7231">
        <ele>445</ele>
        <time>2015-06-07T10:37:42Z</time>
      </trkpt>
      <trkpt lat="45.48637" lon="4.72303">
        <ele>445</ele>
        <time>2015-06-07T10:37:47Z</time>
      </trkpt>
      <trkpt lat="45.48651" lon="4.72296">
        <ele>446</ele>
        <time>2015-06-07T10:37:51Z</time>
      </trkpt>
      <trkpt lat="45.48663" lon="4.72288">
        <ele>448</ele>
        <time>2015-06-07T10:37:56Z</time>
      </trkpt>
      <trkpt lat="45.48675" lon="4.72283">
        <ele>452</ele>
        <time>2015-06-07T10:38:01Z</time>
      </trkpt>
      <trkpt lat="45.48688" lon="4.72276">
        <ele>452</ele>
        <time>2015-06-07T10:38:06Z</time>
      </trkpt>
      <trkpt lat="45.487" lon="4.72269">
        <ele>454</ele>
        <time>2015-06-07T10:38:11Z</time>
      </trkpt>
      <trkpt lat="45.48712" lon="4.72263">
        <ele>454</ele>
        <time>2015-06-07T10:38:16Z</time>
      </trkpt>
      <trkpt lat="45.48727" lon="4.72258">
        <ele>455</ele>
        <time>2015-06-07T10:38:21Z</time>
      </trkpt>
      <trkpt lat="45.48741" lon="4.72253">
        <ele>456</ele>
        <time>2015-06-07T10:38:27Z</time>
      </trkpt>
      <trkpt lat="45.48758" lon="4.72249">
        <ele>456</ele>
        <time>2015-06-07T10:38:32Z</time>
      </trkpt>
      <trkpt lat="45.48771" lon="4.7224">
        <ele>458</ele>
        <time>2015-06-07T10:38:36Z</time>
      </trkpt>
      <trkpt lat="45.48784" lon="4.72231">
        <ele>457</ele>
        <time>2015-06-07T10:38:42Z</time>
      </trkpt>
      <trkpt lat="45.48795" lon="4.72218">
        <ele>459</ele>
        <time>2015-06-07T10:38:47Z</time>
      </trkpt>
      <trkpt lat="45.48806" lon="4.72204">
        <ele>461</ele>
        <time>2015-06-07T10:38:51Z</time>
      </trkpt>
      <trkpt lat="45.48817" lon="4.72191">
        <ele>464</ele>
        <time>2015-06-07T10:38:56Z</time>
      </trkpt>
      <trkpt lat="45.48827" lon="4.72178">
        <ele>464</ele>
        <time>2015-06-07T10:39:01Z</time>
      </trkpt>
      <trkpt lat="45.4884" lon="4.72164">
        <ele>464</ele>
        <time>2015-06-07T10:39:06Z</time>
      </trkpt>
      <trkpt lat="45.48858" lon="4.72139">
        <ele>465</ele>
        <time>2015-06-07T10:39:16Z</time>
      </trkpt>
      <trkpt lat="45.4886" lon="4.72136">
        <ele>465</ele>
        <time>2015-06-07T10:39:17Z</time>
      </trkpt>
      <trkpt lat="45.4887" lon="4.72121">
        <ele>465</ele>
        <time>2015-06-07T10:39:22Z</time>
      </trkpt>
      <trkpt lat="45.48879" lon="4.72103">
        <ele>466</ele>
        <time>2015-06-07T10:39:27Z</time>
      </trkpt>
      <trkpt lat="45.48886" lon="4.72086">
        <ele>468</ele>
        <time>2015-06-07T10:39:31Z</time>
      </trkpt>
      <trkpt lat="45.48893" lon="4.72066">
        <ele>468</ele>
        <time>2015-06-07T10:39:37Z</time>
      </trkpt>
      <trkpt lat="45.48902" lon="4.72047">
        <ele>468</ele>
        <time>2015-06-07T10:39:42Z</time>
      </trkpt>
      <trkpt lat="45.48917" lon="4.72033">
        <ele>468</ele>
        <time>2015-06-07T10:39:47Z</time>
      </trkpt>
      <trkpt lat="45.48937" lon="4.72024">
        <ele>469</ele>
        <time>2015-06-07T10:39:52Z</time>
      </trkpt>
      <trkpt lat="45.4896" lon="4.7202">
        <ele>469</ele>
        <time>2015-06-07T10:39:57Z</time>
      </trkpt>
      <trkpt lat="45.48982" lon="4.72015">
        <ele>469</ele>
        <time>2015-06-07T10:40:02Z</time>
      </trkpt>
      <trkpt lat="45.49001" lon="4.72008">
        <ele>470</ele>
        <time>2015-06-07T10:40:07Z</time>
      </trkpt>
      <trkpt lat="45.49022" lon="4.72004">
        <ele>472</ele>
        <time>2015-06-07T10:40:12Z</time>
      </trkpt>
      <trkpt lat="45.49043" lon="4.71998">
        <ele>472</ele>
        <time>2015-06-07T10:40:17Z</time>
      </trkpt>
      <trkpt lat="45.49065" lon="4.71992">
        <ele>472</ele>
        <time>2015-06-07T10:40:22Z</time>
      </trkpt>
      <trkpt lat="45.49089" lon="4.71987">
        <ele>473</ele>
        <time>2015-06-07T10:40:27Z</time>
      </trkpt>
      <trkpt lat="45.49112" lon="4.7198">
        <ele>473</ele>
        <time>2015-06-07T10:40:32Z</time>
      </trkpt>
      <trkpt lat="45.49134" lon="4.71975">
        <ele>475</ele>
        <time>2015-06-07T10:40:36Z</time>
      </trkpt>
      <trkpt lat="45.49156" lon="4.71967">
        <ele>475</ele>
        <time>2015-06-07T10:40:41Z</time>
      </trkpt>
      <trkpt lat="45.49178" lon="4.71958">
        <ele>476</ele>
        <time>2015-06-07T10:40:46Z</time>
      </trkpt>
      <trkpt lat="45.492" lon="4.71946">
        <ele>476</ele>
        <time>2015-06-07T10:40:51Z</time>
      </trkpt>
      <trkpt lat="45.49217" lon="4.71928">
        <ele>478</ele>
        <time>2015-06-07T10:40:56Z</time>
      </trkpt>
      <trkpt lat="45.49231" lon="4.71906">
        <ele>479</ele>
        <time>2015-06-07T10:41:01Z</time>
      </trkpt>
      <trkpt lat="45.49245" lon="4.71883">
        <ele>478</ele>
        <time>2015-06-07T10:41:06Z</time>
      </trkpt>
      <trkpt lat="45.49256" lon="4.7186">
        <ele>478</ele>
        <time>2015-06-07T10:41:12Z</time>
      </trkpt>
      <trkpt lat="45.49268" lon="4.7184">
        <ele>479</ele>
        <time>2015-06-07T10:41:17Z</time>
      </trkpt>
      <trkpt lat="45.49278" lon="4.71822">
        <ele>480</ele>
        <time>2015-06-07T10:41:22Z</time>
      </trkpt>
      <trkpt lat="45.49285" lon="4.71806">
        <ele>480</ele>
        <time>2015-06-07T10:41:27Z</time>
      </trkpt>
      <trkpt lat="45.49292" lon="4.7179">
        <ele>480</ele>
        <time>2015-06-07T10:41:32Z</time>
      </trkpt>
      <trkpt lat="45.49301" lon="4.71774">
        <ele>481</ele>
        <time>2015-06-07T10:41:37Z</time>
      </trkpt>
      <trkpt lat="45.4931" lon="4.71758">
        <ele>479</ele>
        <time>2015-06-07T10:41:42Z</time>
      </trkpt>
      <trkpt lat="45.4932" lon="4.71745">
        <ele>479</ele>
        <time>2015-06-07T10:41:47Z</time>
      </trkpt>
      <trkpt lat="45.4932" lon="4.71735">
        <ele>479</ele>
        <time>2015-06-07T10:41:52Z</time>
      </trkpt>
      <trkpt lat="45.4932" lon="4.71735">
        <ele>480</ele>
        <time>2015-06-07T10:41:57Z</time>
      </trkpt>
      <trkpt lat="45.4932" lon="4.71736">
        <ele>480</ele>
        <time>2015-06-07T10:42:00Z</time>
      </trkpt>
      <trkpt lat="45.49321" lon="4.71736">
        <ele>481</ele>
        <time>2015-06-07T10:42:03Z</time>
      </trkpt>
      <trkpt lat="45.49321" lon="4.71737">
        <ele>481</ele>
        <time>2015-06-07T10:42:07Z</time>
      </trkpt>
      <trkpt lat="45.49321" lon="4.71737">
        <ele>481</ele>
        <time>2015-06-07T10:42:09Z</time>
      </trkpt>
      <trkpt lat="45.49321" lon="4.71737">
        <ele>481</ele>
        <time>2015-06-07T10:42:11Z</time>
      </trkpt>
      <trkpt lat="45.49321" lon="4.71737">
        <ele>481</ele>
        <time>2015-06-07T10:42:15Z</time>
      </trkpt>
      <trkpt lat="45.49321" lon="4.71737">
        <ele>481</ele>
        <time>2015-06-07T10:42:18Z</time>
      </trkpt>
      <trkpt lat="45.49321" lon="4.71737">
        <ele>482</ele>
        <time>2015-06-07T10:42:21Z</time>
      </trkpt>
      <trkpt lat="45.4932" lon="4.71738">
        <ele>483</ele>
        <time>2015-06-07T10:42:24Z</time>
      </trkpt>
      <trkpt lat="45.49321" lon="4.71737">
        <ele>483</ele>
        <time>2015-06-07T10:42:27Z</time>
      </trkpt>
      <trkpt lat="45.49322" lon="4.71738">
        <ele>484</ele>
        <time>2015-06-07T10:42:32Z</time>
      </trkpt>
      <trkpt lat="45.49323" lon="4.71736">
        <ele>483</ele>
        <time>2015-06-07T10:42:35Z</time>
      </trkpt>
      <trkpt lat="45.49326" lon="4.71736">
        <ele>486</ele>
        <time>2015-06-07T10:42:42Z</time>
      </trkpt>
      <trkpt lat="45.49326" lon="4.71736">
        <ele>487</ele>
        <time>2015-06-07T10:42:45Z</time>
      </trkpt>
      <trkpt lat="45.49326" lon="4.71736">
        <ele>487</ele>
        <time>2015-06-07T10:42:49Z</time>
      </trkpt>
      <trkpt lat="45.49326" lon="4.71736">
        <ele>487</ele>
        <time>2015-06-07T10:42:51Z</time>
      </trkpt>
      <trkpt lat="45.49327" lon="4.71734">
        <ele>486</ele>
        <time>2015-06-07T10:42:54Z</time>
      </trkpt>
      <trkpt lat="45.49327" lon="4.71735">
        <ele>488</ele>
        <time>2015-06-07T10:42:57Z</time>
      </trkpt>
      <trkpt lat="45.49328" lon="4.71735">
        <ele>487</ele>
        <time>2015-06-07T10:43:00Z</time>
      </trkpt>
      <trkpt lat="45.49329" lon="4.71735">
        <ele>488</ele>
        <time>2015-06-07T10:43:05Z</time>
      </trkpt>
      <trkpt lat="45.49329" lon="4.71736">
        <ele>488</ele>
        <time>2015-06-07T10:43:06Z</time>
      </trkpt>
      <trkpt lat="45.49329" lon="4.71735">
        <ele>488</ele>
        <time>2015-06-07T10:43:09Z</time>
      </trkpt>
      <trkpt lat="45.49329" lon="4.71735">
        <ele>488</ele>
        <time>2015-06-07T10:43:12Z</time>
      </trkpt>
      <trkpt lat="45.49329" lon="4.71735">
        <ele>487</ele>
        <time>2015-06-07T10:43:15Z</time>
      </trkpt>
      <trkpt lat="45.49326" lon="4.71736">
        <ele>490</ele>
        <time>2015-06-07T10:43:22Z</time>
      </trkpt>
      <trkpt lat="45.49326" lon="4.71736">
        <ele>490</ele>
        <time>2015-06-07T10:43:23Z</time>
      </trkpt>
      <trkpt lat="45.49326" lon="4.71736">
        <ele>490</ele>
        <time>2015-06-07T10:43:26Z</time>
      </trkpt>
      <trkpt lat="45.49326" lon="4.71736">
        <ele>489</ele>
        <time>2015-06-07T10:43:29Z</time>
      </trkpt>
      <trkpt lat="45.49326" lon="4.71735">
        <ele>490</ele>
        <time>2015-06-07T10:43:32Z</time>
      </trkpt>
      <trkpt lat="45.49326" lon="4.71735">
        <ele>490</ele>
        <time>2015-06-07T10:43:35Z</time>
      </trkpt>
      <trkpt lat="45.49326" lon="4.71735">
        <ele>490</ele>
        <time>2015-06-07T10:43:37Z</time>
      </trkpt>
      <trkpt lat="45.49326" lon="4.71735">
        <ele>490</ele>
        <time>2015-06-07T10:43:41Z</time>
      </trkpt>
      <trkpt lat="45.49326" lon="4.71735">
        <ele>490</ele>
        <time>2015-06-07T10:43:44Z</time>
      </trkpt>
      <trkpt lat="45.49326" lon="4.71735">
        <ele>490</ele>
        <time>2015-06-07T10:43:47Z</time>
      </trkpt>
      <trkpt lat="45.49326" lon="4.71735">
        <ele>490</ele>
        <time>2015-06-07T10:43:50Z</time>
      </trkpt>
      <trkpt lat="45.49326" lon="4.71735">
        <ele>490</ele>
        <time>2015-06-07T10:43:54Z</time>
      </trkpt>
      <trkpt lat="45.49326" lon="4.71736">
        <ele>490</ele>
        <time>2015-06-07T10:43:56Z</time>
      </trkpt>
      <trkpt lat="45.49326" lon="4.71736">
        <ele>490</ele>
        <time>2015-06-07T10:43:59Z</time>
      </trkpt>
      <trkpt lat="45.49326" lon="4.71736">
        <ele>490</ele>
        <time>2015-06-07T10:44:02Z</time>
      </trkpt>
      <trkpt lat="45.49326" lon="4.71736">
        <ele>490</ele>
        <time>2015-06-07T10:44:05Z</time>
      </trkpt>
      <trkpt lat="45.49326" lon="4.71736">
        <ele>490</ele>
        <time>2015-06-07T10:44:08Z</time>
      </trkpt>
      <trkpt lat="45.49326" lon="4.71736">
        <ele>490</ele>
        <time>2015-06-07T10:44:11Z</time>
      </trkpt>
      <trkpt lat="45.49326" lon="4.71736">
        <ele>489</ele>
        <time>2015-06-07T10:44:14Z</time>
      </trkpt>
      <trkpt lat="45.49326" lon="4.71736">
        <ele>489</ele>
        <time>2015-06-07T10:44:17Z</time>
      </trkpt>
      <trkpt lat="45.49326" lon="4.71736">
        <ele>489</ele>
        <time>2015-06-07T10:44:20Z</time>
      </trkpt>
      <trkpt lat="45.49326" lon="4.71736">
        <ele>489</ele>
        <time>2015-06-07T10:44:23Z</time>
      </trkpt>
      <trkpt lat="45.49326" lon="4.71736">
        <ele>489</ele>
        <time>2015-06-07T10:44:26Z</time>
      </trkpt>
      <trkpt lat="45.49326" lon="4.71736">
        <ele>489</ele>
        <time>2015-06-07T10:44:29Z</time>
      </trkpt>
      <trkpt lat="45.49326" lon="4.71736">
        <ele>489</ele>
        <time>2015-06-07T10:44:32Z</time>
      </trkpt>
      <trkpt lat="45.49326" lon="4.71736">
        <ele>489</ele>
        <time>2015-06-07T10:44:35Z</time>
      </trkpt>
      <trkpt lat="45.49326" lon="4.71736">
        <ele>489</ele>
        <time>2015-06-07T10:44:38Z</time>
      </trkpt>
      <trkpt lat="45.49326" lon="4.71736">
        <ele>489</ele>
        <time>2015-06-07T10:44:41Z</time>
      </trkpt>
      <trkpt lat="45.49326" lon="4.71736">
        <ele>489</ele>
        <time>2015-06-07T10:44:44Z</time>
      </trkpt>
      <trkpt lat="45.49326" lon="4.71736">
        <ele>489</ele>
        <time>2015-06-07T10:44:46Z</time>
      </trkpt>
      <trkpt lat="45.49326" lon="4.71736">
        <ele>489</ele>
        <time>2015-06-07T10:44:49Z</time>
      </trkpt>
      <trkpt lat="45.49326" lon="4.71736">
        <ele>489</ele>
        <time>2015-06-07T10:44:52Z</time>
      </trkpt>
      <trkpt lat="45.49326" lon="4.71736">
        <ele>489</ele>
        <time>2015-06-07T10:44:55Z</time>
      </trkpt>
      <trkpt lat="45.49326" lon="4.71736">
        <ele>489</ele>
        <time>2015-06-07T10:44:58Z</time>
      </trkpt>
      <trkpt lat="45.49326" lon="4.71736">
        <ele>489</ele>
        <time>2015-06-07T10:45:01Z</time>
      </trkpt>
      <trkpt lat="45.49325" lon="4.71736">
        <ele>489</ele>
        <time>2015-06-07T10:45:04Z</time>
      </trkpt>
      <trkpt lat="45.49325" lon="4.71736">
        <ele>489</ele>
        <time>2015-06-07T10:45:07Z</time>
      </trkpt>
      <trkpt lat="45.49325" lon="4.71736">
        <ele>489</ele>
        <time>2015-06-07T10:45:11Z</time>
      </trkpt>
      <trkpt lat="45.49325" lon="4.71736">
        <ele>489</ele>
        <time>2015-06-07T10:45:14Z</time>
      </trkpt>
      <trkpt lat="45.49325" lon="4.71736">
        <ele>489</ele>
        <time>2015-06-07T10:45:16Z</time>
      </trkpt>
      <trkpt lat="45.49325" lon="4.71736">
        <ele>489</ele>
        <time>2015-06-07T10:45:21Z</time>
      </trkpt>
      <trkpt lat="45.49325" lon="4.71736">
        <ele>489</ele>
        <time>2015-06-07T10:45:22Z</time>
      </trkpt>
      <trkpt lat="45.49325" lon="4.71736">
        <ele>489</ele>
        <time>2015-06-07T10:45:25Z</time>
      </trkpt>
      <trkpt lat="45.49325" lon="4.71736">
        <ele>489</ele>
        <time>2015-06-07T10:45:29Z</time>
      </trkpt>
      <trkpt lat="45.49325" lon="4.71736">
        <ele>489</ele>
        <time>2015-06-07T10:45:32Z</time>
      </trkpt>
      <trkpt lat="45.49325" lon="4.71736">
        <ele>489</ele>
        <time>2015-06-07T10:45:34Z</time>
      </trkpt>
      <trkpt lat="45.49325" lon="4.71736">
        <ele>489</ele>
        <time>2015-06-07T10:45:37Z</time>
      </trkpt>
      <trkpt lat="45.49325" lon="4.71736">
        <ele>489</ele>
        <time>2015-06-07T10:45:41Z</time>
      </trkpt>
      <trkpt lat="45.49325" lon="4.71736">
        <ele>489</ele>
        <time>2015-06-07T10:45:42Z</time>
      </trkpt>
      <trkpt lat="45.49325" lon="4.71736">
        <ele>489</ele>
        <time>2015-06-07T10:45:46Z</time>
      </trkpt>
      <trkpt lat="45.49325" lon="4.71736">
        <ele>489</ele>
        <time>2015-06-07T10:45:49Z</time>
      </trkpt>
      <trkpt lat="45.49325" lon="4.71736">
        <ele>489</ele>
        <time>2015-06-07T10:45:52Z</time>
      </trkpt>
      <trkpt lat="45.49325" lon="4.71736">
        <ele>489</ele>
        <time>2015-06-07T10:45:55Z</time>
      </trkpt>
      <trkpt lat="45.49325" lon="4.71736">
        <ele>489</ele>
        <time>2015-06-07T10:45:57Z</time>
      </trkpt>
      <trkpt lat="45.49325" lon="4.71736">
        <ele>489</ele>
        <time>2015-06-07T10:46:01Z</time>
      </trkpt>
      <trkpt lat="45.49325" lon="4.71736">
        <ele>489</ele>
        <time>2015-06-07T10:46:03Z</time>
      </trkpt>
      <trkpt lat="45.49325" lon="4.71736">
        <ele>489</ele>
        <time>2015-06-07T10:46:06Z</time>
      </trkpt>
      <trkpt lat="45.49325" lon="4.71736">
        <ele>489</ele>
        <time>2015-06-07T10:46:11Z</time>
      </trkpt>
      <trkpt lat="45.49325" lon="4.71736">
        <ele>489</ele>
        <time>2015-06-07T10:46:13Z</time>
      </trkpt>
      <trkpt lat="45.49325" lon="4.71736">
        <ele>489</ele>
        <time>2015-06-07T10:46:15Z</time>
      </trkpt>
      <trkpt lat="45.49325" lon="4.71736">
        <ele>489</ele>
        <time>2015-06-07T10:46:19Z</time>
      </trkpt>
      <trkpt lat="45.49325" lon="4.71736">
        <ele>489</ele>
        <time>2015-06-07T10:46:21Z</time>
      </trkpt>
      <trkpt lat="45.49325" lon="4.71736">
        <ele>489</ele>
        <time>2015-06-07T10:46:27Z</time>
      </trkpt>
      <trkpt lat="45.49325" lon="4.71736">
        <ele>489</ele>
        <time>2015-06-07T10:46:27Z</time>
      </trkpt>
      <trkpt lat="45.49325" lon="4.71736">
        <ele>489</ele>
        <time>2015-06-07T10:46:31Z</time>
      </trkpt>
      <trkpt lat="45.49326" lon="4.71736">
        <ele>489</ele>
        <time>2015-06-07T10:46:36Z</time>
      </trkpt>
      <trkpt lat="45.49325" lon="4.71736">
        <ele>489</ele>
        <time>2015-06-07T10:46:37Z</time>
      </trkpt>
      <trkpt lat="45.49324" lon="4.71737">
        <ele>489</ele>
        <time>2015-06-07T10:46:42Z</time>
      </trkpt>
      <trkpt lat="45.49325" lon="4.71737">
        <ele>489</ele>
        <time>2015-06-07T10:46:45Z</time>
      </trkpt>
      <trkpt lat="45.49325" lon="4.71737">
        <ele>489</ele>
        <time>2015-06-07T10:46:49Z</time>
      </trkpt>
      <trkpt lat="45.49325" lon="4.71737">
        <ele>489</ele>
        <time>2015-06-07T10:46:51Z</time>
      </trkpt>
      <trkpt lat="45.49324" lon="4.71738">
        <ele>490</ele>
        <time>2015-06-07T10:46:54Z</time>
      </trkpt>
      <trkpt lat="45.49324" lon="4.71737">
        <ele>490</ele>
        <time>2015-06-07T10:46:57Z</time>
      </trkpt>
      <trkpt lat="45.49324" lon="4.71737">
        <ele>491</ele>
        <time>2015-06-07T10:47:00Z</time>
      </trkpt>
      <trkpt lat="45.49324" lon="4.71736">
        <ele>491</ele>
        <time>2015-06-07T10:47:03Z</time>
      </trkpt>
      <trkpt lat="45.49324" lon="4.71736">
        <ele>491</ele>
        <time>2015-06-07T10:47:06Z</time>
      </trkpt>
      <trkpt lat="45.49324" lon="4.71736">
        <ele>491</ele>
        <time>2015-06-07T10:47:09Z</time>
      </trkpt>
      <trkpt lat="45.49324" lon="4.71736">
        <ele>491</ele>
        <time>2015-06-07T10:47:13Z</time>
      </trkpt>
      <trkpt lat="45.49324" lon="4.71736">
        <ele>491</ele>
        <time>2015-06-07T10:47:15Z</time>
      </trkpt>
      <trkpt lat="45.49324" lon="4.71736">
        <ele>491</ele>
        <time>2015-06-07T10:47:19Z</time>
      </trkpt>
      <trkpt lat="45.49324" lon="4.71736">
        <ele>491</ele>
        <time>2015-06-07T10:47:21Z</time>
      </trkpt>
      <trkpt lat="45.49325" lon="4.71737">
        <ele>490</ele>
        <time>2015-06-07T10:47:24Z</time>
      </trkpt>
      <trkpt lat="45.49322" lon="4.71739">
        <ele>490</ele>
        <time>2015-06-07T10:47:27Z</time>
      </trkpt>
      <trkpt lat="45.49321" lon="4.71739">
        <ele>489</ele>
        <time>2015-06-07T10:47:31Z</time>
      </trkpt>
      <trkpt lat="45.49321" lon="4.71739">
        <ele>488</ele>
        <time>2015-06-07T10:47:35Z</time>
      </trkpt>
      <trkpt lat="45.4932" lon="4.71739">
        <ele>488</ele>
        <time>2015-06-07T10:47:38Z</time>
      </trkpt>
      <trkpt lat="45.49321" lon="4.71739">
        <ele>487</ele>
        <time>2015-06-07T10:47:41Z</time>
      </trkpt>
      <trkpt lat="45.49321" lon="4.71738">
        <ele>488</ele>
        <time>2015-06-07T10:47:44Z</time>
      </trkpt>
      <trkpt lat="45.49321" lon="4.71738">
        <ele>488</ele>
        <time>2015-06-07T10:47:47Z</time>
      </trkpt>
      <trkpt lat="45.49321" lon="4.71738">
        <ele>489</ele>
        <time>2015-06-07T10:47:50Z</time>
      </trkpt>
      <trkpt lat="45.49321" lon="4.71738">
        <ele>488</ele>
        <time>2015-06-07T10:47:53Z</time>
      </trkpt>
      <trkpt lat="45.4932" lon="4.71738">
        <ele>488</ele>
        <time>2015-06-07T10:47:56Z</time>
      </trkpt>
      <trkpt lat="45.4932" lon="4.71737">
        <ele>489</ele>
        <time>2015-06-07T10:47:59Z</time>
      </trkpt>
      <trkpt lat="45.4932" lon="4.71737">
        <ele>489</ele>
        <time>2015-06-07T10:48:02Z</time>
      </trkpt>
      <trkpt lat="45.4932" lon="4.71737">
        <ele>490</ele>
        <time>2015-06-07T10:48:06Z</time>
      </trkpt>
      <trkpt lat="45.49321" lon="4.71737">
        <ele>489</ele>
        <time>2015-06-07T10:48:08Z</time>
      </trkpt>
      <trkpt lat="45.49322" lon="4.7174">
        <ele>488</ele>
        <time>2015-06-07T10:48:13Z</time>
      </trkpt>
      <trkpt lat="45.49321" lon="4.71739">
        <ele>487</ele>
        <time>2015-06-07T10:48:18Z</time>
      </trkpt>
      <trkpt lat="45.49321" lon="4.71739">
        <ele>487</ele>
        <time>2015-06-07T10:48:21Z</time>
      </trkpt>
      <trkpt lat="45.49321" lon="4.71739">
        <ele>487</ele>
        <time>2015-06-07T10:48:24Z</time>
      </trkpt>
      <trkpt lat="45.4932" lon="4.71739">
        <ele>487</ele>
        <time>2015-06-07T10:48:27Z</time>
      </trkpt>
      <trkpt lat="45.4932" lon="4.7174">
        <ele>487</ele>
        <time>2015-06-07T10:48:30Z</time>
      </trkpt>
      <trkpt lat="45.49324" lon="4.71742">
        <ele>488</ele>
        <time>2015-06-07T10:48:33Z</time>
      </trkpt>
      <trkpt lat="45.49342" lon="4.71745">
        <ele>485</ele>
        <time>2015-06-07T10:48:38Z</time>
      </trkpt>
      <trkpt lat="45.49363" lon="4.71741">
        <ele>485</ele>
        <time>2015-06-07T10:48:43Z</time>
      </trkpt>
      <trkpt lat="45.49387" lon="4.71727">
        <ele>483</ele>
        <time>2015-06-07T10:48:48Z</time>
      </trkpt>
      <trkpt lat="45.49407" lon="4.71697">
        <ele>483</ele>
        <time>2015-06-07T10:48:53Z</time>
      </trkpt>
      <trkpt lat="45.4944" lon="4.71679">
        <ele>482</ele>
        <time>2015-06-07T10:48:58Z</time>
      </trkpt>
      <trkpt lat="45.49469" lon="4.71704">
        <ele>481</ele>
        <time>2015-06-07T10:49:03Z</time>
      </trkpt>
      <trkpt lat="45.49489" lon="4.7174">
        <ele>480</ele>
        <time>2015-06-07T10:49:07Z</time>
      </trkpt>
      <trkpt lat="45.49507" lon="4.71776">
        <ele>480</ele>
        <time>2015-06-07T10:49:13Z</time>
      </trkpt>
      <trkpt lat="45.49527" lon="4.71806">
        <ele>480</ele>
        <time>2015-06-07T10:49:18Z</time>
      </trkpt>
      <trkpt lat="45.4955" lon="4.71833">
        <ele>480</ele>
        <time>2015-06-07T10:49:23Z</time>
      </trkpt>
      <trkpt lat="45.4957" lon="4.71867">
        <ele>480</ele>
        <time>2015-06-07T10:49:27Z</time>
      </trkpt>
      <trkpt lat="45.49579" lon="4.71905">
        <ele>480</ele>
        <time>2015-06-07T10:49:33Z</time>
      </trkpt>
      <trkpt lat="45.49592" lon="4.71943">
        <ele>479</ele>
        <time>2015-06-07T10:49:38Z</time>
      </trkpt>
      <trkpt lat="45.49609" lon="4.71979">
        <ele>479</ele>
        <time>2015-06-07T10:49:43Z</time>
      </trkpt>
      <trkpt lat="45.49616" lon="4.72019">
        <ele>480</ele>
        <time>2015-06-07T10:49:48Z</time>
      </trkpt>
      <trkpt lat="45.49621" lon="4.72059">
        <ele>481</ele>
        <time>2015-06-07T10:49:53Z</time>
      </trkpt>
      <trkpt lat="45.49626" lon="4.7209">
        <ele>482</ele>
        <time>2015-06-07T10:49:56Z</time>
      </trkpt>
      <trkpt lat="45.49632" lon="4.72124">
        <ele>481</ele>
        <time>2015-06-07T10:50:00Z</time>
      </trkpt>
      <trkpt lat="45.49646" lon="4.7216">
        <ele>481</ele>
        <time>2015-06-07T10:50:05Z</time>
      </trkpt>
      <trkpt lat="45.49669" lon="4.72179">
        <ele>480</ele>
        <time>2015-06-07T10:50:11Z</time>
      </trkpt>
      <trkpt lat="45.49694" lon="4.72189">
        <ele>479</ele>
        <time>2015-06-07T10:50:15Z</time>
      </trkpt>
      <trkpt lat="45.49726" lon="4.72197">
        <ele>476</ele>
        <time>2015-06-07T10:50:21Z</time>
      </trkpt>
      <trkpt lat="45.49759" lon="4.72203">
        <ele>474</ele>
        <time>2015-06-07T10:50:26Z</time>
      </trkpt>
      <trkpt lat="45.49794" lon="4.72204">
        <ele>473</ele>
        <time>2015-06-07T10:50:30Z</time>
      </trkpt>
      <trkpt lat="45.49831" lon="4.72205">
        <ele>470</ele>
        <time>2015-06-07T10:50:35Z</time>
      </trkpt>
      <trkpt lat="45.4987" lon="4.7221">
        <ele>470</ele>
        <time>2015-06-07T10:50:40Z</time>
      </trkpt>
      <trkpt lat="45.49912" lon="4.72208">
        <ele>468</ele>
        <time>2015-06-07T10:50:45Z</time>
      </trkpt>
      <trkpt lat="45.49949" lon="4.72187">
        <ele>467</ele>
        <time>2015-06-07T10:50:50Z</time>
      </trkpt>
      <trkpt lat="45.49989" lon="4.72152">
        <ele>465</ele>
        <time>2015-06-07T10:50:57Z</time>
      </trkpt>
      <trkpt lat="45.50011" lon="4.72124">
        <ele>465</ele>
        <time>2015-06-07T10:51:00Z</time>
      </trkpt>
      <trkpt lat="45.5003" lon="4.72095">
        <ele>465</ele>
        <time>2015-06-07T10:51:04Z</time>
      </trkpt>
      <trkpt lat="45.50049" lon="4.72059">
        <ele>465</ele>
        <time>2015-06-07T10:51:09Z</time>
      </trkpt>
      <trkpt lat="45.5005" lon="4.72008">
        <ele>464</ele>
        <time>2015-06-07T10:51:13Z</time>
      </trkpt>
      <trkpt lat="45.50069" lon="4.71921">
        <ele>459</ele>
        <time>2015-06-07T10:51:22Z</time>
      </trkpt>
      <trkpt lat="45.50077" lon="4.71918">
        <ele>458</ele>
        <time>2015-06-07T10:51:23Z</time>
      </trkpt>
      <trkpt lat="45.50117" lon="4.71914">
        <ele>458</ele>
        <time>2015-06-07T10:51:28Z</time>
      </trkpt>
      <trkpt lat="45.50131" lon="4.71863">
        <ele>459</ele>
        <time>2015-06-07T10:51:34Z</time>
      </trkpt>
      <trkpt lat="45.5017" lon="4.71808">
        <ele>451</ele>
        <time>2015-06-07T10:51:43Z</time>
      </trkpt>
      <trkpt lat="45.50201" lon="4.71848">
        <ele>450</ele>
        <time>2015-06-07T10:51:48Z</time>
      </trkpt>
      <trkpt lat="45.50207" lon="4.71853">
        <ele>450</ele>
        <time>2015-06-07T10:51:49Z</time>
      </trkpt>
      <trkpt lat="45.50249" lon="4.71864">
        <ele>450</ele>
        <time>2015-06-07T10:51:55Z</time>
      </trkpt>
      <trkpt lat="45.50275" lon="4.71846">
        <ele>450</ele>
        <time>2015-06-07T10:51:58Z</time>
      </trkpt>
      <trkpt lat="45.50308" lon="4.71815">
        <ele>450</ele>
        <time>2015-06-07T10:52:04Z</time>
      </trkpt>
      <trkpt lat="45.50336" lon="4.71832">
        <ele>450</ele>
        <time>2015-06-07T10:52:09Z</time>
      </trkpt>
      <trkpt lat="45.50337" lon="4.71881">
        <ele>452</ele>
        <time>2015-06-07T10:52:14Z</time>
      </trkpt>
      <trkpt lat="45.50345" lon="4.71927">
        <ele>455</ele>
        <time>2015-06-07T10:52:19Z</time>
      </trkpt>
      <trkpt lat="45.50357" lon="4.71971">
        <ele>455</ele>
        <time>2015-06-07T10:52:23Z</time>
      </trkpt>
      <trkpt lat="45.50386" lon="4.7199">
        <ele>454</ele>
        <time>2015-06-07T10:52:29Z</time>
      </trkpt>
      <trkpt lat="45.5042" lon="4.71979">
        <ele>454</ele>
        <time>2015-06-07T10:52:34Z</time>
      </trkpt>
      <trkpt lat="45.50452" lon="4.71952">
        <ele>453</ele>
        <time>2015-06-07T10:52:39Z</time>
      </trkpt>
      <trkpt lat="45.50487" lon="4.71938">
        <ele>452</ele>
        <time>2015-06-07T10:52:43Z</time>
      </trkpt>
      <trkpt lat="45.50517" lon="4.71969">
        <ele>449</ele>
        <time>2015-06-07T10:52:48Z</time>
      </trkpt>
      <trkpt lat="45.50562" lon="4.72033">
        <ele>448</ele>
        <time>2015-06-07T10:52:57Z</time>
      </trkpt>
      <trkpt lat="45.50569" lon="4.72035">
        <ele>447</ele>
        <time>2015-06-07T10:52:58Z</time>
      </trkpt>
      <trkpt lat="45.50598" lon="4.72033">
        <ele>448</ele>
        <time>2015-06-07T10:53:02Z</time>
      </trkpt>
      <trkpt lat="45.50636" lon="4.72014">
        <ele>445</ele>
        <time>2015-06-07T10:53:07Z</time>
      </trkpt>
      <trkpt lat="45.50689" lon="4.71997">
        <ele>443</ele>
        <time>2015-06-07T10:53:14Z</time>
      </trkpt>
      <trkpt lat="45.50697" lon="4.72064">
        <ele>443</ele>
        <time>2015-06-07T10:53:20Z</time>
      </trkpt>
      <trkpt lat="45.50695" lon="4.72088">
        <ele>443</ele>
        <time>2015-06-07T10:53:22Z</time>
      </trkpt>
      <trkpt lat="45.50698" lon="4.72143">
        <ele>443</ele>
        <time>2015-06-07T10:53:28Z</time>
      </trkpt>
      <trkpt lat="45.5071" lon="4.72193">
        <ele>447</ele>
        <time>2015-06-07T10:53:32Z</time>
      </trkpt>
      <trkpt lat="45.50735" lon="4.72227">
        <ele>449</ele>
        <time>2015-06-07T10:53:38Z</time>
      </trkpt>
      <trkpt lat="45.50767" lon="4.72248">
        <ele>449</ele>
        <time>2015-06-07T10:53:43Z</time>
      </trkpt>
      <trkpt lat="45.50794" lon="4.72245">
        <ele>448</ele>
        <time>2015-06-07T10:53:47Z</time>
      </trkpt>
      <trkpt lat="45.50818" lon="4.72237">
        <ele>447</ele>
        <time>2015-06-07T10:53:51Z</time>
      </trkpt>
      <trkpt lat="45.50848" lon="4.7222">
        <ele>448</ele>
        <time>2015-06-07T10:53:56Z</time>
      </trkpt>
      <trkpt lat="45.50877" lon="4.72192">
        <ele>447</ele>
        <time>2015-06-07T10:54:01Z</time>
      </trkpt>
      <trkpt lat="45.50905" lon="4.7216">
        <ele>447</ele>
        <time>2015-06-07T10:54:06Z</time>
      </trkpt>
      <trkpt lat="45.50948" lon="4.72125">
        <ele>443</ele>
        <time>2015-06-07T10:54:13Z</time>
      </trkpt>
      <trkpt lat="45.50963" lon="4.72116">
        <ele>443</ele>
        <time>2015-06-07T10:54:14Z</time>
      </trkpt>
      <trkpt lat="45.51006" lon="4.72126">
        <ele>442</ele>
        <time>2015-06-07T10:54:19Z</time>
      </trkpt>
      <trkpt lat="45.51024" lon="4.72184">
        <ele>437</ele>
        <time>2015-06-07T10:54:25Z</time>
      </trkpt>
      <trkpt lat="45.51053" lon="4.72239">
        <ele>434</ele>
        <time>2015-06-07T10:54:30Z</time>
      </trkpt>
      <trkpt lat="45.51087" lon="4.7224">
        <ele>433</ele>
        <time>2015-06-07T10:54:34Z</time>
      </trkpt>
      <trkpt lat="45.51145" lon="4.72212">
        <ele>431</ele>
        <time>2015-06-07T10:54:42Z</time>
      </trkpt>
      <trkpt lat="45.51169" lon="4.72195">
        <ele>429</ele>
        <time>2015-06-07T10:54:44Z</time>
      </trkpt>
      <trkpt lat="45.51209" lon="4.7217">
        <ele>429</ele>
        <time>2015-06-07T10:54:50Z</time>
      </trkpt>
      <trkpt lat="45.51249" lon="4.72151">
        <ele>428</ele>
        <time>2015-06-07T10:54:55Z</time>
      </trkpt>
      <trkpt lat="45.5129" lon="4.72146">
        <ele>426</ele>
        <time>2015-06-07T10:54:59Z</time>
      </trkpt>
      <trkpt lat="45.51333" lon="4.7214">
        <ele>425</ele>
        <time>2015-06-07T10:55:04Z</time>
      </trkpt>
      <trkpt lat="45.51374" lon="4.72126">
        <ele>423</ele>
        <time>2015-06-07T10:55:09Z</time>
      </trkpt>
      <trkpt lat="45.51416" lon="4.72121">
        <ele>422</ele>
        <time>2015-06-07T10:55:14Z</time>
      </trkpt>
      <trkpt lat="45.51459" lon="4.72131">
        <ele>420</ele>
        <time>2015-06-07T10:55:19Z</time>
      </trkpt>
      <trkpt lat="45.51498" lon="4.72143">
        <ele>415</ele>
        <time>2015-06-07T10:55:24Z</time>
      </trkpt>
      <trkpt lat="45.51524" lon="4.72159">
        <ele>412</ele>
        <time>2015-06-07T10:55:30Z</time>
      </trkpt>
      <trkpt lat="45.51528" lon="4.72163">
        <ele>412</ele>
        <time>2015-06-07T10:55:35Z</time>
      </trkpt>
      <trkpt lat="45.51529" lon="4.72163">
        <ele>411</ele>
        <time>2015-06-07T10:55:40Z</time>
      </trkpt>
      <trkpt lat="45.51529" lon="4.72162">
        <ele>411</ele>
        <time>2015-06-07T10:55:44Z</time>
      </trkpt>
      <trkpt lat="45.5153" lon="4.72162">
        <ele>411</ele>
        <time>2015-06-07T10:55:46Z</time>
      </trkpt>
      <trkpt lat="45.5153" lon="4.72162">
        <ele>411</ele>
        <time>2015-06-07T10:55:49Z</time>
      </trkpt>
      <trkpt lat="45.5153" lon="4.72162">
        <ele>411</ele>
        <time>2015-06-07T10:55:51Z</time>
      </trkpt>
      <trkpt lat="45.51531" lon="4.72162">
        <ele>411</ele>
        <time>2015-06-07T10:55:54Z</time>
      </trkpt>
      <trkpt lat="45.51531" lon="4.72164">
        <ele>412</ele>
        <time>2015-06-07T10:55:57Z</time>
      </trkpt>
      <trkpt lat="45.51531" lon="4.72165">
        <ele>411</ele>
        <time>2015-06-07T10:56:01Z</time>
      </trkpt>
      <trkpt lat="45.51532" lon="4.72165">
        <ele>410</ele>
        <time>2015-06-07T10:56:03Z</time>
      </trkpt>
      <trkpt lat="45.51532" lon="4.72165">
        <ele>411</ele>
        <time>2015-06-07T10:56:06Z</time>
      </trkpt>
      <trkpt lat="45.51532" lon="4.72166">
        <ele>410</ele>
        <time>2015-06-07T10:56:10Z</time>
      </trkpt>
      <trkpt lat="45.51532" lon="4.72167">
        <ele>410</ele>
        <time>2015-06-07T10:56:12Z</time>
      </trkpt>
      <trkpt lat="45.51532" lon="4.72167">
        <ele>409</ele>
        <time>2015-06-07T10:56:15Z</time>
      </trkpt>
      <trkpt lat="45.51532" lon="4.72167">
        <ele>409</ele>
        <time>2015-06-07T10:56:18Z</time>
      </trkpt>
      <trkpt lat="45.51532" lon="4.72168">
        <ele>409</ele>
        <time>2015-06-07T10:56:22Z</time>
      </trkpt>
      <trkpt lat="45.51532" lon="4.72168">
        <ele>408</ele>
        <time>2015-06-07T10:56:24Z</time>
      </trkpt>
      <trkpt lat="45.51533" lon="4.72168">
        <ele>408</ele>
        <time>2015-06-07T10:56:27Z</time>
      </trkpt>
      <trkpt lat="45.51533" lon="4.72168">
        <ele>408</ele>
        <time>2015-06-07T10:56:30Z</time>
      </trkpt>
      <trkpt lat="45.51533" lon="4.72168">
        <ele>408</ele>
        <time>2015-06-07T10:56:33Z</time>
      </trkpt>
      <trkpt lat="45.51533" lon="4.72168">
        <ele>408</ele>
        <time>2015-06-07T10:56:36Z</time>
      </trkpt>
      <trkpt lat="45.51533" lon="4.72168">
        <ele>408</ele>
        <time>2015-06-07T10:56:39Z</time>
      </trkpt>
      <trkpt lat="45.51533" lon="4.72168">
        <ele>408</ele>
        <time>2015-06-07T10:56:42Z</time>
      </trkpt>
      <trkpt lat="45.51533" lon="4.72168">
        <ele>408</ele>
        <time>2015-06-07T10:56:45Z</time>
      </trkpt>
      <trkpt lat="45.51533" lon="4.72168">
        <ele>408</ele>
        <time>2015-06-07T10:56:48Z</time>
      </trkpt>
      <trkpt lat="45.51533" lon="4.72168">
        <ele>408</ele>
        <time>2015-06-07T10:56:51Z</time>
      </trkpt>
      <trkpt lat="45.51533" lon="4.72168">
        <ele>408</ele>
        <time>2015-06-07T10:56:55Z</time>
      </trkpt>
      <trkpt lat="45.51533" lon="4.72168">
        <ele>408</ele>
        <time>2015-06-07T10:56:57Z</time>
      </trkpt>
      <trkpt lat="45.51532" lon="4.72168">
        <ele>408</ele>
        <time>2015-06-07T10:57:00Z</time>
      </trkpt>
      <trkpt lat="45.51533" lon="4.72168">
        <ele>406</ele>
        <time>2015-06-07T10:57:03Z</time>
      </trkpt>
      <trkpt lat="45.51537" lon="4.72167">
        <ele>407</ele>
        <time>2015-06-07T10:57:06Z</time>
      </trkpt>
      <trkpt lat="45.5154" lon="4.72166">
        <ele>407</ele>
        <time>2015-06-07T10:57:12Z</time>
      </trkpt>
      <trkpt lat="45.51545" lon="4.72171">
        <ele>407</ele>
        <time>2015-06-07T10:57:17Z</time>
      </trkpt>
      <trkpt lat="45.51554" lon="4.72182">
        <ele>408</ele>
        <time>2015-06-07T10:57:22Z</time>
      </trkpt>
      <trkpt lat="45.51564" lon="4.72199">
        <ele>408</ele>
        <time>2015-06-07T10:57:26Z</time>
      </trkpt>
      <trkpt lat="45.51575" lon="4.72219">
        <ele>408</ele>
        <time>2015-06-07T10:57:31Z</time>
      </trkpt>
      <trkpt lat="45.51587" lon="4.72235">
        <ele>410</ele>
        <time>2015-06-07T10:57:36Z</time>
      </trkpt>
      <trkpt lat="45.51599" lon="4.72255">
        <ele>413</ele>
        <time>2015-06-07T10:57:41Z</time>
      </trkpt>
      <trkpt lat="45.51603" lon="4.72276">
        <ele>416</ele>
        <time>2015-06-07T10:57:47Z</time>
      </trkpt>
      <trkpt lat="45.516" lon="4.72295">
        <ele>417</ele>
        <time>2015-06-07T10:57:52Z</time>
      </trkpt>
      <trkpt lat="45.51591" lon="4.72313">
        <ele>420</ele>
        <time>2015-06-07T10:57:57Z</time>
      </trkpt>
      <trkpt lat="45.51581" lon="4.72331">
        <ele>421</ele>
        <time>2015-06-07T10:58:02Z</time>
      </trkpt>
      <trkpt lat="45.5157" lon="4.7235">
        <ele>423</ele>
        <time>2015-06-07T10:58:07Z</time>
      </trkpt>
      <trkpt lat="45.51561" lon="4.72372">
        <ele>424</ele>
        <time>2015-06-07T10:58:12Z</time>
      </trkpt>
      <trkpt lat="45.5155" lon="4.72395">
        <ele>425</ele>
        <time>2015-06-07T10:58:17Z</time>
      </trkpt>
      <trkpt lat="45.5154" lon="4.72418">
        <ele>426</ele>
        <time>2015-06-07T10:58:21Z</time>
      </trkpt>
      <trkpt lat="45.51531" lon="4.7244">
        <ele>427</ele>
        <time>2015-06-07T10:58:26Z</time>
      </trkpt>
      <trkpt lat="45.51524" lon="4.72463">
        <ele>428</ele>
        <time>2015-06-07T10:58:32Z</time>
      </trkpt>
      <trkpt lat="45.51521" lon="4.7249">
        <ele>430</ele>
        <time>2015-06-07T10:58:37Z</time>
      </trkpt>
      <trkpt lat="45.51525" lon="4.72515">
        <ele>431</ele>
        <time>2015-06-07T10:58:42Z</time>
      </trkpt>
      <trkpt lat="45.51536" lon="4.72536">
        <ele>432</ele>
        <time>2015-06-07T10:58:47Z</time>
      </trkpt>
      <trkpt lat="45.51554" lon="4.72549">
        <ele>433</ele>
        <time>2015-06-07T10:58:51Z</time>
      </trkpt>
      <trkpt lat="45.51574" lon="4.72559">
        <ele>433</ele>
        <time>2015-06-07T10:58:56Z</time>
      </trkpt>
      <trkpt lat="45.51593" lon="4.72566">
        <ele>433</ele>
        <time>2015-06-07T10:59:01Z</time>
      </trkpt>
      <trkpt lat="45.5161" lon="4.72577">
        <ele>435</ele>
        <time>2015-06-07T10:59:06Z</time>
      </trkpt>
      <trkpt lat="45.51623" lon="4.72593">
        <ele>436</ele>
        <time>2015-06-07T10:59:12Z</time>
      </trkpt>
      <trkpt lat="45.51633" lon="4.72612">
        <ele>436</ele>
        <time>2015-06-07T10:59:17Z</time>
      </trkpt>
      <trkpt lat="45.51638" lon="4.72637">
        <ele>436</ele>
        <time>2015-06-07T10:59:21Z</time>
      </trkpt>
      <trkpt lat="45.51639" lon="4.72664">
        <ele>436</ele>
        <time>2015-06-07T10:59:26Z</time>
      </trkpt>
      <trkpt lat="45.51638" lon="4.72694">
        <ele>437</ele>
        <time>2015-06-07T10:59:31Z</time>
      </trkpt>
      <trkpt lat="45.51636" lon="4.72726">
        <ele>438</ele>
        <time>2015-06-07T10:59:36Z</time>
      </trkpt>
      <trkpt lat="45.51634" lon="4.72761">
        <ele>439</ele>
        <time>2015-06-07T10:59:42Z</time>
      </trkpt>
      <trkpt lat="45.51632" lon="4.72792">
        <ele>440</ele>
        <time>2015-06-07T10:59:47Z</time>
      </trkpt>
      <trkpt lat="45.5163" lon="4.72826">
        <ele>438</ele>
        <time>2015-06-07T10:59:51Z</time>
      </trkpt>
      <trkpt lat="45.5163" lon="4.72856">
        <ele>439</ele>
        <time>2015-06-07T10:59:56Z</time>
      </trkpt>
      <trkpt lat="45.51628" lon="4.72887">
        <ele>440</ele>
        <time>2015-06-07T11:00:01Z</time>
      </trkpt>
      <trkpt lat="45.51628" lon="4.72915">
        <ele>442</ele>
        <time>2015-06-07T11:00:07Z</time>
      </trkpt>
      <trkpt lat="45.51628" lon="4.72943">
        <ele>442</ele>
        <time>2015-06-07T11:00:11Z</time>
      </trkpt>
      <trkpt lat="45.51626" lon="4.72969">
        <ele>443</ele>
        <time>2015-06-07T11:00:16Z</time>
      </trkpt>
      <trkpt lat="45.51625" lon="4.72995">
        <ele>443</ele>
        <time>2015-06-07T11:00:22Z</time>
      </trkpt>
      <trkpt lat="45.51625" lon="4.73021">
        <ele>444</ele>
        <time>2015-06-07T11:00:26Z</time>
      </trkpt>
      <trkpt lat="45.51625" lon="4.7304">
        <ele>445</ele>
        <time>2015-06-07T11:00:30Z</time>
      </trkpt>
      <trkpt lat="45.51623" lon="4.73067">
        <ele>446</ele>
        <time>2015-06-07T11:00:36Z</time>
      </trkpt>
      <trkpt lat="45.51622" lon="4.73092">
        <ele>446</ele>
        <time>2015-06-07T11:00:40Z</time>
      </trkpt>
      <trkpt lat="45.51621" lon="4.73118">
        <ele>447</ele>
        <time>2015-06-07T11:00:45Z</time>
      </trkpt>
      <trkpt lat="45.51619" lon="4.73143">
        <ele>449</ele>
        <time>2015-06-07T11:00:50Z</time>
      </trkpt>
      <trkpt lat="45.51618" lon="4.73167">
        <ele>450</ele>
        <time>2015-06-07T11:00:56Z</time>
      </trkpt>
      <trkpt lat="45.51618" lon="4.73193">
        <ele>450</ele>
        <time>2015-06-07T11:01:00Z</time>
      </trkpt>
      <trkpt lat="45.51622" lon="4.73216">
        <ele>452</ele>
        <time>2015-06-07T11:01:06Z</time>
      </trkpt>
      <trkpt lat="45.51628" lon="4.73237">
        <ele>452</ele>
        <time>2015-06-07T11:01:10Z</time>
      </trkpt>
      <trkpt lat="45.5164" lon="4.73253">
        <ele>454</ele>
        <time>2015-06-07T11:01:15Z</time>
      </trkpt>
      <trkpt lat="45.51655" lon="4.7327">
        <ele>454</ele>
        <time>2015-06-07T11:01:21Z</time>
      </trkpt>
      <trkpt lat="45.51668" lon="4.73283">
        <ele>455</ele>
        <time>2015-06-07T11:01:25Z</time>
      </trkpt>
      <trkpt lat="45.51679" lon="4.73292">
        <ele>455</ele>
        <time>2015-06-07T11:01:30Z</time>
      </trkpt>
      <trkpt lat="45.51692" lon="4.73305">
        <ele>455</ele>
        <time>2015-06-07T11:01:35Z</time>
      </trkpt>
      <trkpt lat="45.51705" lon="4.73317">
        <ele>456</ele>
        <time>2015-06-07T11:01:40Z</time>
      </trkpt>
      <trkpt lat="45.5172" lon="4.73332">
        <ele>456</ele>
        <time>2015-06-07T11:01:44Z</time>
      </trkpt>
      <trkpt lat="45.51734" lon="4.73346">
        <ele>456</ele>
        <time>2015-06-07T11:01:49Z</time>
      </trkpt>
      <trkpt lat="45.5175" lon="4.73358">
        <ele>458</ele>
        <time>2015-06-07T11:01:54Z</time>
      </trkpt>
      <trkpt lat="45.51765" lon="4.73372">
        <ele>459</ele>
        <time>2015-06-07T11:01:59Z</time>
      </trkpt>
      <trkpt lat="45.51778" lon="4.73385">
        <ele>459</ele>
        <time>2015-06-07T11:02:04Z</time>
      </trkpt>
      <trkpt lat="45.5179" lon="4.73396">
        <ele>461</ele>
        <time>2015-06-07T11:02:08Z</time>
      </trkpt>
      <trkpt lat="45.51805" lon="4.73409">
        <ele>462</ele>
        <time>2015-06-07T11:02:13Z</time>
      </trkpt>
      <trkpt lat="45.51816" lon="4.73418">
        <ele>463</ele>
        <time>2015-06-07T11:02:17Z</time>
      </trkpt>
      <trkpt lat="45.51829" lon="4.73431">
        <ele>464</ele>
        <time>2015-06-07T11:02:22Z</time>
      </trkpt>
      <trkpt lat="45.51843" lon="4.73442">
        <ele>466</ele>
        <time>2015-06-07T11:02:28Z</time>
      </trkpt>
      <trkpt lat="45.51854" lon="4.73453">
        <ele>467</ele>
        <time>2015-06-07T11:02:31Z</time>
      </trkpt>
      <trkpt lat="45.51867" lon="4.73467">
        <ele>468</ele>
        <time>2015-06-07T11:02:36Z</time>
      </trkpt>
      <trkpt lat="45.51879" lon="4.73478">
        <ele>468</ele>
        <time>2015-06-07T11:02:41Z</time>
      </trkpt>
      <trkpt lat="45.51893" lon="4.73491">
        <ele>469</ele>
        <time>2015-06-07T11:02:47Z</time>
      </trkpt>
      <trkpt lat="45.51902" lon="4.73503">
        <ele>468</ele>
        <time>2015-06-07T11:02:51Z</time>
      </trkpt>
      <trkpt lat="45.5191" lon="4.7352">
        <ele>469</ele>
        <time>2015-06-07T11:02:55Z</time>
      </trkpt>
      <trkpt lat="45.5192" lon="4.73545">
        <ele>469</ele>
        <time>2015-06-07T11:03:02Z</time>
      </trkpt>
      <trkpt lat="45.51923" lon="4.73566">
        <ele>471</ele>
        <time>2015-06-07T11:03:06Z</time>
      </trkpt>
      <trkpt lat="45.5192" lon="4.73592">
        <ele>473</ele>
        <time>2015-06-07T11:03:12Z</time>
      </trkpt>
      <trkpt lat="45.51917" lon="4.73605">
        <ele>473</ele>
        <time>2015-06-07T11:03:16Z</time>
      </trkpt>
      <trkpt lat="45.51914" lon="4.73629">
        <ele>473</ele>
        <time>2015-06-07T11:03:20Z</time>
      </trkpt>
      <trkpt lat="45.51914" lon="4.7365">
        <ele>476</ele>
        <time>2015-06-07T11:03:26Z</time>
      </trkpt>
      <trkpt lat="45.51915" lon="4.73673">
        <ele>478</ele>
        <time>2015-06-07T11:03:30Z</time>
      </trkpt>
      <trkpt lat="45.51918" lon="4.73697">
        <ele>479</ele>
        <time>2015-06-07T11:03:36Z</time>
      </trkpt>
      <trkpt lat="45.5192" lon="4.7372">
        <ele>477</ele>
        <time>2015-06-07T11:03:40Z</time>
      </trkpt>
      <trkpt lat="45.5192" lon="4.73743">
        <ele>478</ele>
        <time>2015-06-07T11:03:46Z</time>
      </trkpt>
      <trkpt lat="45.51911" lon="4.73781">
        <ele>479</ele>
        <time>2015-06-07T11:03:55Z</time>
      </trkpt>
      <trkpt lat="45.5191" lon="4.73784">
        <ele>481</ele>
        <time>2015-06-07T11:03:55Z</time>
      </trkpt>
      <trkpt lat="45.5191" lon="4.73817">
        <ele>478</ele>
        <time>2015-06-07T11:04:03Z</time>
      </trkpt>
      <trkpt lat="45.51912" lon="4.73825">
        <ele>480</ele>
        <time>2015-06-07T11:04:05Z</time>
      </trkpt>
      <trkpt lat="45.51929" lon="4.73848">
        <ele>490</ele>
        <time>2015-06-07T11:04:13Z</time>
      </trkpt>
      <trkpt lat="45.51943" lon="4.73865">
        <ele>487</ele>
        <time>2015-06-07T11:04:20Z</time>
      </trkpt>
      <trkpt lat="45.51948" lon="4.73866">
        <ele>488</ele>
        <time>2015-06-07T11:04:20Z</time>
      </trkpt>
      <trkpt lat="45.51982" lon="4.73875">
        <ele>488</ele>
        <time>2015-06-07T11:04:28Z</time>
      </trkpt>
      <trkpt lat="45.51994" lon="4.73882">
        <ele>488</ele>
        <time>2015-06-07T11:04:33Z</time>
      </trkpt>
      <trkpt lat="45.52019" lon="4.7389">
        <ele>489</ele>
        <time>2015-06-07T11:04:39Z</time>
      </trkpt>
      <trkpt lat="45.52039" lon="4.73894">
        <ele>491</ele>
        <time>2015-06-07T11:04:44Z</time>
      </trkpt>
      <trkpt lat="45.52043" lon="4.73895">
        <ele>492</ele>
        <time>2015-06-07T11:04:45Z</time>
      </trkpt>
      <trkpt lat="45.52065" lon="4.73898">
        <ele>493</ele>
        <time>2015-06-07T11:04:52Z</time>
      </trkpt>
      <trkpt lat="45.5208" lon="4.73901">
        <ele>495</ele>
        <time>2015-06-07T11:04:56Z</time>
      </trkpt>
      <trkpt lat="45.52101" lon="4.7391">
        <ele>496</ele>
        <time>2015-06-07T11:05:02Z</time>
      </trkpt>
      <trkpt lat="45.52115" lon="4.73921">
        <ele>494</ele>
        <time>2015-06-07T11:05:06Z</time>
      </trkpt>
      <trkpt lat="45.52133" lon="4.73941">
        <ele>494</ele>
        <time>2015-06-07T11:05:12Z</time>
      </trkpt>
      <trkpt lat="45.52144" lon="4.73954">
        <ele>494</ele>
        <time>2015-06-07T11:05:15Z</time>
      </trkpt>
      <trkpt lat="45.52152" lon="4.7397">
        <ele>495</ele>
        <time>2015-06-07T11:05:20Z</time>
      </trkpt>
      <trkpt lat="45.52162" lon="4.73992">
        <ele>497</ele>
        <time>2015-06-07T11:05:26Z</time>
      </trkpt>
      <trkpt lat="45.52171" lon="4.74017">
        <ele>496</ele>
        <time>2015-06-07T11:05:33Z</time>
      </trkpt>
      <trkpt lat="45.52176" lon="4.7403">
        <ele>497</ele>
        <time>2015-06-07T11:05:36Z</time>
      </trkpt>
      <trkpt lat="45.5218" lon="4.74053">
        <ele>498</ele>
        <time>2015-06-07T11:05:40Z</time>
      </trkpt>
      <trkpt lat="45.52185" lon="4.74082">
        <ele>496</ele>
        <time>2015-06-07T11:05:46Z</time>
      </trkpt>
      <trkpt lat="45.52187" lon="4.74108">
        <ele>497</ele>
        <time>2015-06-07T11:05:51Z</time>
      </trkpt>
      <trkpt lat="45.52192" lon="4.74127">
        <ele>497</ele>
        <time>2015-06-07T11:05:56Z</time>
      </trkpt>
      <trkpt lat="45.52199" lon="4.74171">
        <ele>499</ele>
        <time>2015-06-07T11:06:04Z</time>
      </trkpt>
      <trkpt lat="45.522" lon="4.74181">
        <ele>500</ele>
        <time>2015-06-07T11:06:07Z</time>
      </trkpt>
      <trkpt lat="45.52207" lon="4.7422">
        <ele>500</ele>
        <time>2015-06-07T11:06:14Z</time>
      </trkpt>
      <trkpt lat="45.52208" lon="4.74227">
        <ele>503</ele>
        <time>2015-06-07T11:06:17Z</time>
      </trkpt>
      <trkpt lat="45.52211" lon="4.74245">
        <ele>506</ele>
        <time>2015-06-07T11:06:21Z</time>
      </trkpt>
      <trkpt lat="45.5222" lon="4.7429">
        <ele>507</ele>
        <time>2015-06-07T11:06:29Z</time>
      </trkpt>
      <trkpt lat="45.52221" lon="4.74294">
        <ele>508</ele>
        <time>2015-06-07T11:06:30Z</time>
      </trkpt>
      <trkpt lat="45.52228" lon="4.74318">
        <ele>509</ele>
        <time>2015-06-07T11:06:36Z</time>
      </trkpt>
      <trkpt lat="45.52233" lon="4.74338">
        <ele>510</ele>
        <time>2015-06-07T11:06:41Z</time>
      </trkpt>
      <trkpt lat="45.52239" lon="4.74352">
        <ele>512</ele>
        <time>2015-06-07T11:06:46Z</time>
      </trkpt>
      <trkpt lat="45.52245" lon="4.74357">
        <ele>511</ele>
        <time>2015-06-07T11:06:51Z</time>
      </trkpt>
      <trkpt lat="45.52245" lon="4.74358">
        <ele>511</ele>
        <time>2015-06-07T11:06:56Z</time>
      </trkpt>
      <trkpt lat="45.52245" lon="4.74358">
        <ele>511</ele>
        <time>2015-06-07T11:06:59Z</time>
      </trkpt>
      <trkpt lat="45.52245" lon="4.74359">
        <ele>510</ele>
        <time>2015-06-07T11:07:02Z</time>
      </trkpt>
      <trkpt lat="45.52245" lon="4.7436">
        <ele>510</ele>
        <time>2015-06-07T11:07:04Z</time>
      </trkpt>
      <trkpt lat="45.52244" lon="4.7436">
        <ele>510</ele>
        <time>2015-06-07T11:07:08Z</time>
      </trkpt>
      <trkpt lat="45.52244" lon="4.74359">
        <ele>510</ele>
        <time>2015-06-07T11:07:11Z</time>
      </trkpt>
      <trkpt lat="45.52244" lon="4.74359">
        <ele>509</ele>
        <time>2015-06-07T11:07:14Z</time>
      </trkpt>
      <trkpt lat="45.52244" lon="4.74359">
        <ele>509</ele>
        <time>2015-06-07T11:07:17Z</time>
      </trkpt>
      <trkpt lat="45.52244" lon="4.74359">
        <ele>509</ele>
        <time>2015-06-07T11:07:20Z</time>
      </trkpt>
      <trkpt lat="45.52244" lon="4.74359">
        <ele>509</ele>
        <time>2015-06-07T11:07:23Z</time>
      </trkpt>
      <trkpt lat="45.52244" lon="4.74359">
        <ele>509</ele>
        <time>2015-06-07T11:07:26Z</time>
      </trkpt>
      <trkpt lat="45.52244" lon="4.74359">
        <ele>509</ele>
        <time>2015-06-07T11:07:28Z</time>
      </trkpt>
      <trkpt lat="45.52244" lon="4.74359">
        <ele>509</ele>
        <time>2015-06-07T11:07:31Z</time>
      </trkpt>
      <trkpt lat="45.52244" lon="4.7436">
        <ele>510</ele>
        <time>2015-06-07T11:07:34Z</time>
      </trkpt>
      <trkpt lat="45.52245" lon="4.7436">
        <ele>510</ele>
        <time>2015-06-07T11:07:37Z</time>
      </trkpt>
      <trkpt lat="45.52245" lon="4.7436">
        <ele>510</ele>
        <time>2015-06-07T11:07:40Z</time>
      </trkpt>
      <trkpt lat="45.52245" lon="4.7436">
        <ele>511</ele>
        <time>2015-06-07T11:07:43Z</time>
      </trkpt>
      <trkpt lat="45.52245" lon="4.7436">
        <ele>511</ele>
        <time>2015-06-07T11:07:46Z</time>
      </trkpt>
      <trkpt lat="45.52245" lon="4.7436">
        <ele>511</ele>
        <time>2015-06-07T11:07:49Z</time>
      </trkpt>
      <trkpt lat="45.52245" lon="4.7436">
        <ele>511</ele>
        <time>2015-06-07T11:07:52Z</time>
      </trkpt>
      <trkpt lat="45.52245" lon="4.7436">
        <ele>511</ele>
        <time>2015-06-07T11:07:55Z</time>
      </trkpt>
      <trkpt lat="45.52245" lon="4.7436">
        <ele>511</ele>
        <time>2015-06-07T11:07:58Z</time>
      </trkpt>
      <trkpt lat="45.52245" lon="4.7436">
        <ele>511</ele>
        <time>2015-06-07T11:08:01Z</time>
      </trkpt>
      <trkpt lat="45.52245" lon="4.7436">
        <ele>511</ele>
        <time>2015-06-07T11:08:04Z</time>
      </trkpt>
      <trkpt lat="45.52245" lon="4.7436">
        <ele>511</ele>
        <time>2015-06-07T11:08:07Z</time>
      </trkpt>
      <trkpt lat="45.52245" lon="4.7436">
        <ele>511</ele>
        <time>2015-06-07T11:08:10Z</time>
      </trkpt>
      <trkpt lat="45.52245" lon="4.7436">
        <ele>511</ele>
        <time>2015-06-07T11:08:13Z</time>
      </trkpt>
      <trkpt lat="45.52245" lon="4.7436">
        <ele>511</ele>
        <time>2015-06-07T11:08:15Z</time>
      </trkpt>
      <trkpt lat="45.52244" lon="4.74361">
        <ele>510</ele>
        <time>2015-06-07T11:08:19Z</time>
      </trkpt>
      <trkpt lat="45.52244" lon="4.74361">
        <ele>509</ele>
        <time>2015-06-07T11:08:22Z</time>
      </trkpt>
      <trkpt lat="45.52244" lon="4.74361">
        <ele>509</ele>
        <time>2015-06-07T11:08:25Z</time>
      </trkpt>
      <trkpt lat="45.52243" lon="4.74361">
        <ele>510</ele>
        <time>2015-06-07T11:08:28Z</time>
      </trkpt>
      <trkpt lat="45.52244" lon="4.74363">
        <ele>510</ele>
        <time>2015-06-07T11:08:31Z</time>
      </trkpt>
      <trkpt lat="45.52244" lon="4.74362">
        <ele>511</ele>
        <time>2015-06-07T11:08:34Z</time>
      </trkpt>
      <trkpt lat="45.52244" lon="4.74362">
        <ele>510</ele>
        <time>2015-06-07T11:08:37Z</time>
      </trkpt>
      <trkpt lat="45.52244" lon="4.74362">
        <ele>510</ele>
        <time>2015-06-07T11:08:40Z</time>
      </trkpt>
      <trkpt lat="45.52244" lon="4.74362">
        <ele>510</ele>
        <time>2015-06-07T11:08:43Z</time>
      </trkpt>
      <trkpt lat="45.52244" lon="4.74362">
        <ele>510</ele>
        <time>2015-06-07T11:08:46Z</time>
      </trkpt>
      <trkpt lat="45.52244" lon="4.74362">
        <ele>509</ele>
        <time>2015-06-07T11:08:49Z</time>
      </trkpt>
      <trkpt lat="45.52246" lon="4.74359">
        <ele>509</ele>
        <time>2015-06-07T11:08:51Z</time>
      </trkpt>
      <trkpt lat="45.52263" lon="4.74355">
        <ele>509</ele>
        <time>2015-06-07T11:08:57Z</time>
      </trkpt>
      <trkpt lat="45.52285" lon="4.74351">
        <ele>507</ele>
        <time>2015-06-07T11:09:01Z</time>
      </trkpt>
      <trkpt lat="45.52311" lon="4.74336">
        <ele>506</ele>
        <time>2015-06-07T11:09:06Z</time>
      </trkpt>
      <trkpt lat="45.52333" lon="4.74314">
        <ele>505</ele>
        <time>2015-06-07T11:09:10Z</time>
      </trkpt>
      <trkpt lat="45.52379" lon="4.74265">
        <ele>502</ele>
        <time>2015-06-07T11:09:19Z</time>
      </trkpt>
      <trkpt lat="45.52392" lon="4.74253">
        <ele>501</ele>
        <time>2015-06-07T11:09:20Z</time>
      </trkpt>
      <trkpt lat="45.52428" lon="4.74228">
        <ele>501</ele>
        <time>2015-06-07T11:09:25Z</time>
      </trkpt>
      <trkpt lat="45.52466" lon="4.74213">
        <ele>501</ele>
        <time>2015-06-07T11:09:30Z</time>
      </trkpt>
      <trkpt lat="45.52509" lon="4.74216">
        <ele>496</ele>
        <time>2015-06-07T11:09:35Z</time>
      </trkpt>
      <trkpt lat="45.52549" lon="4.7422">
        <ele>496</ele>
        <time>2015-06-07T11:09:41Z</time>
      </trkpt>
      <trkpt lat="45.52597" lon="4.74225">
        <ele>493</ele>
        <time>2015-06-07T11:09:46Z</time>
      </trkpt>
      <trkpt lat="45.52645" lon="4.74223">
        <ele>493</ele>
        <time>2015-06-07T11:09:50Z</time>
      </trkpt>
      <trkpt lat="45.52691" lon="4.74198">
        <ele>494</ele>
        <time>2015-06-07T11:09:56Z</time>
      </trkpt>
      <trkpt lat="45.5274" lon="4.7416">
        <ele>491</ele>
        <time>2015-06-07T11:10:01Z</time>
      </trkpt>
      <trkpt lat="45.52768" lon="4.74135">
        <ele>488</ele>
        <time>2015-06-07T11:10:05Z</time>
      </trkpt>
      <trkpt lat="45.52858" lon="4.74084">
        <ele>479</ele>
        <time>2015-06-07T11:10:14Z</time>
      </trkpt>
      <trkpt lat="45.52879" lon="4.74094">
        <ele>478</ele>
        <time>2015-06-07T11:10:16Z</time>
      </trkpt>
      <trkpt lat="45.52909" lon="4.74134">
        <ele>474</ele>
        <time>2015-06-07T11:10:19Z</time>
      </trkpt>
      <trkpt lat="45.52948" lon="4.74191">
        <ele>469</ele>
        <time>2015-06-07T11:10:25Z</time>
      </trkpt>
      <trkpt lat="45.52998" lon="4.7421">
        <ele>467</ele>
        <time>2015-06-07T11:10:29Z</time>
      </trkpt>
      <trkpt lat="45.53049" lon="4.74253">
        <ele>465</ele>
        <time>2015-06-07T11:10:35Z</time>
      </trkpt>
      <trkpt lat="45.53084" lon="4.74303">
        <ele>462</ele>
        <time>2015-06-07T11:10:41Z</time>
      </trkpt>
      <trkpt lat="45.53116" lon="4.74328">
        <ele>461</ele>
        <time>2015-06-07T11:10:44Z</time>
      </trkpt>
      <trkpt lat="45.53181" lon="4.74358">
        <ele>463</ele>
        <time>2015-06-07T11:10:52Z</time>
      </trkpt>
      <trkpt lat="45.53197" lon="4.74357">
        <ele>463</ele>
        <time>2015-06-07T11:10:54Z</time>
      </trkpt>
      <trkpt lat="45.53234" lon="4.74333">
        <ele>464</ele>
        <time>2015-06-07T11:11:00Z</time>
      </trkpt>
      <trkpt lat="45.53277" lon="4.74284">
        <ele>463</ele>
        <time>2015-06-07T11:11:05Z</time>
      </trkpt>
      <trkpt lat="45.53317" lon="4.74243">
        <ele>461</ele>
        <time>2015-06-07T11:11:11Z</time>
      </trkpt>
      <trkpt lat="45.53352" lon="4.74223">
        <ele>457</ele>
        <time>2015-06-07T11:11:14Z</time>
      </trkpt>
      <trkpt lat="45.53401" lon="4.74233">
        <ele>454</ele>
        <time>2015-06-07T11:11:19Z</time>
      </trkpt>
      <trkpt lat="45.53447" lon="4.74256">
        <ele>449</ele>
        <time>2015-06-07T11:11:24Z</time>
      </trkpt>
      <trkpt lat="45.53484" lon="4.74302">
        <ele>448</ele>
        <time>2015-06-07T11:11:29Z</time>
      </trkpt>
      <trkpt lat="45.53507" lon="4.7436">
        <ele>449</ele>
        <time>2015-06-07T11:11:34Z</time>
      </trkpt>
      <trkpt lat="45.53498" lon="4.74412">
        <ele>451</ele>
        <time>2015-06-07T11:11:39Z</time>
      </trkpt>
      <trkpt lat="45.53522" lon="4.74498">
        <ele>442</ele>
        <time>2015-06-07T11:11:49Z</time>
      </trkpt>
      <trkpt lat="45.5353" lon="4.74495">
        <ele>441</ele>
        <time>2015-06-07T11:11:50Z</time>
      </trkpt>
      <trkpt lat="45.53572" lon="4.74467">
        <ele>440</ele>
        <time>2015-06-07T11:11:54Z</time>
      </trkpt>
      <trkpt lat="45.53618" lon="4.74436">
        <ele>439</ele>
        <time>2015-06-07T11:12:00Z</time>
      </trkpt>
      <trkpt lat="45.53663" lon="4.7441">
        <ele>438</ele>
        <time>2015-06-07T11:12:05Z</time>
      </trkpt>
      <trkpt lat="45.53708" lon="4.74387">
        <ele>436</ele>
        <time>2015-06-07T11:12:10Z</time>
      </trkpt>
      <trkpt lat="45.53753" lon="4.74366">
        <ele>435</ele>
        <time>2015-06-07T11:12:14Z</time>
      </trkpt>
      <trkpt lat="45.53799" lon="4.7435">
        <ele>434</ele>
        <time>2015-06-07T11:12:19Z</time>
      </trkpt>
      <trkpt lat="45.53843" lon="4.74344">
        <ele>433</ele>
        <time>2015-06-07T11:12:24Z</time>
      </trkpt>
      <trkpt lat="45.53885" lon="4.74341">
        <ele>433</ele>
        <time>2015-06-07T11:12:29Z</time>
      </trkpt>
      <trkpt lat="45.53922" lon="4.74342">
        <ele>433</ele>
        <time>2015-06-07T11:12:35Z</time>
      </trkpt>
      <trkpt lat="45.53955" lon="4.74349">
        <ele>433</ele>
        <time>2015-06-07T11:12:39Z</time>
      </trkpt>
      <trkpt lat="45.53988" lon="4.74356">
        <ele>433</ele>
        <time>2015-06-07T11:12:45Z</time>
      </trkpt>
      <trkpt lat="45.54019" lon="4.74363">
        <ele>434</ele>
        <time>2015-06-07T11:12:49Z</time>
      </trkpt>
      <trkpt lat="45.54049" lon="4.74371">
        <ele>434</ele>
        <time>2015-06-07T11:12:54Z</time>
      </trkpt>
      <trkpt lat="45.54079" lon="4.74378">
        <ele>435</ele>
        <time>2015-06-07T11:12:59Z</time>
      </trkpt>
      <trkpt lat="45.54105" lon="4.74373">
        <ele>435</ele>
        <time>2015-06-07T11:13:04Z</time>
      </trkpt>
      <trkpt lat="45.54121" lon="4.7434">
        <ele>435</ele>
        <time>2015-06-07T11:13:09Z</time>
      </trkpt>
      <trkpt lat="45.54131" lon="4.74292">
        <ele>433</ele>
        <time>2015-06-07T11:13:14Z</time>
      </trkpt>
      <trkpt lat="45.54129" lon="4.74237">
        <ele>432</ele>
        <time>2015-06-07T11:13:20Z</time>
      </trkpt>
      <trkpt lat="45.54111" lon="4.7419">
        <ele>432</ele>
        <time>2015-06-07T11:13:24Z</time>
      </trkpt>
      <trkpt lat="45.5411" lon="4.7414">
        <ele>432</ele>
        <time>2015-06-07T11:13:29Z</time>
      </trkpt>
      <trkpt lat="45.54128" lon="4.74089">
        <ele>430</ele>
        <time>2015-06-07T11:13:34Z</time>
      </trkpt>
      <trkpt lat="45.54156" lon="4.74051">
        <ele>428</ele>
        <time>2015-06-07T11:13:40Z</time>
      </trkpt>
      <trkpt lat="45.5418" lon="4.74021">
        <ele>430</ele>
        <time>2015-06-07T11:13:45Z</time>
      </trkpt>
      <trkpt lat="45.54201" lon="4.73979">
        <ele>430</ele>
        <time>2015-06-07T11:13:51Z</time>
      </trkpt>
      <trkpt lat="45.54201" lon="4.7396">
        <ele>430</ele>
        <time>2015-06-07T11:13:55Z</time>
      </trkpt>
      <trkpt lat="45.54193" lon="4.73946">
        <ele>431</ele>
        <time>2015-06-07T11:13:59Z</time>
      </trkpt>
      <trkpt lat="45.54176" lon="4.73938">
        <ele>433</ele>
        <time>2015-06-07T11:14:03Z</time>
      </trkpt>
      <trkpt lat="45.54159" lon="4.73936">
        <ele>437</ele>
        <time>2015-06-07T11:14:08Z</time>
      </trkpt>
      <trkpt lat="45.54144" lon="4.73925">
        <ele>438</ele>
        <time>2015-06-07T11:14:14Z</time>
      </trkpt>
      <trkpt lat="45.54128" lon="4.73913">
        <ele>441</ele>
        <time>2015-06-07T11:14:18Z</time>
      </trkpt>
      <trkpt lat="45.54111" lon="4.73893">
        <ele>443</ele>
        <time>2015-06-07T11:14:26Z</time>
      </trkpt>
      <trkpt lat="45.54096" lon="4.73866">
        <ele>449</ele>
        <time>2015-06-07T11:14:32Z</time>
      </trkpt>
      <trkpt lat="45.54094" lon="4.73862">
        <ele>449</ele>
        <time>2015-06-07T11:14:33Z</time>
      </trkpt>
      <trkpt lat="45.54089" lon="4.73839">
        <ele>449</ele>
        <time>2015-06-07T11:14:38Z</time>
      </trkpt>
      <trkpt lat="45.54085" lon="4.73811">
        <ele>448</ele>
        <time>2015-06-07T11:14:45Z</time>
      </trkpt>
      <trkpt lat="45.54081" lon="4.7379">
        <ele>449</ele>
        <time>2015-06-07T11:14:49Z</time>
      </trkpt>
      <trkpt lat="45.54067" lon="4.73759">
        <ele>448</ele>
        <time>2015-06-07T11:14:54Z</time>
      </trkpt>
      <trkpt lat="45.54042" lon="4.73735">
        <ele>448</ele>
        <time>2015-06-07T11:14:58Z</time>
      </trkpt>
      <trkpt lat="45.54028" lon="4.73707">
        <ele>447</ele>
        <time>2015-06-07T11:15:02Z</time>
      </trkpt>
      <trkpt lat="45.54026" lon="4.73667">
        <ele>446</ele>
        <time>2015-06-07T11:15:07Z</time>
      </trkpt>
      <trkpt lat="45.54037" lon="4.7363">
        <ele>445</ele>
        <time>2015-06-07T11:15:13Z</time>
      </trkpt>
      <trkpt lat="45.54056" lon="4.73593">
        <ele>445</ele>
        <time>2015-06-07T11:15:17Z</time>
      </trkpt>
      <trkpt lat="45.54086" lon="4.73541">
        <ele>445</ele>
        <time>2015-06-07T11:15:24Z</time>
      </trkpt>
      <trkpt lat="45.54097" lon="4.73517">
        <ele>444</ele>
        <time>2015-06-07T11:15:28Z</time>
      </trkpt>
      <trkpt lat="45.54108" lon="4.73481">
        <ele>443</ele>
        <time>2015-06-07T11:15:31Z</time>
      </trkpt>
      <trkpt lat="45.54114" lon="4.73434">
        <ele>443</ele>
        <time>2015-06-07T11:15:37Z</time>
      </trkpt>
      <trkpt lat="45.54098" lon="4.73391">
        <ele>442</ele>
        <time>2015-06-07T11:15:41Z</time>
      </trkpt>
      <trkpt lat="45.54066" lon="4.73368">
        <ele>444</ele>
        <time>2015-06-07T11:15:46Z</time>
      </trkpt>
      <trkpt lat="45.54052" lon="4.7334">
        <ele>444</ele>
        <time>2015-06-07T11:15:50Z</time>
      </trkpt>
      <trkpt lat="45.54055" lon="4.73303">
        <ele>446</ele>
        <time>2015-06-07T11:15:55Z</time>
      </trkpt>
      <trkpt lat="45.54066" lon="4.73261">
        <ele>444</ele>
        <time>2015-06-07T11:16:01Z</time>
      </trkpt>
      <trkpt lat="45.54095" lon="4.73185">
        <ele>442</ele>
        <time>2015-06-07T11:16:10Z</time>
      </trkpt>
      <trkpt lat="45.54099" lon="4.73176">
        <ele>443</ele>
        <time>2015-06-07T11:16:11Z</time>
      </trkpt>
      <trkpt lat="45.54126" lon="4.7313">
        <ele>440</ele>
        <time>2015-06-07T11:16:15Z</time>
      </trkpt>
      <trkpt lat="45.54153" lon="4.73076">
        <ele>439</ele>
        <time>2015-06-07T11:16:20Z</time>
      </trkpt>
      <trkpt lat="45.54192" lon="4.73003">
        <ele>438</ele>
        <time>2015-06-07T11:16:27Z</time>
      </trkpt>
      <trkpt lat="45.54211" lon="4.72976">
        <ele>437</ele>
        <time>2015-06-07T11:16:30Z</time>
      </trkpt>
      <trkpt lat="45.54239" lon="4.72931">
        <ele>438</ele>
        <time>2015-06-07T11:16:36Z</time>
      </trkpt>
      <trkpt lat="45.54265" lon="4.72892">
        <ele>438</ele>
        <time>2015-06-07T11:16:40Z</time>
      </trkpt>
      <trkpt lat="45.54291" lon="4.72852">
        <ele>439</ele>
        <time>2015-06-07T11:16:46Z</time>
      </trkpt>
      <trkpt lat="45.54317" lon="4.72813">
        <ele>437</ele>
        <time>2015-06-07T11:16:51Z</time>
      </trkpt>
      <trkpt lat="45.54338" lon="4.72765">
        <ele>434</ele>
        <time>2015-06-07T11:16:55Z</time>
      </trkpt>
      <trkpt lat="45.54356" lon="4.72714">
        <ele>433</ele>
        <time>2015-06-07T11:17:00Z</time>
      </trkpt>
      <trkpt lat="45.5438" lon="4.7266">
        <ele>428</ele>
        <time>2015-06-07T11:17:06Z</time>
      </trkpt>
      <trkpt lat="45.54406" lon="4.7261">
        <ele>427</ele>
        <time>2015-06-07T11:17:10Z</time>
      </trkpt>
      <trkpt lat="45.54433" lon="4.7256">
        <ele>426</ele>
        <time>2015-06-07T11:17:15Z</time>
      </trkpt>
      <trkpt lat="45.54462" lon="4.72513">
        <ele>426</ele>
        <time>2015-06-07T11:17:20Z</time>
      </trkpt>
      <trkpt lat="45.54492" lon="4.72468">
        <ele>424</ele>
        <time>2015-06-07T11:17:25Z</time>
      </trkpt>
      <trkpt lat="45.54526" lon="4.72426">
        <ele>422</ele>
        <time>2015-06-07T11:17:31Z</time>
      </trkpt>
      <trkpt lat="45.54562" lon="4.72392">
        <ele>422</ele>
        <time>2015-06-07T11:17:35Z</time>
      </trkpt>
      <trkpt lat="45.54597" lon="4.72359">
        <ele>419</ele>
        <time>2015-06-07T11:17:41Z</time>
      </trkpt>
      <trkpt lat="45.54637" lon="4.72325">
        <ele>417</ele>
        <time>2015-06-07T11:17:45Z</time>
      </trkpt>
      <trkpt lat="45.54674" lon="4.72296">
        <ele>414</ele>
        <time>2015-06-07T11:17:50Z</time>
      </trkpt>
      <trkpt lat="45.54753" lon="4.7222">
        <ele>406</ele>
        <time>2015-06-07T11:17:57Z</time>
      </trkpt>
      <trkpt lat="45.54775" lon="4.72201">
        <ele>404</ele>
        <time>2015-06-07T11:18:00Z</time>
      </trkpt>
      <trkpt lat="45.54833" lon="4.72151">
        <ele>398</ele>
        <time>2015-06-07T11:18:04Z</time>
      </trkpt>
      <trkpt lat="45.54893" lon="4.72101">
        <ele>395</ele>
        <time>2015-06-07T11:18:10Z</time>
      </trkpt>
      <trkpt lat="45.54948" lon="4.72049">
        <ele>391</ele>
        <time>2015-06-07T11:18:15Z</time>
      </trkpt>
      <trkpt lat="45.54991" lon="4.71992">
        <ele>387</ele>
        <time>2015-06-07T11:18:19Z</time>
      </trkpt>
      <trkpt lat="45.55019" lon="4.71952">
        <ele>384</ele>
        <time>2015-06-07T11:18:24Z</time>
      </trkpt>
      <trkpt lat="45.5506" lon="4.71921">
        <ele>384</ele>
        <time>2015-06-07T11:18:34Z</time>
      </trkpt>
      <trkpt lat="45.55065" lon="4.71917">
        <ele>384</ele>
        <time>2015-06-07T11:18:34Z</time>
      </trkpt>
      <trkpt lat="45.55099" lon="4.71915">
        <ele>386</ele>
        <time>2015-06-07T11:18:42Z</time>
      </trkpt>
      <trkpt lat="45.55114" lon="4.71916">
        <ele>386</ele>
        <time>2015-06-07T11:18:44Z</time>
      </trkpt>
      <trkpt lat="45.55142" lon="4.71915">
        <ele>384</ele>
        <time>2015-06-07T11:18:49Z</time>
      </trkpt>
      <trkpt lat="45.55171" lon="4.71917">
        <ele>381</ele>
        <time>2015-06-07T11:18:54Z</time>
      </trkpt>
      <trkpt lat="45.552" lon="4.71923">
        <ele>379</ele>
        <time>2015-06-07T11:18:59Z</time>
      </trkpt>
      <trkpt lat="45.5523" lon="4.71917">
        <ele>378</ele>
        <time>2015-06-07T11:19:05Z</time>
      </trkpt>
      <trkpt lat="45.55261" lon="4.71913">
        <ele>375</ele>
        <time>2015-06-07T11:19:09Z</time>
      </trkpt>
      <trkpt lat="45.55294" lon="4.71909">
        <ele>374</ele>
        <time>2015-06-07T11:19:14Z</time>
      </trkpt>
      <trkpt lat="45.55336" lon="4.71902">
        <ele>370</ele>
        <time>2015-06-07T11:19:19Z</time>
      </trkpt>
      <trkpt lat="45.55378" lon="4.71882">
        <ele>366</ele>
        <time>2015-06-07T11:19:25Z</time>
      </trkpt>
      <trkpt lat="45.55424" lon="4.71857">
        <ele>363</ele>
        <time>2015-06-07T11:19:30Z</time>
      </trkpt>
      <trkpt lat="45.55446" lon="4.71832">
        <ele>358</ele>
        <time>2015-06-07T11:19:35Z</time>
      </trkpt>
      <trkpt lat="45.55441" lon="4.71802">
        <ele>359</ele>
        <time>2015-06-07T11:19:40Z</time>
      </trkpt>
      <trkpt lat="45.55431" lon="4.71784">
        <ele>361</ele>
        <time>2015-06-07T11:19:45Z</time>
      </trkpt>
      <trkpt lat="45.55428" lon="4.7177">
        <ele>363</ele>
        <time>2015-06-07T11:19:49Z</time>
      </trkpt>
      <trkpt lat="45.55431" lon="4.71749">
        <ele>361</ele>
        <time>2015-06-07T11:19:54Z</time>
      </trkpt>
      <trkpt lat="45.55424" lon="4.71743">
        <ele>360</ele>
        <time>2015-06-07T11:19:59Z</time>
      </trkpt>
      <trkpt lat="45.55423" lon="4.71742">
        <ele>361</ele>
        <time>2015-06-07T11:20:04Z</time>
      </trkpt>
      <trkpt lat="45.55424" lon="4.71742">
        <ele>361</ele>
        <time>2015-06-07T11:20:08Z</time>
      </trkpt>
      <trkpt lat="45.55423" lon="4.71742">
        <ele>361</ele>
        <time>2015-06-07T11:20:10Z</time>
      </trkpt>
      <trkpt lat="45.55423" lon="4.71741">
        <ele>362</ele>
        <time>2015-06-07T11:20:14Z</time>
      </trkpt>
      <trkpt lat="45.55421" lon="4.71741">
        <ele>362</ele>
        <time>2015-06-07T11:20:17Z</time>
      </trkpt>
      <trkpt lat="45.55421" lon="4.7174">
        <ele>362</ele>
        <time>2015-06-07T11:20:22Z</time>
      </trkpt>
      <trkpt lat="45.55421" lon="4.71741">
        <ele>362</ele>
        <time>2015-06-07T11:20:25Z</time>
      </trkpt>
      <trkpt lat="45.55421" lon="4.71741">
        <ele>362</ele>
        <time>2015-06-07T11:20:28Z</time>
      </trkpt>
      <trkpt lat="45.55421" lon="4.71741">
        <ele>362</ele>
        <time>2015-06-07T11:20:31Z</time>
      </trkpt>
      <trkpt lat="45.55421" lon="4.71741">
        <ele>362</ele>
        <time>2015-06-07T11:20:33Z</time>
      </trkpt>
      <trkpt lat="45.55421" lon="4.71741">
        <ele>362</ele>
        <time>2015-06-07T11:20:37Z</time>
      </trkpt>
      <trkpt lat="45.55421" lon="4.71741">
        <ele>362</ele>
        <time>2015-06-07T11:20:40Z</time>
      </trkpt>
      <trkpt lat="45.55421" lon="4.71741">
        <ele>362</ele>
        <time>2015-06-07T11:20:42Z</time>
      </trkpt>
      <trkpt lat="45.55421" lon="4.71741">
        <ele>362</ele>
        <time>2015-06-07T11:20:46Z</time>
      </trkpt>
      <trkpt lat="45.55421" lon="4.71741">
        <ele>362</ele>
        <time>2015-06-07T11:20:49Z</time>
      </trkpt>
      <trkpt lat="45.55421" lon="4.71741">
        <ele>362</ele>
        <time>2015-06-07T11:20:51Z</time>
      </trkpt>
      <trkpt lat="45.55421" lon="4.71741">
        <ele>362</ele>
        <time>2015-06-07T11:20:54Z</time>
      </trkpt>
      <trkpt lat="45.55421" lon="4.71741">
        <ele>362</ele>
        <time>2015-06-07T11:20:58Z</time>
      </trkpt>
      <trkpt lat="45.55421" lon="4.71741">
        <ele>362</ele>
        <time>2015-06-07T11:21:01Z</time>
      </trkpt>
      <trkpt lat="45.55421" lon="4.71741">
        <ele>362</ele>
        <time>2015-06-07T11:21:04Z</time>
      </trkpt>
      <trkpt lat="45.55421" lon="4.71741">
        <ele>362</ele>
        <time>2015-06-07T11:21:07Z</time>
      </trkpt>
      <trkpt lat="45.55421" lon="4.71741">
        <ele>362</ele>
        <time>2015-06-07T11:21:09Z</time>
      </trkpt>
      <trkpt lat="45.55421" lon="4.71741">
        <ele>362</ele>
        <time>2015-06-07T11:21:12Z</time>
      </trkpt>
      <trkpt lat="45.55421" lon="4.71741">
        <ele>362</ele>
        <time>2015-06-07T11:21:16Z</time>
      </trkpt>
      <trkpt lat="45.55421" lon="4.71741">
        <ele>362</ele>
        <time>2015-06-07T11:21:19Z</time>
      </trkpt>
      <trkpt lat="45.55421" lon="4.71742">
        <ele>363</ele>
        <time>2015-06-07T11:21:21Z</time>
      </trkpt>
      <trkpt lat="45.55422" lon="4.71743">
        <ele>362</ele>
        <time>2015-06-07T11:21:25Z</time>
      </trkpt>
      <trkpt lat="45.55422" lon="4.71743">
        <ele>361</ele>
        <time>2015-06-07T11:21:30Z</time>
      </trkpt>
      <trkpt lat="45.55422" lon="4.71743">
        <ele>361</ele>
        <time>2015-06-07T11:21:33Z</time>
      </trkpt>
      <trkpt lat="45.55423" lon="4.71743">
        <ele>361</ele>
        <time>2015-06-07T11:21:36Z</time>
      </trkpt>
      <trkpt lat="45.55423" lon="4.71743">
        <ele>361</ele>
        <time>2015-06-07T11:21:39Z</time>
      </trkpt>
      <trkpt lat="45.55423" lon="4.71743">
        <ele>361</ele>
        <time>2015-06-07T11:21:41Z</time>
      </trkpt>
      <trkpt lat="45.55423" lon="4.71743">
        <ele>361</ele>
        <time>2015-06-07T11:21:44Z</time>
      </trkpt>
      <trkpt lat="45.55422" lon="4.71742">
        <ele>362</ele>
        <time>2015-06-07T11:21:48Z</time>
      </trkpt>
      <trkpt lat="45.55421" lon="4.71742">
        <ele>363</ele>
        <time>2015-06-07T11:21:52Z</time>
      </trkpt>
      <trkpt lat="45.55421" lon="4.71742">
        <ele>362</ele>
        <time>2015-06-07T11:21:55Z</time>
      </trkpt>
      <trkpt lat="45.55421" lon="4.71742">
        <ele>362</ele>
        <time>2015-06-07T11:21:58Z</time>
      </trkpt>
      <trkpt lat="45.55422" lon="4.71743">
        <ele>362</ele>
        <time>2015-06-07T11:22:01Z</time>
      </trkpt>
      <trkpt lat="45.55422" lon="4.71744">
        <ele>364</ele>
        <time>2015-06-07T11:22:04Z</time>
      </trkpt>
      <trkpt lat="45.55422" lon="4.71747">
        <ele>362</ele>
        <time>2015-06-07T11:22:07Z</time>
      </trkpt>
      <trkpt lat="45.55422" lon="4.71748">
        <ele>363</ele>
        <time>2015-06-07T11:22:15Z</time>
      </trkpt>
      <trkpt lat="45.55422" lon="4.71748">
        <ele>362</ele>
        <time>2015-06-07T11:22:16Z</time>
      </trkpt>
      <trkpt lat="45.55422" lon="4.71748">
        <ele>361</ele>
        <time>2015-06-07T11:22:19Z</time>
      </trkpt>
      <trkpt lat="45.55422" lon="4.71748">
        <ele>362</ele>
        <time>2015-06-07T11:22:22Z</time>
      </trkpt>
      <trkpt lat="45.55422" lon="4.71748">
        <ele>361</ele>
        <time>2015-06-07T11:22:25Z</time>
      </trkpt>
      <trkpt lat="45.55422" lon="4.71748">
        <ele>361</ele>
        <time>2015-06-07T11:22:30Z</time>
      </trkpt>
      <trkpt lat="45.55422" lon="4.71748">
        <ele>361</ele>
        <time>2015-06-07T11:22:31Z</time>
      </trkpt>
      <trkpt lat="45.55422" lon="4.71748">
        <ele>361</ele>
        <time>2015-06-07T11:22:33Z</time>
      </trkpt>
      <trkpt lat="45.55423" lon="4.71747">
        <ele>361</ele>
        <time>2015-06-07T11:22:36Z</time>
      </trkpt>
      <trkpt lat="45.55424" lon="4.71745">
        <ele>361</ele>
        <time>2015-06-07T11:22:39Z</time>
      </trkpt>
      <trkpt lat="45.55424" lon="4.71746">
        <ele>362</ele>
        <time>2015-06-07T11:22:44Z</time>
      </trkpt>
      <trkpt lat="45.55424" lon="4.71745">
        <ele>362</ele>
        <time>2015-06-07T11:22:47Z</time>
      </trkpt>
      <trkpt lat="45.55424" lon="4.71745">
        <ele>362</ele>
        <time>2015-06-07T11:22:51Z</time>
      </trkpt>
      <trkpt lat="45.55424" lon="4.71745">
        <ele>362</ele>
        <time>2015-06-07T11:22:53Z</time>
      </trkpt>
      <trkpt lat="45.55424" lon="4.71745">
        <ele>362</ele>
        <time>2015-06-07T11:22:56Z</time>
      </trkpt>
      <trkpt lat="45.55424" lon="4.71745">
        <ele>362</ele>
        <time>2015-06-07T11:22:59Z</time>
      </trkpt>
      <trkpt lat="45.55424" lon="4.71745">
        <ele>362</ele>
        <time>2015-06-07T11:23:02Z</time>
      </trkpt>
      <trkpt lat="45.55424" lon="4.71745">
        <ele>362</ele>
        <time>2015-06-07T11:23:06Z</time>
      </trkpt>
      <trkpt lat="45.55424" lon="4.71745">
        <ele>362</ele>
        <time>2015-06-07T11:23:08Z</time>
      </trkpt>
      <trkpt lat="45.55424" lon="4.71745">
        <ele>362</ele>
        <time>2015-06-07T11:23:11Z</time>
      </trkpt>
      <trkpt lat="45.55424" lon="4.71745">
        <ele>362</ele>
        <time>2015-06-07T11:23:14Z</time>
      </trkpt>
      <trkpt lat="45.55424" lon="4.71745">
        <ele>362</ele>
        <time>2015-06-07T11:23:18Z</time>
      </trkpt>
      <trkpt lat="45.55426" lon="4.71743">
        <ele>358</ele>
        <time>2015-06-07T11:23:24Z</time>
      </trkpt>
      <trkpt lat="45.55426" lon="4.71743">
        <ele>358</ele>
        <time>2015-06-07T11:23:25Z</time>
      </trkpt>
      <trkpt lat="45.55426" lon="4.71741">
        <ele>357</ele>
        <time>2015-06-07T11:23:30Z</time>
      </trkpt>
      <trkpt lat="45.55426" lon="4.71742">
        <ele>357</ele>
        <time>2015-06-07T11:23:33Z</time>
      </trkpt>
      <trkpt lat="45.55426" lon="4.71742">
        <ele>357</ele>
        <time>2015-06-07T11:23:36Z</time>
      </trkpt>
      <trkpt lat="45.55426" lon="4.71742">
        <ele>358</ele>
        <time>2015-06-07T11:23:39Z</time>
      </trkpt>
      <trkpt lat="45.55426" lon="4.71742">
        <ele>358</ele>
        <time>2015-06-07T11:23:42Z</time>
      </trkpt>
      <trkpt lat="45.55426" lon="4.71742">
        <ele>357</ele>
        <time>2015-06-07T11:23:45Z</time>
      </trkpt>
      <trkpt lat="45.55426" lon="4.71743">
        <ele>358</ele>
        <time>2015-06-07T11:23:48Z</time>
      </trkpt>
      <trkpt lat="45.55426" lon="4.71743">
        <ele>358</ele>
        <time>2015-06-07T11:23:51Z</time>
      </trkpt>
      <trkpt lat="45.55426" lon="4.71743">
        <ele>358</ele>
        <time>2015-06-07T11:23:54Z</time>
      </trkpt>
      <trkpt lat="45.55426" lon="4.71743">
        <ele>358</ele>
        <time>2015-06-07T11:23:57Z</time>
      </trkpt>
      <trkpt lat="45.55426" lon="4.71743">
        <ele>358</ele>
        <time>2015-06-07T11:24:00Z</time>
      </trkpt>
      <trkpt lat="45.55426" lon="4.71743">
        <ele>358</ele>
        <time>2015-06-07T11:24:04Z</time>
      </trkpt>
      <trkpt lat="45.55426" lon="4.71743">
        <ele>358</ele>
        <time>2015-06-07T11:24:07Z</time>
      </trkpt>
      <trkpt lat="45.55426" lon="4.71743">
        <ele>358</ele>
        <time>2015-06-07T11:24:10Z</time>
      </trkpt>
      <trkpt lat="45.55426" lon="4.71743">
        <ele>358</ele>
        <time>2015-06-07T11:24:12Z</time>
      </trkpt>
      <trkpt lat="45.55427" lon="4.71743">
        <ele>356</ele>
        <time>2015-06-07T11:24:15Z</time>
      </trkpt>
      <trkpt lat="45.55426" lon="4.71744">
        <ele>356</ele>
        <time>2015-06-07T11:24:18Z</time>
      </trkpt>
      <trkpt lat="45.55428" lon="4.71744">
        <ele>353</ele>
        <time>2015-06-07T11:24:21Z</time>
      </trkpt>
      <trkpt lat="45.5543" lon="4.71746">
        <ele>350</ele>
        <time>2015-06-07T11:24:26Z</time>
      </trkpt>
      <trkpt lat="45.5543" lon="4.71745">
        <ele>349</ele>
        <time>2015-06-07T11:24:31Z</time>
      </trkpt>
      <trkpt lat="45.5543" lon="4.71744">
        <ele>350</ele>
        <time>2015-06-07T11:24:34Z</time>
      </trkpt>
      <trkpt lat="45.5543" lon="4.71744">
        <ele>350</ele>
        <time>2015-06-07T11:24:37Z</time>
      </trkpt>
      <trkpt lat="45.5543" lon="4.71744">
        <ele>350</ele>
        <time>2015-06-07T11:24:40Z</time>
      </trkpt>
      <trkpt lat="45.55429" lon="4.71743">
        <ele>352</ele>
        <time>2015-06-07T11:24:43Z</time>
      </trkpt>
      <trkpt lat="45.55428" lon="4.71743">
        <ele>353</ele>
        <time>2015-06-07T11:24:48Z</time>
      </trkpt>
      <trkpt lat="45.55427" lon="4.71742">
        <ele>355</ele>
        <time>2015-06-07T11:24:51Z</time>
      </trkpt>
      <trkpt lat="45.55427" lon="4.71742">
        <ele>355</ele>
        <time>2015-06-07T11:24:55Z</time>
      </trkpt>
      <trkpt lat="45.55427" lon="4.71741">
        <ele>355</ele>
        <time>2015-06-07T11:24:59Z</time>
      </trkpt>
      <trkpt lat="45.55427" lon="4.71741">
        <ele>354</ele>
        <time>2015-06-07T11:25:02Z</time>
      </trkpt>
      <trkpt lat="45.55427" lon="4.71741">
        <ele>354</ele>
        <time>2015-06-07T11:25:07Z</time>
      </trkpt>
      <trkpt lat="45.55427" lon="4.71741">
        <ele>354</ele>
        <time>2015-06-07T11:25:08Z</time>
      </trkpt>
      <trkpt lat="45.55427" lon="4.71741">
        <ele>354</ele>
        <time>2015-06-07T11:25:11Z</time>
      </trkpt>
      <trkpt lat="45.55427" lon="4.71741">
        <ele>354</ele>
        <time>2015-06-07T11:25:14Z</time>
      </trkpt>
      <trkpt lat="45.55427" lon="4.71741">
        <ele>354</ele>
        <time>2015-06-07T11:25:18Z</time>
      </trkpt>
      <trkpt lat="45.55427" lon="4.71741">
        <ele>354</ele>
        <time>2015-06-07T11:25:21Z</time>
      </trkpt>
      <trkpt lat="45.55427" lon="4.71741">
        <ele>354</ele>
        <time>2015-06-07T11:25:25Z</time>
      </trkpt>
      <trkpt lat="45.55427" lon="4.71741">
        <ele>354</ele>
        <time>2015-06-07T11:25:27Z</time>
      </trkpt>
      <trkpt lat="45.55427" lon="4.71741">
        <ele>354</ele>
        <time>2015-06-07T11:25:31Z</time>
      </trkpt>
    </trkseg>
  </trk>
</gpx>